<?xml version="1.0" encoding="UTF-8" standalone="yes"?>
<gpx
 xmlns="http://www.topografix.com/GPX/1/1"
 creator="OziExplorer Version 3956f - http://www.oziexplorer.com"
 version="1.1"
 xmlns:xsi="http://www.w3.org/2001/XMLSchema-instance"
 xsi:schemaLocation="http://www.topografix.com/GPX/1/1 http://www.topografix.com/GPX/1/1/gpx.xsd">
<metadata>
 <time>2023-11-22T06:55:40Z</time>
 <bounds minlat="31.607610" minlon="34.917390" maxlat="31.677680" maxlon="34.991500"/>
</metadata>
<trk>
 <name>BritaniaAdulam+Sin-37km700m</name>
 <desc>BritaniaAdulam+Sin-37km700m</desc>
<trkseg>
<trkpt lat="31.6632500" lon="34.9364400">
<ele>276.500000</ele>
<time>2023-11-22T08:55:40.242Z</time>
</trkpt>
<trkpt lat="31.6632900" lon="34.9364200">
<ele>274.920013</ele>
<time>2023-11-22T08:55:40.242Z</time>
</trkpt>
<trkpt lat="31.6633400" lon="34.9364100">
<ele>273.429993</ele>
<time>2023-11-22T08:55:40.243Z</time>
</trkpt>
<trkpt lat="31.6633800" lon="34.9363900">
<ele>272.859985</ele>
<time>2023-11-22T08:55:40.243Z</time>
</trkpt>
<trkpt lat="31.6634200" lon="34.9363600">
<ele>272.309998</ele>
<time>2023-11-22T08:55:40.243Z</time>
</trkpt>
<trkpt lat="31.6637100" lon="34.9360200">
<ele>267.649994</ele>
<time>2023-11-22T08:55:40.243Z</time>
</trkpt>
<trkpt lat="31.6639200" lon="34.9358500">
<ele>269.410004</ele>
<time>2023-11-22T08:55:40.243Z</time>
</trkpt>
<trkpt lat="31.6641400" lon="34.9357000">
<ele>276.600006</ele>
<time>2023-11-22T08:55:40.243Z</time>
</trkpt>
<trkpt lat="31.6641900" lon="34.9356500">
<ele>277.920013</ele>
<time>2023-11-22T08:55:40.243Z</time>
</trkpt>
<trkpt lat="31.6642600" lon="34.9355500">
<ele>279.660004</ele>
<time>2023-11-22T08:55:40.243Z</time>
</trkpt>
<trkpt lat="31.6643200" lon="34.9353900">
<ele>280.489990</ele>
<time>2023-11-22T08:55:40.243Z</time>
</trkpt>
<trkpt lat="31.6643300" lon="34.9352700">
<ele>279.600006</ele>
<time>2023-11-22T08:55:40.243Z</time>
</trkpt>
<trkpt lat="31.6644000" lon="34.9347000">
<ele>274.520020</ele>
<time>2023-11-22T08:55:40.243Z</time>
</trkpt>
<trkpt lat="31.6644900" lon="34.9343500">
<ele>270.520020</ele>
<time>2023-11-22T08:55:40.243Z</time>
</trkpt>
<trkpt lat="31.6645400" lon="34.9342200">
<ele>268.910004</ele>
<time>2023-11-22T08:55:40.243Z</time>
</trkpt>
<trkpt lat="31.6647000" lon="34.9339000">
<ele>264.309998</ele>
<time>2023-11-22T08:55:40.243Z</time>
</trkpt>
<trkpt lat="31.6649400" lon="34.9334800">
<ele>263.660004</ele>
<time>2023-11-22T08:55:40.243Z</time>
</trkpt>
<trkpt lat="31.6650800" lon="34.9332000">
<ele>264.420013</ele>
<time>2023-11-22T08:55:40.244Z</time>
</trkpt>
<trkpt lat="31.6654200" lon="34.9323800">
<ele>261.029999</ele>
<time>2023-11-22T08:55:40.244Z</time>
</trkpt>
<trkpt lat="31.6654700" lon="34.9322500">
<ele>259.790009</ele>
<time>2023-11-22T08:55:40.244Z</time>
</trkpt>
<trkpt lat="31.6655300" lon="34.9321900">
<ele>259.510010</ele>
<time>2023-11-22T08:55:40.244Z</time>
</trkpt>
<trkpt lat="31.6656200" lon="34.9321000">
<ele>260.000000</ele>
<time>2023-11-22T08:55:40.244Z</time>
</trkpt>
<trkpt lat="31.6658500" lon="34.9319900">
<ele>262.470001</ele>
<time>2023-11-22T08:55:40.244Z</time>
</trkpt>
<trkpt lat="31.6661300" lon="34.9319800">
<ele>270.309998</ele>
<time>2023-11-22T08:55:40.244Z</time>
</trkpt>
<trkpt lat="31.6662600" lon="34.9319800">
<ele>271.529999</ele>
<time>2023-11-22T08:55:40.244Z</time>
</trkpt>
<trkpt lat="31.6665000" lon="34.9320000">
<ele>272.600006</ele>
<time>2023-11-22T08:55:40.244Z</time>
</trkpt>
<trkpt lat="31.6666300" lon="34.9320600">
<ele>272.169983</ele>
<time>2023-11-22T08:55:40.244Z</time>
</trkpt>
<trkpt lat="31.6668200" lon="34.9322600">
<ele>271.119995</ele>
<time>2023-11-22T08:55:40.244Z</time>
</trkpt>
<trkpt lat="31.6672800" lon="34.9330300">
<ele>272.910004</ele>
<time>2023-11-22T08:55:40.244Z</time>
</trkpt>
<trkpt lat="31.6673300" lon="34.9330800">
<ele>273.260010</ele>
<time>2023-11-22T08:55:40.244Z</time>
</trkpt>
<trkpt lat="31.6675000" lon="34.9332500">
<ele>275.100006</ele>
<time>2023-11-22T08:55:40.244Z</time>
</trkpt>
<trkpt lat="31.6677100" lon="34.9333200">
<ele>272.149994</ele>
<time>2023-11-22T08:55:40.244Z</time>
</trkpt>
<trkpt lat="31.6681200" lon="34.9325600">
<ele>277.380005</ele>
<time>2023-11-22T08:55:40.244Z</time>
</trkpt>
<trkpt lat="31.6680700" lon="34.9324800">
<ele>276.179993</ele>
<time>2023-11-22T08:55:40.245Z</time>
</trkpt>
<trkpt lat="31.6681200" lon="34.9324000">
<ele>276.720001</ele>
<time>2023-11-22T08:55:40.245Z</time>
</trkpt>
<trkpt lat="31.6682000" lon="34.9324000">
<ele>278.050018</ele>
<time>2023-11-22T08:55:40.245Z</time>
</trkpt>
<trkpt lat="31.6684300" lon="34.9326500">
<ele>280.149994</ele>
<time>2023-11-22T08:55:40.245Z</time>
</trkpt>
<trkpt lat="31.6689100" lon="34.9330000">
<ele>269.190002</ele>
<time>2023-11-22T08:55:40.245Z</time>
</trkpt>
<trkpt lat="31.6690900" lon="34.9330100">
<ele>265.809998</ele>
<time>2023-11-22T08:55:40.245Z</time>
</trkpt>
<trkpt lat="31.6694900" lon="34.9327700">
<ele>260.880005</ele>
<time>2023-11-22T08:55:40.245Z</time>
</trkpt>
<trkpt lat="31.6699200" lon="34.9327800">
<ele>268.559998</ele>
<time>2023-11-22T08:55:40.245Z</time>
</trkpt>
<trkpt lat="31.6700900" lon="34.9327800">
<ele>269.989990</ele>
<time>2023-11-22T08:55:40.245Z</time>
</trkpt>
<trkpt lat="31.6703200" lon="34.9327800">
<ele>270.009979</ele>
<time>2023-11-22T08:55:40.245Z</time>
</trkpt>
<trkpt lat="31.6709700" lon="34.9335300">
<ele>276.179993</ele>
<time>2023-11-22T08:55:40.245Z</time>
</trkpt>
<trkpt lat="31.6710100" lon="34.9336000">
<ele>276.869995</ele>
<time>2023-11-22T08:55:40.245Z</time>
</trkpt>
<trkpt lat="31.6715100" lon="34.9340200">
<ele>273.970001</ele>
<time>2023-11-22T08:55:40.245Z</time>
</trkpt>
<trkpt lat="31.6718300" lon="34.9342300">
<ele>264.919983</ele>
<time>2023-11-22T08:55:40.245Z</time>
</trkpt>
<trkpt lat="31.6719600" lon="34.9342900">
<ele>261.589996</ele>
<time>2023-11-22T08:55:40.245Z</time>
</trkpt>
<trkpt lat="31.6721700" lon="34.9343000">
<ele>260.359985</ele>
<time>2023-11-22T08:55:40.245Z</time>
</trkpt>
<trkpt lat="31.6725700" lon="34.9343000">
<ele>258.350006</ele>
<time>2023-11-22T08:55:40.245Z</time>
</trkpt>
<trkpt lat="31.6726100" lon="34.9343000">
<ele>258.839996</ele>
<time>2023-11-22T08:55:40.245Z</time>
</trkpt>
<trkpt lat="31.6727300" lon="34.9342200">
<ele>259.320007</ele>
<time>2023-11-22T08:55:40.246Z</time>
</trkpt>
<trkpt lat="31.6727700" lon="34.9341300">
<ele>258.960022</ele>
<time>2023-11-22T08:55:40.246Z</time>
</trkpt>
<trkpt lat="31.6731500" lon="34.9338000">
<ele>260.220001</ele>
<time>2023-11-22T08:55:40.246Z</time>
</trkpt>
<trkpt lat="31.6738200" lon="34.9330900">
<ele>266.410004</ele>
<time>2023-11-22T08:55:40.246Z</time>
</trkpt>
<trkpt lat="31.6742400" lon="34.9326300">
<ele>271.630005</ele>
<time>2023-11-22T08:55:40.246Z</time>
</trkpt>
<trkpt lat="31.6746200" lon="34.9321600">
<ele>274.510010</ele>
<time>2023-11-22T08:55:40.246Z</time>
</trkpt>
<trkpt lat="31.6748500" lon="34.9319100">
<ele>278.110016</ele>
<time>2023-11-22T08:55:40.246Z</time>
</trkpt>
<trkpt lat="31.6750300" lon="34.9315600">
<ele>282.940002</ele>
<time>2023-11-22T08:55:40.246Z</time>
</trkpt>
<trkpt lat="31.6750400" lon="34.9313700">
<ele>286.989990</ele>
<time>2023-11-22T08:55:40.246Z</time>
</trkpt>
<trkpt lat="31.6751100" lon="34.9309800">
<ele>291.549988</ele>
<time>2023-11-22T08:55:40.246Z</time>
</trkpt>
<trkpt lat="31.6753300" lon="34.9307900">
<ele>291.369995</ele>
<time>2023-11-22T08:55:40.246Z</time>
</trkpt>
<trkpt lat="31.6756600" lon="34.9306300">
<ele>290.830017</ele>
<time>2023-11-22T08:55:40.246Z</time>
</trkpt>
<trkpt lat="31.6759500" lon="34.9304700">
<ele>292.229980</ele>
<time>2023-11-22T08:55:40.246Z</time>
</trkpt>
<trkpt lat="31.6762400" lon="34.9304700">
<ele>289.459991</ele>
<time>2023-11-22T08:55:40.246Z</time>
</trkpt>
<trkpt lat="31.6765400" lon="34.9304600">
<ele>289.149994</ele>
<time>2023-11-22T08:55:40.246Z</time>
</trkpt>
<trkpt lat="31.6768800" lon="34.9304500">
<ele>293.540009</ele>
<time>2023-11-22T08:55:40.246Z</time>
</trkpt>
<trkpt lat="31.6771200" lon="34.9304500">
<ele>297.290009</ele>
<time>2023-11-22T08:55:40.246Z</time>
</trkpt>
<trkpt lat="31.6773200" lon="34.9304600">
<ele>299.649994</ele>
<time>2023-11-22T08:55:40.247Z</time>
</trkpt>
<trkpt lat="31.6775000" lon="34.9305700">
<ele>299.839996</ele>
<time>2023-11-22T08:55:40.247Z</time>
</trkpt>
<trkpt lat="31.6775800" lon="34.9305800">
<ele>298.920013</ele>
<time>2023-11-22T08:55:40.247Z</time>
</trkpt>
<trkpt lat="31.6775900" lon="34.9301800">
<ele>303.730011</ele>
<time>2023-11-22T08:55:40.247Z</time>
</trkpt>
<trkpt lat="31.6775900" lon="34.9298600">
<ele>305.679993</ele>
<time>2023-11-22T08:55:40.247Z</time>
</trkpt>
<trkpt lat="31.6776100" lon="34.9295400">
<ele>309.019989</ele>
<time>2023-11-22T08:55:40.247Z</time>
</trkpt>
<trkpt lat="31.6776300" lon="34.9289600">
<ele>313.699982</ele>
<time>2023-11-22T08:55:40.247Z</time>
</trkpt>
<trkpt lat="31.6776300" lon="34.9282000">
<ele>312.880005</ele>
<time>2023-11-22T08:55:40.247Z</time>
</trkpt>
<trkpt lat="31.6776400" lon="34.9278700">
<ele>313.169983</ele>
<time>2023-11-22T08:55:40.247Z</time>
</trkpt>
<trkpt lat="31.6776600" lon="34.9276200">
<ele>313.169983</ele>
<time>2023-11-22T08:55:40.247Z</time>
</trkpt>
<trkpt lat="31.6776800" lon="34.9275900">
<ele>313.399994</ele>
<time>2023-11-22T08:55:40.247Z</time>
</trkpt>
<trkpt lat="31.6770800" lon="34.9273800">
<ele>312.010010</ele>
<time>2023-11-22T08:55:40.247Z</time>
</trkpt>
<trkpt lat="31.6768400" lon="34.9273200">
<ele>318.139984</ele>
<time>2023-11-22T08:55:40.247Z</time>
</trkpt>
<trkpt lat="31.6765300" lon="34.9271600">
<ele>324.429993</ele>
<time>2023-11-22T08:55:40.247Z</time>
</trkpt>
<trkpt lat="31.6762400" lon="34.9270300">
<ele>327.330017</ele>
<time>2023-11-22T08:55:40.247Z</time>
</trkpt>
<trkpt lat="31.6761500" lon="34.9268800">
<ele>326.809998</ele>
<time>2023-11-22T08:55:40.248Z</time>
</trkpt>
<trkpt lat="31.6760000" lon="34.9266900">
<ele>327.330017</ele>
<time>2023-11-22T08:55:40.248Z</time>
</trkpt>
<trkpt lat="31.6758400" lon="34.9265900">
<ele>327.819977</ele>
<time>2023-11-22T08:55:40.248Z</time>
</trkpt>
<trkpt lat="31.6756700" lon="34.9265200">
<ele>326.300018</ele>
<time>2023-11-22T08:55:40.248Z</time>
</trkpt>
<trkpt lat="31.6754900" lon="34.9264700">
<ele>323.559998</ele>
<time>2023-11-22T08:55:40.248Z</time>
</trkpt>
<trkpt lat="31.6754300" lon="34.9264600">
<ele>321.869995</ele>
<time>2023-11-22T08:55:40.248Z</time>
</trkpt>
<trkpt lat="31.6751000" lon="34.9264000">
<ele>318.190002</ele>
<time>2023-11-22T08:55:40.248Z</time>
</trkpt>
<trkpt lat="31.6748900" lon="34.9263700">
<ele>321.790009</ele>
<time>2023-11-22T08:55:40.248Z</time>
</trkpt>
<trkpt lat="31.6746900" lon="34.9262700">
<ele>326.000000</ele>
<time>2023-11-22T08:55:40.248Z</time>
</trkpt>
<trkpt lat="31.6744000" lon="34.9259900">
<ele>330.110016</ele>
<time>2023-11-22T08:55:40.248Z</time>
</trkpt>
<trkpt lat="31.6741800" lon="34.9256900">
<ele>328.519989</ele>
<time>2023-11-22T08:55:40.248Z</time>
</trkpt>
<trkpt lat="31.6740700" lon="34.9255900">
<ele>328.150024</ele>
<time>2023-11-22T08:55:40.248Z</time>
</trkpt>
<trkpt lat="31.6740000" lon="34.9254600">
<ele>326.619995</ele>
<time>2023-11-22T08:55:40.248Z</time>
</trkpt>
<trkpt lat="31.6739700" lon="34.9253900">
<ele>325.929993</ele>
<time>2023-11-22T08:55:40.248Z</time>
</trkpt>
<trkpt lat="31.6739100" lon="34.9248400">
<ele>317.270020</ele>
<time>2023-11-22T08:55:40.248Z</time>
</trkpt>
<trkpt lat="31.6738700" lon="34.9247300">
<ele>317.260010</ele>
<time>2023-11-22T08:55:40.249Z</time>
</trkpt>
<trkpt lat="31.6738200" lon="34.9246200">
<ele>317.010010</ele>
<time>2023-11-22T08:55:40.249Z</time>
</trkpt>
<trkpt lat="31.6737400" lon="34.9245500">
<ele>317.369995</ele>
<time>2023-11-22T08:55:40.249Z</time>
</trkpt>
<trkpt lat="31.6735900" lon="34.9244800">
<ele>318.099976</ele>
<time>2023-11-22T08:55:40.249Z</time>
</trkpt>
<trkpt lat="31.6732300" lon="34.9244700">
<ele>315.510010</ele>
<time>2023-11-22T08:55:40.249Z</time>
</trkpt>
<trkpt lat="31.6731600" lon="34.9244700">
<ele>315.050018</ele>
<time>2023-11-22T08:55:40.249Z</time>
</trkpt>
<trkpt lat="31.6720000" lon="34.9244800">
<ele>308.389984</ele>
<time>2023-11-22T08:55:40.249Z</time>
</trkpt>
<trkpt lat="31.6719300" lon="34.9245100">
<ele>308.440002</ele>
<time>2023-11-22T08:55:40.249Z</time>
</trkpt>
<trkpt lat="31.6718000" lon="34.9245700">
<ele>309.760010</ele>
<time>2023-11-22T08:55:40.249Z</time>
</trkpt>
<trkpt lat="31.6716300" lon="34.9247600">
<ele>312.669983</ele>
<time>2023-11-22T08:55:40.249Z</time>
</trkpt>
<trkpt lat="31.6716200" lon="34.9251200">
<ele>319.460022</ele>
<time>2023-11-22T08:55:40.249Z</time>
</trkpt>
<trkpt lat="31.6716200" lon="34.9253700">
<ele>322.549988</ele>
<time>2023-11-22T08:55:40.249Z</time>
</trkpt>
<trkpt lat="31.6717500" lon="34.9257700">
<ele>326.449982</ele>
<time>2023-11-22T08:55:40.249Z</time>
</trkpt>
<trkpt lat="31.6717900" lon="34.9258300">
<ele>326.970001</ele>
<time>2023-11-22T08:55:40.249Z</time>
</trkpt>
<trkpt lat="31.6718300" lon="34.9258600">
<ele>327.339996</ele>
<time>2023-11-22T08:55:40.249Z</time>
</trkpt>
<trkpt lat="31.6718200" lon="34.9262800">
<ele>330.949982</ele>
<time>2023-11-22T08:55:40.249Z</time>
</trkpt>
<trkpt lat="31.6717800" lon="34.9264600">
<ele>331.190002</ele>
<time>2023-11-22T08:55:40.250Z</time>
</trkpt>
<trkpt lat="31.6717000" lon="34.9264800">
<ele>330.389984</ele>
<time>2023-11-22T08:55:40.250Z</time>
</trkpt>
<trkpt lat="31.6715900" lon="34.9264600">
<ele>328.730011</ele>
<time>2023-11-22T08:55:40.250Z</time>
</trkpt>
<trkpt lat="31.6713400" lon="34.9264200">
<ele>326.760010</ele>
<time>2023-11-22T08:55:40.250Z</time>
</trkpt>
<trkpt lat="31.6711200" lon="34.9261900">
<ele>328.510010</ele>
<time>2023-11-22T08:55:40.250Z</time>
</trkpt>
<trkpt lat="31.6710000" lon="34.9260900">
<ele>325.240021</ele>
<time>2023-11-22T08:55:40.250Z</time>
</trkpt>
<trkpt lat="31.6709100" lon="34.9260000">
<ele>320.380005</ele>
<time>2023-11-22T08:55:40.250Z</time>
</trkpt>
<trkpt lat="31.6700200" lon="34.9259000">
<ele>304.190002</ele>
<time>2023-11-22T08:55:40.250Z</time>
</trkpt>
<trkpt lat="31.6697900" lon="34.9259300">
<ele>296.699982</ele>
<time>2023-11-22T08:55:40.250Z</time>
</trkpt>
<trkpt lat="31.6693000" lon="34.9259900">
<ele>295.130005</ele>
<time>2023-11-22T08:55:40.250Z</time>
</trkpt>
<trkpt lat="31.6690400" lon="34.9261600">
<ele>294.739990</ele>
<time>2023-11-22T08:55:40.250Z</time>
</trkpt>
<trkpt lat="31.6690300" lon="34.9260400">
<ele>294.869995</ele>
<time>2023-11-22T08:55:40.251Z</time>
</trkpt>
<trkpt lat="31.6687100" lon="34.9238300">
<ele>312.489990</ele>
<time>2023-11-22T08:55:40.251Z</time>
</trkpt>
<trkpt lat="31.6686500" lon="34.9232400">
<ele>316.220001</ele>
<time>2023-11-22T08:55:40.251Z</time>
</trkpt>
<trkpt lat="31.6686400" lon="34.9219900">
<ele>320.180023</ele>
<time>2023-11-22T08:55:40.251Z</time>
</trkpt>
<trkpt lat="31.6686200" lon="34.9218400">
<ele>322.260010</ele>
<time>2023-11-22T08:55:40.251Z</time>
</trkpt>
<trkpt lat="31.6685700" lon="34.9216000">
<ele>326.659973</ele>
<time>2023-11-22T08:55:40.251Z</time>
</trkpt>
<trkpt lat="31.6684500" lon="34.9213800">
<ele>331.299988</ele>
<time>2023-11-22T08:55:40.251Z</time>
</trkpt>
<trkpt lat="31.6682900" lon="34.9211600">
<ele>332.330017</ele>
<time>2023-11-22T08:55:40.251Z</time>
</trkpt>
<trkpt lat="31.6681900" lon="34.9210500">
<ele>331.980011</ele>
<time>2023-11-22T08:55:40.251Z</time>
</trkpt>
<trkpt lat="31.6681500" lon="34.9210300">
<ele>332.070007</ele>
<time>2023-11-22T08:55:40.251Z</time>
</trkpt>
<trkpt lat="31.6680500" lon="34.9209900">
<ele>332.579987</ele>
<time>2023-11-22T08:55:40.251Z</time>
</trkpt>
<trkpt lat="31.6679900" lon="34.9209800">
<ele>332.649994</ele>
<time>2023-11-22T08:55:40.251Z</time>
</trkpt>
<trkpt lat="31.6678700" lon="34.9210100">
<ele>333.059998</ele>
<time>2023-11-22T08:55:40.251Z</time>
</trkpt>
<trkpt lat="31.6678100" lon="34.9211000">
<ele>333.809998</ele>
<time>2023-11-22T08:55:40.252Z</time>
</trkpt>
<trkpt lat="31.6677200" lon="34.9212400">
<ele>334.559998</ele>
<time>2023-11-22T08:55:40.252Z</time>
</trkpt>
<trkpt lat="31.6676700" lon="34.9213100">
<ele>334.600006</ele>
<time>2023-11-22T08:55:40.252Z</time>
</trkpt>
<trkpt lat="31.6675700" lon="34.9215400">
<ele>335.910004</ele>
<time>2023-11-22T08:55:40.252Z</time>
</trkpt>
<trkpt lat="31.6674400" lon="34.9217300">
<ele>338.440002</ele>
<time>2023-11-22T08:55:40.252Z</time>
</trkpt>
<trkpt lat="31.6672600" lon="34.9217900">
<ele>337.310028</ele>
<time>2023-11-22T08:55:40.252Z</time>
</trkpt>
<trkpt lat="31.6670700" lon="34.9217900">
<ele>338.670013</ele>
<time>2023-11-22T08:55:40.252Z</time>
</trkpt>
<trkpt lat="31.6669400" lon="34.9217700">
<ele>340.209991</ele>
<time>2023-11-22T08:55:40.252Z</time>
</trkpt>
<trkpt lat="31.6668100" lon="34.9216700">
<ele>341.930023</ele>
<time>2023-11-22T08:55:40.252Z</time>
</trkpt>
<trkpt lat="31.6664600" lon="34.9213400">
<ele>344.649994</ele>
<time>2023-11-22T08:55:40.252Z</time>
</trkpt>
<trkpt lat="31.6663400" lon="34.9212100">
<ele>343.019989</ele>
<time>2023-11-22T08:55:40.252Z</time>
</trkpt>
<trkpt lat="31.6660400" lon="34.9210900">
<ele>337.380005</ele>
<time>2023-11-22T08:55:40.252Z</time>
</trkpt>
<trkpt lat="31.6654200" lon="34.9209900">
<ele>331.649994</ele>
<time>2023-11-22T08:55:40.252Z</time>
</trkpt>
<trkpt lat="31.6653400" lon="34.9209500">
<ele>331.170013</ele>
<time>2023-11-22T08:55:40.253Z</time>
</trkpt>
<trkpt lat="31.6652300" lon="34.9209100">
<ele>330.660004</ele>
<time>2023-11-22T08:55:40.253Z</time>
</trkpt>
<trkpt lat="31.6648900" lon="34.9208800">
<ele>330.599976</ele>
<time>2023-11-22T08:55:40.253Z</time>
</trkpt>
<trkpt lat="31.6647700" lon="34.9208900">
<ele>331.369995</ele>
<time>2023-11-22T08:55:40.253Z</time>
</trkpt>
<trkpt lat="31.6647100" lon="34.9209100">
<ele>331.660004</ele>
<time>2023-11-22T08:55:40.253Z</time>
</trkpt>
<trkpt lat="31.6646800" lon="34.9209800">
<ele>331.889984</ele>
<time>2023-11-22T08:55:40.253Z</time>
</trkpt>
<trkpt lat="31.6646700" lon="34.9210600">
<ele>332.420013</ele>
<time>2023-11-22T08:55:40.253Z</time>
</trkpt>
<trkpt lat="31.6646700" lon="34.9211500">
<ele>332.989990</ele>
<time>2023-11-22T08:55:40.253Z</time>
</trkpt>
<trkpt lat="31.6648500" lon="34.9219100">
<ele>332.600006</ele>
<time>2023-11-22T08:55:40.253Z</time>
</trkpt>
<trkpt lat="31.6648200" lon="34.9221500">
<ele>332.900024</ele>
<time>2023-11-22T08:55:40.253Z</time>
</trkpt>
<trkpt lat="31.6646700" lon="34.9221600">
<ele>330.679993</ele>
<time>2023-11-22T08:55:40.253Z</time>
</trkpt>
<trkpt lat="31.6641200" lon="34.9221400">
<ele>326.699982</ele>
<time>2023-11-22T08:55:40.253Z</time>
</trkpt>
<trkpt lat="31.6639600" lon="34.9221400">
<ele>326.940002</ele>
<time>2023-11-22T08:55:40.253Z</time>
</trkpt>
<trkpt lat="31.6638700" lon="34.9221000">
<ele>325.250000</ele>
<time>2023-11-22T08:55:40.253Z</time>
</trkpt>
<trkpt lat="31.6636100" lon="34.9220000">
<ele>317.579987</ele>
<time>2023-11-22T08:55:40.253Z</time>
</trkpt>
<trkpt lat="31.6635200" lon="34.9219700">
<ele>315.359985</ele>
<time>2023-11-22T08:55:40.253Z</time>
</trkpt>
<trkpt lat="31.6631800" lon="34.9220100">
<ele>313.420013</ele>
<time>2023-11-22T08:55:40.254Z</time>
</trkpt>
<trkpt lat="31.6629900" lon="34.9220400">
<ele>314.850006</ele>
<time>2023-11-22T08:55:40.254Z</time>
</trkpt>
<trkpt lat="31.6628500" lon="34.9218900">
<ele>314.710022</ele>
<time>2023-11-22T08:55:40.254Z</time>
</trkpt>
<trkpt lat="31.6627400" lon="34.9213500">
<ele>321.029999</ele>
<time>2023-11-22T08:55:40.254Z</time>
</trkpt>
<trkpt lat="31.6624700" lon="34.9207600">
<ele>325.329987</ele>
<time>2023-11-22T08:55:40.254Z</time>
</trkpt>
<trkpt lat="31.6623300" lon="34.9204900">
<ele>330.020020</ele>
<time>2023-11-22T08:55:40.254Z</time>
</trkpt>
<trkpt lat="31.6622600" lon="34.9201900">
<ele>331.870026</ele>
<time>2023-11-22T08:55:40.254Z</time>
</trkpt>
<trkpt lat="31.6620100" lon="34.9198100">
<ele>334.730011</ele>
<time>2023-11-22T08:55:40.254Z</time>
</trkpt>
<trkpt lat="31.6619600" lon="34.9196900">
<ele>335.179993</ele>
<time>2023-11-22T08:55:40.254Z</time>
</trkpt>
<trkpt lat="31.6618800" lon="34.9196300">
<ele>336.159973</ele>
<time>2023-11-22T08:55:40.254Z</time>
</trkpt>
<trkpt lat="31.6616300" lon="34.9195400">
<ele>339.040009</ele>
<time>2023-11-22T08:55:40.254Z</time>
</trkpt>
<trkpt lat="31.6615700" lon="34.9195300">
<ele>338.899994</ele>
<time>2023-11-22T08:55:40.254Z</time>
</trkpt>
<trkpt lat="31.6614900" lon="34.9195300">
<ele>338.880005</ele>
<time>2023-11-22T08:55:40.254Z</time>
</trkpt>
<trkpt lat="31.6614600" lon="34.9195800">
<ele>339.809998</ele>
<time>2023-11-22T08:55:40.254Z</time>
</trkpt>
<trkpt lat="31.6614800" lon="34.9198300">
<ele>343.510010</ele>
<time>2023-11-22T08:55:40.254Z</time>
</trkpt>
<trkpt lat="31.6614800" lon="34.9201000">
<ele>346.809998</ele>
<time>2023-11-22T08:55:40.255Z</time>
</trkpt>
<trkpt lat="31.6614900" lon="34.9206900">
<ele>352.179993</ele>
<time>2023-11-22T08:55:40.255Z</time>
</trkpt>
<trkpt lat="31.6614300" lon="34.9209600">
<ele>355.920013</ele>
<time>2023-11-22T08:55:40.255Z</time>
</trkpt>
<trkpt lat="31.6613200" lon="34.9211300">
<ele>357.260010</ele>
<time>2023-11-22T08:55:40.255Z</time>
</trkpt>
<trkpt lat="31.6610800" lon="34.9211600">
<ele>355.859985</ele>
<time>2023-11-22T08:55:40.255Z</time>
</trkpt>
<trkpt lat="31.6608400" lon="34.9211700">
<ele>358.559998</ele>
<time>2023-11-22T08:55:40.255Z</time>
</trkpt>
<trkpt lat="31.6601400" lon="34.9212000">
<ele>363.930023</ele>
<time>2023-11-22T08:55:40.255Z</time>
</trkpt>
<trkpt lat="31.6597200" lon="34.9210900">
<ele>367.549988</ele>
<time>2023-11-22T08:55:40.255Z</time>
</trkpt>
<trkpt lat="31.6592800" lon="34.9210000">
<ele>367.820007</ele>
<time>2023-11-22T08:55:40.255Z</time>
</trkpt>
<trkpt lat="31.6591200" lon="34.9210200">
<ele>367.960022</ele>
<time>2023-11-22T08:55:40.255Z</time>
</trkpt>
<trkpt lat="31.6590300" lon="34.9210800">
<ele>366.980011</ele>
<time>2023-11-22T08:55:40.255Z</time>
</trkpt>
<trkpt lat="31.6589500" lon="34.9211900">
<ele>366.639984</ele>
<time>2023-11-22T08:55:40.255Z</time>
</trkpt>
<trkpt lat="31.6587200" lon="34.9217400">
<ele>369.470001</ele>
<time>2023-11-22T08:55:40.255Z</time>
</trkpt>
<trkpt lat="31.6580200" lon="34.9224700">
<ele>353.929993</ele>
<time>2023-11-22T08:55:40.255Z</time>
</trkpt>
<trkpt lat="31.6578400" lon="34.9226600">
<ele>352.660004</ele>
<time>2023-11-22T08:55:40.255Z</time>
</trkpt>
<trkpt lat="31.6577900" lon="34.9226800">
<ele>352.389984</ele>
<time>2023-11-22T08:55:40.256Z</time>
</trkpt>
<trkpt lat="31.6577300" lon="34.9226800">
<ele>351.999969</ele>
<time>2023-11-22T08:55:40.256Z</time>
</trkpt>
<trkpt lat="31.6574900" lon="34.9226400">
<ele>349.800018</ele>
<time>2023-11-22T08:55:40.256Z</time>
</trkpt>
<trkpt lat="31.6573300" lon="34.9226300">
<ele>346.200012</ele>
<time>2023-11-22T08:55:40.256Z</time>
</trkpt>
<trkpt lat="31.6570800" lon="34.9226100">
<ele>344.000000</ele>
<time>2023-11-22T08:55:40.256Z</time>
</trkpt>
<trkpt lat="31.6567800" lon="34.9225200">
<ele>348.720001</ele>
<time>2023-11-22T08:55:40.256Z</time>
</trkpt>
<trkpt lat="31.6567200" lon="34.9224800">
<ele>350.280029</ele>
<time>2023-11-22T08:55:40.256Z</time>
</trkpt>
<trkpt lat="31.6564500" lon="34.9223000">
<ele>357.980011</ele>
<time>2023-11-22T08:55:40.256Z</time>
</trkpt>
<trkpt lat="31.6562700" lon="34.9222200">
<ele>362.089996</ele>
<time>2023-11-22T08:55:40.256Z</time>
</trkpt>
<trkpt lat="31.6549700" lon="34.9217900">
<ele>364.419983</ele>
<time>2023-11-22T08:55:40.256Z</time>
</trkpt>
<trkpt lat="31.6544100" lon="34.9215900">
<ele>374.279999</ele>
<time>2023-11-22T08:55:40.256Z</time>
</trkpt>
<trkpt lat="31.6543700" lon="34.9215900">
<ele>374.279999</ele>
<time>2023-11-22T08:55:40.256Z</time>
</trkpt>
<trkpt lat="31.6543100" lon="34.9216200">
<ele>374.170013</ele>
<time>2023-11-22T08:55:40.256Z</time>
</trkpt>
<trkpt lat="31.6541300" lon="34.9217800">
<ele>372.179993</ele>
<time>2023-11-22T08:55:40.259Z</time>
</trkpt>
<trkpt lat="31.6540600" lon="34.9217900">
<ele>372.459991</ele>
<time>2023-11-22T08:55:40.259Z</time>
</trkpt>
<trkpt lat="31.6537900" lon="34.9218000">
<ele>375.470001</ele>
<time>2023-11-22T08:55:40.259Z</time>
</trkpt>
<trkpt lat="31.6537200" lon="34.9218000">
<ele>376.850006</ele>
<time>2023-11-22T08:55:40.259Z</time>
</trkpt>
<trkpt lat="31.6533200" lon="34.9215300">
<ele>380.779999</ele>
<time>2023-11-22T08:55:40.259Z</time>
</trkpt>
<trkpt lat="31.6532400" lon="34.9214500">
<ele>379.579987</ele>
<time>2023-11-22T08:55:40.259Z</time>
</trkpt>
<trkpt lat="31.6532100" lon="34.9214000">
<ele>379.210022</ele>
<time>2023-11-22T08:55:40.259Z</time>
</trkpt>
<trkpt lat="31.6531700" lon="34.9212900">
<ele>376.869995</ele>
<time>2023-11-22T08:55:40.259Z</time>
</trkpt>
<trkpt lat="31.6531400" lon="34.9210400">
<ele>371.909973</ele>
<time>2023-11-22T08:55:40.259Z</time>
</trkpt>
<trkpt lat="31.6531400" lon="34.9207700">
<ele>367.600006</ele>
<time>2023-11-22T08:55:40.259Z</time>
</trkpt>
<trkpt lat="31.6531400" lon="34.9206900">
<ele>366.939972</ele>
<time>2023-11-22T08:55:40.259Z</time>
</trkpt>
<trkpt lat="31.6532300" lon="34.9199900">
<ele>367.230011</ele>
<time>2023-11-22T08:55:40.259Z</time>
</trkpt>
<trkpt lat="31.6532300" lon="34.9198600">
<ele>368.339996</ele>
<time>2023-11-22T08:55:40.259Z</time>
</trkpt>
<trkpt lat="31.6532300" lon="34.9197700">
<ele>369.100006</ele>
<time>2023-11-22T08:55:40.259Z</time>
</trkpt>
<trkpt lat="31.6531900" lon="34.9196200">
<ele>369.330017</ele>
<time>2023-11-22T08:55:40.260Z</time>
</trkpt>
<trkpt lat="31.6531000" lon="34.9194500">
<ele>369.949982</ele>
<time>2023-11-22T08:55:40.260Z</time>
</trkpt>
<trkpt lat="31.6529300" lon="34.9192600">
<ele>370.209991</ele>
<time>2023-11-22T08:55:40.260Z</time>
</trkpt>
<trkpt lat="31.6528000" lon="34.9191800">
<ele>370.820007</ele>
<time>2023-11-22T08:55:40.260Z</time>
</trkpt>
<trkpt lat="31.6525800" lon="34.9191200">
<ele>368.609985</ele>
<time>2023-11-22T08:55:40.260Z</time>
</trkpt>
<trkpt lat="31.6522400" lon="34.9191200">
<ele>364.529999</ele>
<time>2023-11-22T08:55:40.260Z</time>
</trkpt>
<trkpt lat="31.6520100" lon="34.9191500">
<ele>361.309998</ele>
<time>2023-11-22T08:55:40.260Z</time>
</trkpt>
<trkpt lat="31.6514200" lon="34.9194300">
<ele>357.109985</ele>
<time>2023-11-22T08:55:40.260Z</time>
</trkpt>
<trkpt lat="31.6513100" lon="34.9194400">
<ele>358.710022</ele>
<time>2023-11-22T08:55:40.260Z</time>
</trkpt>
<trkpt lat="31.6509300" lon="34.9194600">
<ele>363.080017</ele>
<time>2023-11-22T08:55:40.260Z</time>
</trkpt>
<trkpt lat="31.6505600" lon="34.9194400">
<ele>365.000000</ele>
<time>2023-11-22T08:55:40.260Z</time>
</trkpt>
<trkpt lat="31.6504200" lon="34.9193900">
<ele>366.070007</ele>
<time>2023-11-22T08:55:40.260Z</time>
</trkpt>
<trkpt lat="31.6502500" lon="34.9192600">
<ele>368.589996</ele>
<time>2023-11-22T08:55:40.260Z</time>
</trkpt>
<trkpt lat="31.6501600" lon="34.9191200">
<ele>370.260010</ele>
<time>2023-11-22T08:55:40.260Z</time>
</trkpt>
<trkpt lat="31.6500700" lon="34.9188700">
<ele>371.369995</ele>
<time>2023-11-22T08:55:40.260Z</time>
</trkpt>
<trkpt lat="31.6499900" lon="34.9185100">
<ele>372.820007</ele>
<time>2023-11-22T08:55:40.261Z</time>
</trkpt>
<trkpt lat="31.6499000" lon="34.9183000">
<ele>371.119995</ele>
<time>2023-11-22T08:55:40.261Z</time>
</trkpt>
<trkpt lat="31.6498400" lon="34.9182000">
<ele>369.920013</ele>
<time>2023-11-22T08:55:40.261Z</time>
</trkpt>
<trkpt lat="31.6496800" lon="34.9180400">
<ele>367.769989</ele>
<time>2023-11-22T08:55:40.261Z</time>
</trkpt>
<trkpt lat="31.6495900" lon="34.9180100">
<ele>367.369995</ele>
<time>2023-11-22T08:55:40.261Z</time>
</trkpt>
<trkpt lat="31.6494800" lon="34.9179900">
<ele>366.899994</ele>
<time>2023-11-22T08:55:40.261Z</time>
</trkpt>
<trkpt lat="31.6492900" lon="34.9179900">
<ele>367.400024</ele>
<time>2023-11-22T08:55:40.261Z</time>
</trkpt>
<trkpt lat="31.6487500" lon="34.9181100">
<ele>361.989990</ele>
<time>2023-11-22T08:55:40.261Z</time>
</trkpt>
<trkpt lat="31.6486500" lon="34.9181600">
<ele>360.059998</ele>
<time>2023-11-22T08:55:40.261Z</time>
</trkpt>
<trkpt lat="31.6480800" lon="34.9184900">
<ele>364.069977</ele>
<time>2023-11-22T08:55:40.261Z</time>
</trkpt>
<trkpt lat="31.6480000" lon="34.9185000">
<ele>365.239990</ele>
<time>2023-11-22T08:55:40.261Z</time>
</trkpt>
<trkpt lat="31.6478500" lon="34.9185000">
<ele>368.050018</ele>
<time>2023-11-22T08:55:40.261Z</time>
</trkpt>
<trkpt lat="31.6477400" lon="34.9184900">
<ele>369.769989</ele>
<time>2023-11-22T08:55:40.261Z</time>
</trkpt>
<trkpt lat="31.6476800" lon="34.9184600">
<ele>370.289978</ele>
<time>2023-11-22T08:55:40.261Z</time>
</trkpt>
<trkpt lat="31.6476400" lon="34.9184100">
<ele>370.530029</ele>
<time>2023-11-22T08:55:40.261Z</time>
</trkpt>
<trkpt lat="31.6475900" lon="34.9182400">
<ele>370.380005</ele>
<time>2023-11-22T08:55:40.261Z</time>
</trkpt>
<trkpt lat="31.6475800" lon="34.9180600">
<ele>369.299988</ele>
<time>2023-11-22T08:55:40.261Z</time>
</trkpt>
<trkpt lat="31.6475400" lon="34.9178200">
<ele>371.349976</ele>
<time>2023-11-22T08:55:40.261Z</time>
</trkpt>
<trkpt lat="31.6474600" lon="34.9177500">
<ele>370.860016</ele>
<time>2023-11-22T08:55:40.262Z</time>
</trkpt>
<trkpt lat="31.6472600" lon="34.9176400">
<ele>365.520020</ele>
<time>2023-11-22T08:55:40.262Z</time>
</trkpt>
<trkpt lat="31.6467800" lon="34.9174300">
<ele>359.929993</ele>
<time>2023-11-22T08:55:40.262Z</time>
</trkpt>
<trkpt lat="31.6466400" lon="34.9174000">
<ele>359.339996</ele>
<time>2023-11-22T08:55:40.262Z</time>
</trkpt>
<trkpt lat="31.6464900" lon="34.9173900">
<ele>358.950012</ele>
<time>2023-11-22T08:55:40.262Z</time>
</trkpt>
<trkpt lat="31.6464600" lon="34.9174100">
<ele>358.549988</ele>
<time>2023-11-22T08:55:40.262Z</time>
</trkpt>
<trkpt lat="31.6464800" lon="34.9175000">
<ele>357.330017</ele>
<time>2023-11-22T08:55:40.262Z</time>
</trkpt>
<trkpt lat="31.6466400" lon="34.9175900">
<ele>356.279968</ele>
<time>2023-11-22T08:55:40.262Z</time>
</trkpt>
<trkpt lat="31.6467400" lon="34.9177100">
<ele>355.350006</ele>
<time>2023-11-22T08:55:40.262Z</time>
</trkpt>
<trkpt lat="31.6467700" lon="34.9178100">
<ele>354.560028</ele>
<time>2023-11-22T08:55:40.262Z</time>
</trkpt>
<trkpt lat="31.6467800" lon="34.9179200">
<ele>353.709991</ele>
<time>2023-11-22T08:55:40.262Z</time>
</trkpt>
<trkpt lat="31.6467800" lon="34.9180200">
<ele>352.779999</ele>
<time>2023-11-22T08:55:40.262Z</time>
</trkpt>
<trkpt lat="31.6467600" lon="34.9181500">
<ele>351.339996</ele>
<time>2023-11-22T08:55:40.262Z</time>
</trkpt>
<trkpt lat="31.6466800" lon="34.9185900">
<ele>347.410004</ele>
<time>2023-11-22T08:55:40.262Z</time>
</trkpt>
<trkpt lat="31.6465600" lon="34.9192000">
<ele>340.990021</ele>
<time>2023-11-22T08:55:40.262Z</time>
</trkpt>
<trkpt lat="31.6465100" lon="34.9193200">
<ele>339.559998</ele>
<time>2023-11-22T08:55:40.262Z</time>
</trkpt>
<trkpt lat="31.6462200" lon="34.9199200">
<ele>331.630005</ele>
<time>2023-11-22T08:55:40.262Z</time>
</trkpt>
<trkpt lat="31.6460500" lon="34.9203500">
<ele>329.940002</ele>
<time>2023-11-22T08:55:40.263Z</time>
</trkpt>
<trkpt lat="31.6459000" lon="34.9206800">
<ele>328.010010</ele>
<time>2023-11-22T08:55:40.263Z</time>
</trkpt>
<trkpt lat="31.6454500" lon="34.9214900">
<ele>324.450012</ele>
<time>2023-11-22T08:55:40.263Z</time>
</trkpt>
<trkpt lat="31.6453900" lon="34.9216500">
<ele>324.529999</ele>
<time>2023-11-22T08:55:40.263Z</time>
</trkpt>
<trkpt lat="31.6452300" lon="34.9222100">
<ele>322.529999</ele>
<time>2023-11-22T08:55:40.263Z</time>
</trkpt>
<trkpt lat="31.6450800" lon="34.9225500">
<ele>319.309998</ele>
<time>2023-11-22T08:55:40.263Z</time>
</trkpt>
<trkpt lat="31.6450400" lon="34.9227200">
<ele>318.919983</ele>
<time>2023-11-22T08:55:40.263Z</time>
</trkpt>
<trkpt lat="31.6449700" lon="34.9232900">
<ele>318.520020</ele>
<time>2023-11-22T08:55:40.263Z</time>
</trkpt>
<trkpt lat="31.6449700" lon="34.9234200">
<ele>318.890015</ele>
<time>2023-11-22T08:55:40.263Z</time>
</trkpt>
<trkpt lat="31.6450500" lon="34.9240900">
<ele>322.089996</ele>
<time>2023-11-22T08:55:40.263Z</time>
</trkpt>
<trkpt lat="31.6450900" lon="34.9241500">
<ele>322.889984</ele>
<time>2023-11-22T08:55:40.263Z</time>
</trkpt>
<trkpt lat="31.6451800" lon="34.9242200">
<ele>323.250000</ele>
<time>2023-11-22T08:55:40.263Z</time>
</trkpt>
<trkpt lat="31.6454200" lon="34.9243600">
<ele>321.880005</ele>
<time>2023-11-22T08:55:40.263Z</time>
</trkpt>
<trkpt lat="31.6456100" lon="34.9245000">
<ele>320.109985</ele>
<time>2023-11-22T08:55:40.263Z</time>
</trkpt>
<trkpt lat="31.6459700" lon="34.9248500">
<ele>319.429993</ele>
<time>2023-11-22T08:55:40.263Z</time>
</trkpt>
<trkpt lat="31.6461300" lon="34.9249600">
<ele>315.260010</ele>
<time>2023-11-22T08:55:40.263Z</time>
</trkpt>
<trkpt lat="31.6461800" lon="34.9250500">
<ele>312.650024</ele>
<time>2023-11-22T08:55:40.263Z</time>
</trkpt>
<trkpt lat="31.6461800" lon="34.9251400">
<ele>311.100006</ele>
<time>2023-11-22T08:55:40.263Z</time>
</trkpt>
<trkpt lat="31.6464500" lon="34.9253800">
<ele>313.169983</ele>
<time>2023-11-22T08:55:40.264Z</time>
</trkpt>
<trkpt lat="31.6464000" lon="34.9255900">
<ele>312.020020</ele>
<time>2023-11-22T08:55:40.264Z</time>
</trkpt>
<trkpt lat="31.6463800" lon="34.9258200">
<ele>311.010010</ele>
<time>2023-11-22T08:55:40.264Z</time>
</trkpt>
<trkpt lat="31.6464200" lon="34.9260000">
<ele>310.200012</ele>
<time>2023-11-22T08:55:40.264Z</time>
</trkpt>
<trkpt lat="31.6465400" lon="34.9262300">
<ele>306.149994</ele>
<time>2023-11-22T08:55:40.264Z</time>
</trkpt>
<trkpt lat="31.6466500" lon="34.9265000">
<ele>298.440002</ele>
<time>2023-11-22T08:55:40.264Z</time>
</trkpt>
<trkpt lat="31.6466600" lon="34.9267100">
<ele>295.160004</ele>
<time>2023-11-22T08:55:40.264Z</time>
</trkpt>
<trkpt lat="31.6466600" lon="34.9268700">
<ele>295.050018</ele>
<time>2023-11-22T08:55:40.264Z</time>
</trkpt>
<trkpt lat="31.6465400" lon="34.9272600">
<ele>294.790009</ele>
<time>2023-11-22T08:55:40.264Z</time>
</trkpt>
<trkpt lat="31.6459800" lon="34.9283900">
<ele>301.920013</ele>
<time>2023-11-22T08:55:40.264Z</time>
</trkpt>
<trkpt lat="31.6457200" lon="34.9287800">
<ele>307.459991</ele>
<time>2023-11-22T08:55:40.264Z</time>
</trkpt>
<trkpt lat="31.6452600" lon="34.9292000">
<ele>305.489990</ele>
<time>2023-11-22T08:55:40.264Z</time>
</trkpt>
<trkpt lat="31.6445100" lon="34.9297600">
<ele>308.279999</ele>
<time>2023-11-22T08:55:40.264Z</time>
</trkpt>
<trkpt lat="31.6425300" lon="34.9312000">
<ele>307.959991</ele>
<time>2023-11-22T08:55:40.264Z</time>
</trkpt>
<trkpt lat="31.6423300" lon="34.9313200">
<ele>310.480011</ele>
<time>2023-11-22T08:55:40.264Z</time>
</trkpt>
<trkpt lat="31.6417900" lon="34.9315900">
<ele>316.350006</ele>
<time>2023-11-22T08:55:40.264Z</time>
</trkpt>
<trkpt lat="31.6406500" lon="34.9321500">
<ele>317.730011</ele>
<time>2023-11-22T08:55:40.264Z</time>
</trkpt>
<trkpt lat="31.6399100" lon="34.9324300">
<ele>312.750000</ele>
<time>2023-11-22T08:55:40.265Z</time>
</trkpt>
<trkpt lat="31.6394700" lon="34.9326100">
<ele>314.820007</ele>
<time>2023-11-22T08:55:40.265Z</time>
</trkpt>
<trkpt lat="31.6391600" lon="34.9327800">
<ele>319.899994</ele>
<time>2023-11-22T08:55:40.265Z</time>
</trkpt>
<trkpt lat="31.6387600" lon="34.9330700">
<ele>316.760010</ele>
<time>2023-11-22T08:55:40.265Z</time>
</trkpt>
<trkpt lat="31.6383400" lon="34.9334300">
<ele>320.749969</ele>
<time>2023-11-22T08:55:40.265Z</time>
</trkpt>
<trkpt lat="31.6379300" lon="34.9338400">
<ele>321.839996</ele>
<time>2023-11-22T08:55:40.265Z</time>
</trkpt>
<trkpt lat="31.6377300" lon="34.9341100">
<ele>323.209991</ele>
<time>2023-11-22T08:55:40.265Z</time>
</trkpt>
<trkpt lat="31.6373800" lon="34.9348200">
<ele>325.199982</ele>
<time>2023-11-22T08:55:40.265Z</time>
</trkpt>
<trkpt lat="31.6369700" lon="34.9356100">
<ele>325.929993</ele>
<time>2023-11-22T08:55:40.265Z</time>
</trkpt>
<trkpt lat="31.6368900" lon="34.9356100">
<ele>325.859985</ele>
<time>2023-11-22T08:55:40.265Z</time>
</trkpt>
<trkpt lat="31.6368100" lon="34.9356300">
<ele>326.170013</ele>
<time>2023-11-22T08:55:40.265Z</time>
</trkpt>
<trkpt lat="31.6367300" lon="34.9356700">
<ele>326.470001</ele>
<time>2023-11-22T08:55:40.265Z</time>
</trkpt>
<trkpt lat="31.6366400" lon="34.9357900">
<ele>326.809998</ele>
<time>2023-11-22T08:55:40.265Z</time>
</trkpt>
<trkpt lat="31.6365500" lon="34.9358200">
<ele>326.610016</ele>
<time>2023-11-22T08:55:40.265Z</time>
</trkpt>
<trkpt lat="31.6362600" lon="34.9359700">
<ele>327.479980</ele>
<time>2023-11-22T08:55:40.265Z</time>
</trkpt>
<trkpt lat="31.6361300" lon="34.9360900">
<ele>327.980011</ele>
<time>2023-11-22T08:55:40.265Z</time>
</trkpt>
<trkpt lat="31.6359900" lon="34.9361500">
<ele>331.649994</ele>
<time>2023-11-22T08:55:40.265Z</time>
</trkpt>
<trkpt lat="31.6354500" lon="34.9362000">
<ele>339.730011</ele>
<time>2023-11-22T08:55:40.265Z</time>
</trkpt>
<trkpt lat="31.6353700" lon="34.9364100">
<ele>337.839996</ele>
<time>2023-11-22T08:55:40.265Z</time>
</trkpt>
<trkpt lat="31.6353500" lon="34.9365000">
<ele>336.889984</ele>
<time>2023-11-22T08:55:40.266Z</time>
</trkpt>
<trkpt lat="31.6353200" lon="34.9365700">
<ele>335.800018</ele>
<time>2023-11-22T08:55:40.266Z</time>
</trkpt>
<trkpt lat="31.6353100" lon="34.9367300">
<ele>334.440002</ele>
<time>2023-11-22T08:55:40.266Z</time>
</trkpt>
<trkpt lat="31.6351700" lon="34.9370000">
<ele>333.830017</ele>
<time>2023-11-22T08:55:40.266Z</time>
</trkpt>
<trkpt lat="31.6344700" lon="34.9379600">
<ele>337.119995</ele>
<time>2023-11-22T08:55:40.266Z</time>
</trkpt>
<trkpt lat="31.6342200" lon="34.9387300">
<ele>344.930023</ele>
<time>2023-11-22T08:55:40.266Z</time>
</trkpt>
<trkpt lat="31.6340200" lon="34.9390100">
<ele>349.220001</ele>
<time>2023-11-22T08:55:40.266Z</time>
</trkpt>
<trkpt lat="31.6338200" lon="34.9394600">
<ele>355.389984</ele>
<time>2023-11-22T08:55:40.266Z</time>
</trkpt>
<trkpt lat="31.6336600" lon="34.9399900">
<ele>359.500000</ele>
<time>2023-11-22T08:55:40.266Z</time>
</trkpt>
<trkpt lat="31.6335200" lon="34.9401800">
<ele>361.700012</ele>
<time>2023-11-22T08:55:40.266Z</time>
</trkpt>
<trkpt lat="31.6334400" lon="34.9402400">
<ele>362.659973</ele>
<time>2023-11-22T08:55:40.266Z</time>
</trkpt>
<trkpt lat="31.6330600" lon="34.9404400">
<ele>363.980011</ele>
<time>2023-11-22T08:55:40.266Z</time>
</trkpt>
<trkpt lat="31.6329300" lon="34.9405700">
<ele>361.910004</ele>
<time>2023-11-22T08:55:40.266Z</time>
</trkpt>
<trkpt lat="31.6327600" lon="34.9408100">
<ele>359.809998</ele>
<time>2023-11-22T08:55:40.266Z</time>
</trkpt>
<trkpt lat="31.6325800" lon="34.9410200">
<ele>359.069977</ele>
<time>2023-11-22T08:55:40.266Z</time>
</trkpt>
<trkpt lat="31.6324100" lon="34.9411100">
<ele>357.660004</ele>
<time>2023-11-22T08:55:40.267Z</time>
</trkpt>
<trkpt lat="31.6322800" lon="34.9411900">
<ele>359.220001</ele>
<time>2023-11-22T08:55:40.267Z</time>
</trkpt>
<trkpt lat="31.6320100" lon="34.9416400">
<ele>363.720001</ele>
<time>2023-11-22T08:55:40.267Z</time>
</trkpt>
<trkpt lat="31.6319800" lon="34.9417300">
<ele>363.869995</ele>
<time>2023-11-22T08:55:40.267Z</time>
</trkpt>
<trkpt lat="31.6319000" lon="34.9418900">
<ele>364.830017</ele>
<time>2023-11-22T08:55:40.267Z</time>
</trkpt>
<trkpt lat="31.6315600" lon="34.9422900">
<ele>368.179993</ele>
<time>2023-11-22T08:55:40.267Z</time>
</trkpt>
<trkpt lat="31.6315300" lon="34.9423600">
<ele>369.240021</ele>
<time>2023-11-22T08:55:40.267Z</time>
</trkpt>
<trkpt lat="31.6314600" lon="34.9425800">
<ele>372.070007</ele>
<time>2023-11-22T08:55:40.267Z</time>
</trkpt>
<trkpt lat="31.6313800" lon="34.9428000">
<ele>374.059998</ele>
<time>2023-11-22T08:55:40.267Z</time>
</trkpt>
<trkpt lat="31.6309400" lon="34.9433300">
<ele>374.450012</ele>
<time>2023-11-22T08:55:40.267Z</time>
</trkpt>
<trkpt lat="31.6308400" lon="34.9434800">
<ele>376.470001</ele>
<time>2023-11-22T08:55:40.267Z</time>
</trkpt>
<trkpt lat="31.6305200" lon="34.9440700">
<ele>379.709991</ele>
<time>2023-11-22T08:55:40.267Z</time>
</trkpt>
<trkpt lat="31.6304900" lon="34.9441700">
<ele>378.050018</ele>
<time>2023-11-22T08:55:40.267Z</time>
</trkpt>
<trkpt lat="31.6303800" lon="34.9443100">
<ele>375.820007</ele>
<time>2023-11-22T08:55:40.267Z</time>
</trkpt>
<trkpt lat="31.6298200" lon="34.9443300">
<ele>369.149994</ele>
<time>2023-11-22T08:55:40.267Z</time>
</trkpt>
<trkpt lat="31.6296100" lon="34.9443200">
<ele>367.309998</ele>
<time>2023-11-22T08:55:40.267Z</time>
</trkpt>
<trkpt lat="31.6295200" lon="34.9443500">
<ele>366.080017</ele>
<time>2023-11-22T08:55:40.268Z</time>
</trkpt>
<trkpt lat="31.6294100" lon="34.9444000">
<ele>364.660004</ele>
<time>2023-11-22T08:55:40.268Z</time>
</trkpt>
<trkpt lat="31.6293300" lon="34.9444100">
<ele>364.549988</ele>
<time>2023-11-22T08:55:40.268Z</time>
</trkpt>
<trkpt lat="31.6292600" lon="34.9444200">
<ele>364.410004</ele>
<time>2023-11-22T08:55:40.268Z</time>
</trkpt>
<trkpt lat="31.6289000" lon="34.9441600">
<ele>368.109985</ele>
<time>2023-11-22T08:55:40.268Z</time>
</trkpt>
<trkpt lat="31.6286400" lon="34.9439100">
<ele>371.040009</ele>
<time>2023-11-22T08:55:40.268Z</time>
</trkpt>
<trkpt lat="31.6283000" lon="34.9434900">
<ele>368.430023</ele>
<time>2023-11-22T08:55:40.268Z</time>
</trkpt>
<trkpt lat="31.6282000" lon="34.9433900">
<ele>369.540009</ele>
<time>2023-11-22T08:55:40.268Z</time>
</trkpt>
<trkpt lat="31.6277400" lon="34.9430000">
<ele>371.190002</ele>
<time>2023-11-22T08:55:40.268Z</time>
</trkpt>
<trkpt lat="31.6276000" lon="34.9428700">
<ele>368.179993</ele>
<time>2023-11-22T08:55:40.268Z</time>
</trkpt>
<trkpt lat="31.6273900" lon="34.9427000">
<ele>361.720001</ele>
<time>2023-11-22T08:55:40.268Z</time>
</trkpt>
<trkpt lat="31.6270900" lon="34.9425100">
<ele>362.339996</ele>
<time>2023-11-22T08:55:40.268Z</time>
</trkpt>
<trkpt lat="31.6268800" lon="34.9423400">
<ele>359.309998</ele>
<time>2023-11-22T08:55:40.268Z</time>
</trkpt>
<trkpt lat="31.6267900" lon="34.9422600">
<ele>356.779999</ele>
<time>2023-11-22T08:55:40.268Z</time>
</trkpt>
<trkpt lat="31.6265200" lon="34.9419400">
<ele>351.420013</ele>
<time>2023-11-22T08:55:40.268Z</time>
</trkpt>
<trkpt lat="31.6264500" lon="34.9418800">
<ele>350.339996</ele>
<time>2023-11-22T08:55:40.268Z</time>
</trkpt>
<trkpt lat="31.6263600" lon="34.9418400">
<ele>349.139984</ele>
<time>2023-11-22T08:55:40.268Z</time>
</trkpt>
<trkpt lat="31.6258200" lon="34.9411000">
<ele>340.130005</ele>
<time>2023-11-22T08:55:40.268Z</time>
</trkpt>
<trkpt lat="31.6256800" lon="34.9408500">
<ele>339.969971</ele>
<time>2023-11-22T08:55:40.269Z</time>
</trkpt>
<trkpt lat="31.6256300" lon="34.9407100">
<ele>339.570007</ele>
<time>2023-11-22T08:55:40.269Z</time>
</trkpt>
<trkpt lat="31.6253900" lon="34.9399500">
<ele>330.970001</ele>
<time>2023-11-22T08:55:40.269Z</time>
</trkpt>
<trkpt lat="31.6253700" lon="34.9397100">
<ele>328.969971</ele>
<time>2023-11-22T08:55:40.269Z</time>
</trkpt>
<trkpt lat="31.6253400" lon="34.9396100">
<ele>328.690002</ele>
<time>2023-11-22T08:55:40.269Z</time>
</trkpt>
<trkpt lat="31.6252900" lon="34.9394900">
<ele>328.199982</ele>
<time>2023-11-22T08:55:40.269Z</time>
</trkpt>
<trkpt lat="31.6251600" lon="34.9392900">
<ele>330.949982</ele>
<time>2023-11-22T08:55:40.269Z</time>
</trkpt>
<trkpt lat="31.6250200" lon="34.9388600">
<ele>333.020020</ele>
<time>2023-11-22T08:55:40.269Z</time>
</trkpt>
<trkpt lat="31.6247700" lon="34.9383000">
<ele>324.229980</ele>
<time>2023-11-22T08:55:40.269Z</time>
</trkpt>
<trkpt lat="31.6246200" lon="34.9378600">
<ele>321.739990</ele>
<time>2023-11-22T08:55:40.269Z</time>
</trkpt>
<trkpt lat="31.6244300" lon="34.9374900">
<ele>322.140015</ele>
<time>2023-11-22T08:55:40.269Z</time>
</trkpt>
<trkpt lat="31.6243600" lon="34.9372700">
<ele>322.929993</ele>
<time>2023-11-22T08:55:40.269Z</time>
</trkpt>
<trkpt lat="31.6239400" lon="34.9355600">
<ele>314.750031</ele>
<time>2023-11-22T08:55:40.269Z</time>
</trkpt>
<trkpt lat="31.6238900" lon="34.9350200">
<ele>311.179993</ele>
<time>2023-11-22T08:55:40.269Z</time>
</trkpt>
<trkpt lat="31.6238900" lon="34.9346800">
<ele>307.869995</ele>
<time>2023-11-22T08:55:40.269Z</time>
</trkpt>
<trkpt lat="31.6238800" lon="34.9345400">
<ele>307.299988</ele>
<time>2023-11-22T08:55:40.269Z</time>
</trkpt>
<trkpt lat="31.6238600" lon="34.9344000">
<ele>306.899994</ele>
<time>2023-11-22T08:55:40.269Z</time>
</trkpt>
<trkpt lat="31.6237400" lon="34.9341300">
<ele>305.329987</ele>
<time>2023-11-22T08:55:40.269Z</time>
</trkpt>
<trkpt lat="31.6236400" lon="34.9338600">
<ele>304.420013</ele>
<time>2023-11-22T08:55:40.269Z</time>
</trkpt>
<trkpt lat="31.6235500" lon="34.9335200">
<ele>304.230011</ele>
<time>2023-11-22T08:55:40.270Z</time>
</trkpt>
<trkpt lat="31.6235400" lon="34.9333800">
<ele>303.660004</ele>
<time>2023-11-22T08:55:40.270Z</time>
</trkpt>
<trkpt lat="31.6235300" lon="34.9330800">
<ele>302.500000</ele>
<time>2023-11-22T08:55:40.270Z</time>
</trkpt>
<trkpt lat="31.6235200" lon="34.9329400">
<ele>302.619995</ele>
<time>2023-11-22T08:55:40.270Z</time>
</trkpt>
<trkpt lat="31.6233800" lon="34.9325500">
<ele>301.100006</ele>
<time>2023-11-22T08:55:40.270Z</time>
</trkpt>
<trkpt lat="31.6233600" lon="34.9323300">
<ele>299.470001</ele>
<time>2023-11-22T08:55:40.270Z</time>
</trkpt>
<trkpt lat="31.6233200" lon="34.9320000">
<ele>297.820007</ele>
<time>2023-11-22T08:55:40.270Z</time>
</trkpt>
<trkpt lat="31.6233000" lon="34.9317000">
<ele>296.850006</ele>
<time>2023-11-22T08:55:40.270Z</time>
</trkpt>
<trkpt lat="31.6232900" lon="34.9315700">
<ele>295.809998</ele>
<time>2023-11-22T08:55:40.270Z</time>
</trkpt>
<trkpt lat="31.6232700" lon="34.9307400">
<ele>292.380005</ele>
<time>2023-11-22T08:55:40.270Z</time>
</trkpt>
<trkpt lat="31.6232600" lon="34.9305100">
<ele>292.510010</ele>
<time>2023-11-22T08:55:40.270Z</time>
</trkpt>
<trkpt lat="31.6232500" lon="34.9303400">
<ele>293.389984</ele>
<time>2023-11-22T08:55:40.270Z</time>
</trkpt>
<trkpt lat="31.6232100" lon="34.9300500">
<ele>292.639984</ele>
<time>2023-11-22T08:55:40.270Z</time>
</trkpt>
<trkpt lat="31.6231500" lon="34.9297900">
<ele>292.899994</ele>
<time>2023-11-22T08:55:40.271Z</time>
</trkpt>
<trkpt lat="31.6230100" lon="34.9294800">
<ele>297.130005</ele>
<time>2023-11-22T08:55:40.271Z</time>
</trkpt>
<trkpt lat="31.6228700" lon="34.9292800">
<ele>300.380005</ele>
<time>2023-11-22T08:55:40.271Z</time>
</trkpt>
<trkpt lat="31.6227300" lon="34.9290900">
<ele>303.250000</ele>
<time>2023-11-22T08:55:40.271Z</time>
</trkpt>
<trkpt lat="31.6221100" lon="34.9283800">
<ele>300.359985</ele>
<time>2023-11-22T08:55:40.271Z</time>
</trkpt>
<trkpt lat="31.6214500" lon="34.9277700">
<ele>298.640015</ele>
<time>2023-11-22T08:55:40.271Z</time>
</trkpt>
<trkpt lat="31.6207200" lon="34.9273800">
<ele>285.019989</ele>
<time>2023-11-22T08:55:40.271Z</time>
</trkpt>
<trkpt lat="31.6200800" lon="34.9271200">
<ele>292.750000</ele>
<time>2023-11-22T08:55:40.271Z</time>
</trkpt>
<trkpt lat="31.6199600" lon="34.9270300">
<ele>293.899994</ele>
<time>2023-11-22T08:55:40.271Z</time>
</trkpt>
<trkpt lat="31.6196600" lon="34.9270100">
<ele>297.660004</ele>
<time>2023-11-22T08:55:40.271Z</time>
</trkpt>
<trkpt lat="31.6191600" lon="34.9268000">
<ele>291.380005</ele>
<time>2023-11-22T08:55:40.271Z</time>
</trkpt>
<trkpt lat="31.6188300" lon="34.9267600">
<ele>287.750000</ele>
<time>2023-11-22T08:55:40.271Z</time>
</trkpt>
<trkpt lat="31.6185300" lon="34.9268000">
<ele>283.739990</ele>
<time>2023-11-22T08:55:40.271Z</time>
</trkpt>
<trkpt lat="31.6184200" lon="34.9268300">
<ele>282.929993</ele>
<time>2023-11-22T08:55:40.271Z</time>
</trkpt>
<trkpt lat="31.6182900" lon="34.9269400">
<ele>282.200012</ele>
<time>2023-11-22T08:55:40.272Z</time>
</trkpt>
<trkpt lat="31.6182500" lon="34.9269800">
<ele>281.759979</ele>
<time>2023-11-22T08:55:40.272Z</time>
</trkpt>
<trkpt lat="31.6178200" lon="34.9273400">
<ele>277.029999</ele>
<time>2023-11-22T08:55:40.272Z</time>
</trkpt>
<trkpt lat="31.6176600" lon="34.9274300">
<ele>276.500000</ele>
<time>2023-11-22T08:55:40.272Z</time>
</trkpt>
<trkpt lat="31.6175500" lon="34.9274600">
<ele>276.049988</ele>
<time>2023-11-22T08:55:40.272Z</time>
</trkpt>
<trkpt lat="31.6171700" lon="34.9274800">
<ele>275.910004</ele>
<time>2023-11-22T08:55:40.272Z</time>
</trkpt>
<trkpt lat="31.6171100" lon="34.9274900">
<ele>275.950012</ele>
<time>2023-11-22T08:55:40.272Z</time>
</trkpt>
<trkpt lat="31.6170300" lon="34.9275400">
<ele>276.329987</ele>
<time>2023-11-22T08:55:40.272Z</time>
</trkpt>
<trkpt lat="31.6170000" lon="34.9276100">
<ele>276.869995</ele>
<time>2023-11-22T08:55:40.272Z</time>
</trkpt>
<trkpt lat="31.6169700" lon="34.9278700">
<ele>278.850006</ele>
<time>2023-11-22T08:55:40.272Z</time>
</trkpt>
<trkpt lat="31.6169200" lon="34.9280300">
<ele>279.820007</ele>
<time>2023-11-22T08:55:40.272Z</time>
</trkpt>
<trkpt lat="31.6167500" lon="34.9285100">
<ele>282.809998</ele>
<time>2023-11-22T08:55:40.272Z</time>
</trkpt>
<trkpt lat="31.6166800" lon="34.9286500">
<ele>282.410004</ele>
<time>2023-11-22T08:55:40.272Z</time>
</trkpt>
<trkpt lat="31.6165400" lon="34.9290000">
<ele>282.429993</ele>
<time>2023-11-22T08:55:40.272Z</time>
</trkpt>
<trkpt lat="31.6164500" lon="34.9291700">
<ele>282.699982</ele>
<time>2023-11-22T08:55:40.272Z</time>
</trkpt>
<trkpt lat="31.6164300" lon="34.9293000">
<ele>283.960022</ele>
<time>2023-11-22T08:55:40.272Z</time>
</trkpt>
<trkpt lat="31.6164200" lon="34.9297100">
<ele>287.679993</ele>
<time>2023-11-22T08:55:40.272Z</time>
</trkpt>
<trkpt lat="31.6164100" lon="34.9300300">
<ele>290.319977</ele>
<time>2023-11-22T08:55:40.273Z</time>
</trkpt>
<trkpt lat="31.6163400" lon="34.9303300">
<ele>293.929993</ele>
<time>2023-11-22T08:55:40.273Z</time>
</trkpt>
<trkpt lat="31.6162200" lon="34.9305100">
<ele>291.300018</ele>
<time>2023-11-22T08:55:40.273Z</time>
</trkpt>
<trkpt lat="31.6160100" lon="34.9313500">
<ele>300.940002</ele>
<time>2023-11-22T08:55:40.273Z</time>
</trkpt>
<trkpt lat="31.6158000" lon="34.9319800">
<ele>296.309998</ele>
<time>2023-11-22T08:55:40.273Z</time>
</trkpt>
<trkpt lat="31.6157300" lon="34.9328400">
<ele>302.309998</ele>
<time>2023-11-22T08:55:40.273Z</time>
</trkpt>
<trkpt lat="31.6157200" lon="34.9332600">
<ele>303.660004</ele>
<time>2023-11-22T08:55:40.273Z</time>
</trkpt>
<trkpt lat="31.6156800" lon="34.9336800">
<ele>304.890015</ele>
<time>2023-11-22T08:55:40.273Z</time>
</trkpt>
<trkpt lat="31.6155800" lon="34.9339400">
<ele>304.260010</ele>
<time>2023-11-22T08:55:40.273Z</time>
</trkpt>
<trkpt lat="31.6155400" lon="34.9342800">
<ele>305.260010</ele>
<time>2023-11-22T08:55:40.273Z</time>
</trkpt>
<trkpt lat="31.6154800" lon="34.9345500">
<ele>304.589996</ele>
<time>2023-11-22T08:55:40.273Z</time>
</trkpt>
<trkpt lat="31.6154500" lon="34.9348800">
<ele>304.559998</ele>
<time>2023-11-22T08:55:40.273Z</time>
</trkpt>
<trkpt lat="31.6149300" lon="34.9372700">
<ele>293.639984</ele>
<time>2023-11-22T08:55:40.273Z</time>
</trkpt>
<trkpt lat="31.6149000" lon="34.9374700">
<ele>295.410004</ele>
<time>2023-11-22T08:55:40.273Z</time>
</trkpt>
<trkpt lat="31.6148400" lon="34.9376000">
<ele>295.709991</ele>
<time>2023-11-22T08:55:40.273Z</time>
</trkpt>
<trkpt lat="31.6147700" lon="34.9379300">
<ele>299.070007</ele>
<time>2023-11-22T08:55:40.273Z</time>
</trkpt>
<trkpt lat="31.6147300" lon="34.9381600">
<ele>302.110016</ele>
<time>2023-11-22T08:55:40.273Z</time>
</trkpt>
<trkpt lat="31.6147200" lon="34.9384200">
<ele>306.209991</ele>
<time>2023-11-22T08:55:40.274Z</time>
</trkpt>
<trkpt lat="31.6147100" lon="34.9390300">
<ele>314.020020</ele>
<time>2023-11-22T08:55:40.274Z</time>
</trkpt>
<trkpt lat="31.6147200" lon="34.9392800">
<ele>314.499969</ele>
<time>2023-11-22T08:55:40.274Z</time>
</trkpt>
<trkpt lat="31.6147500" lon="34.9394200">
<ele>315.209991</ele>
<time>2023-11-22T08:55:40.274Z</time>
</trkpt>
<trkpt lat="31.6149000" lon="34.9398600">
<ele>318.130005</ele>
<time>2023-11-22T08:55:40.274Z</time>
</trkpt>
<trkpt lat="31.6149800" lon="34.9402800">
<ele>317.529999</ele>
<time>2023-11-22T08:55:40.274Z</time>
</trkpt>
<trkpt lat="31.6150400" lon="34.9405100">
<ele>314.159973</ele>
<time>2023-11-22T08:55:40.274Z</time>
</trkpt>
<trkpt lat="31.6151700" lon="34.9408800">
<ele>312.839996</ele>
<time>2023-11-22T08:55:40.274Z</time>
</trkpt>
<trkpt lat="31.6151900" lon="34.9409600">
<ele>313.049988</ele>
<time>2023-11-22T08:55:40.274Z</time>
</trkpt>
<trkpt lat="31.6152400" lon="34.9411300">
<ele>313.590027</ele>
<time>2023-11-22T08:55:40.274Z</time>
</trkpt>
<trkpt lat="31.6152500" lon="34.9412500">
<ele>313.699982</ele>
<time>2023-11-22T08:55:40.274Z</time>
</trkpt>
<trkpt lat="31.6152900" lon="34.9414500">
<ele>314.629974</ele>
<time>2023-11-22T08:55:40.274Z</time>
</trkpt>
<trkpt lat="31.6153000" lon="34.9415800">
<ele>315.609985</ele>
<time>2023-11-22T08:55:40.274Z</time>
</trkpt>
<trkpt lat="31.6153200" lon="34.9417400">
<ele>316.949982</ele>
<time>2023-11-22T08:55:40.274Z</time>
</trkpt>
<trkpt lat="31.6153800" lon="34.9419400">
<ele>319.790009</ele>
<time>2023-11-22T08:55:40.274Z</time>
</trkpt>
<trkpt lat="31.6154200" lon="34.9420900">
<ele>321.359985</ele>
<time>2023-11-22T08:55:40.274Z</time>
</trkpt>
<trkpt lat="31.6155300" lon="34.9423200">
<ele>325.299988</ele>
<time>2023-11-22T08:55:40.274Z</time>
</trkpt>
<trkpt lat="31.6156000" lon="34.9425600">
<ele>327.250031</ele>
<time>2023-11-22T08:55:40.275Z</time>
</trkpt>
<trkpt lat="31.6157500" lon="34.9429100">
<ele>332.239990</ele>
<time>2023-11-22T08:55:40.275Z</time>
</trkpt>
<trkpt lat="31.6157800" lon="34.9430200">
<ele>333.710022</ele>
<time>2023-11-22T08:55:40.275Z</time>
</trkpt>
<trkpt lat="31.6158900" lon="34.9432500">
<ele>331.989990</ele>
<time>2023-11-22T08:55:40.275Z</time>
</trkpt>
<trkpt lat="31.6159400" lon="34.9434000">
<ele>329.529999</ele>
<time>2023-11-22T08:55:40.275Z</time>
</trkpt>
<trkpt lat="31.6160100" lon="34.9434900">
<ele>327.809967</ele>
<time>2023-11-22T08:55:40.275Z</time>
</trkpt>
<trkpt lat="31.6160600" lon="34.9435900">
<ele>325.399994</ele>
<time>2023-11-22T08:55:40.275Z</time>
</trkpt>
<trkpt lat="31.6160700" lon="34.9436600">
<ele>323.700012</ele>
<time>2023-11-22T08:55:40.275Z</time>
</trkpt>
<trkpt lat="31.6160700" lon="34.9441500">
<ele>311.859985</ele>
<time>2023-11-22T08:55:40.275Z</time>
</trkpt>
<trkpt lat="31.6160700" lon="34.9442600">
<ele>312.070007</ele>
<time>2023-11-22T08:55:40.275Z</time>
</trkpt>
<trkpt lat="31.6160100" lon="34.9444700">
<ele>314.069977</ele>
<time>2023-11-22T08:55:40.275Z</time>
</trkpt>
<trkpt lat="31.6159000" lon="34.9447700">
<ele>315.579987</ele>
<time>2023-11-22T08:55:40.275Z</time>
</trkpt>
<trkpt lat="31.6158300" lon="34.9449400">
<ele>316.880005</ele>
<time>2023-11-22T08:55:40.275Z</time>
</trkpt>
<trkpt lat="31.6157000" lon="34.9455900">
<ele>318.220032</ele>
<time>2023-11-22T08:55:40.275Z</time>
</trkpt>
<trkpt lat="31.6156200" lon="34.9461400">
<ele>315.619995</ele>
<time>2023-11-22T08:55:40.275Z</time>
</trkpt>
<trkpt lat="31.6156000" lon="34.9462100">
<ele>315.119995</ele>
<time>2023-11-22T08:55:40.275Z</time>
</trkpt>
<trkpt lat="31.6155300" lon="34.9463500">
<ele>313.709991</ele>
<time>2023-11-22T08:55:40.275Z</time>
</trkpt>
<trkpt lat="31.6155100" lon="34.9464600">
<ele>314.020020</ele>
<time>2023-11-22T08:55:40.276Z</time>
</trkpt>
<trkpt lat="31.6154900" lon="34.9467600">
<ele>315.630005</ele>
<time>2023-11-22T08:55:40.276Z</time>
</trkpt>
<trkpt lat="31.6154800" lon="34.9470200">
<ele>316.179993</ele>
<time>2023-11-22T08:55:40.276Z</time>
</trkpt>
<trkpt lat="31.6154700" lon="34.9472200">
<ele>316.080017</ele>
<time>2023-11-22T08:55:40.276Z</time>
</trkpt>
<trkpt lat="31.6153500" lon="34.9477500">
<ele>318.160004</ele>
<time>2023-11-22T08:55:40.276Z</time>
</trkpt>
<trkpt lat="31.6152200" lon="34.9480100">
<ele>317.989990</ele>
<time>2023-11-22T08:55:40.276Z</time>
</trkpt>
<trkpt lat="31.6145100" lon="34.9487600">
<ele>315.139984</ele>
<time>2023-11-22T08:55:40.276Z</time>
</trkpt>
<trkpt lat="31.6144200" lon="34.9487900">
<ele>314.410004</ele>
<time>2023-11-22T08:55:40.276Z</time>
</trkpt>
<trkpt lat="31.6142100" lon="34.9490200">
<ele>314.230011</ele>
<time>2023-11-22T08:55:40.276Z</time>
</trkpt>
<trkpt lat="31.6139500" lon="34.9491900">
<ele>312.679993</ele>
<time>2023-11-22T08:55:40.276Z</time>
</trkpt>
<trkpt lat="31.6138700" lon="34.9492600">
<ele>312.470001</ele>
<time>2023-11-22T08:55:40.276Z</time>
</trkpt>
<trkpt lat="31.6138000" lon="34.9494000">
<ele>312.720001</ele>
<time>2023-11-22T08:55:40.276Z</time>
</trkpt>
<trkpt lat="31.6137600" lon="34.9494700">
<ele>313.029999</ele>
<time>2023-11-22T08:55:40.276Z</time>
</trkpt>
<trkpt lat="31.6137500" lon="34.9495900">
<ele>314.859985</ele>
<time>2023-11-22T08:55:40.276Z</time>
</trkpt>
<trkpt lat="31.6136700" lon="34.9497700">
<ele>316.379974</ele>
<time>2023-11-22T08:55:40.276Z</time>
</trkpt>
<trkpt lat="31.6136300" lon="34.9498800">
<ele>317.889984</ele>
<time>2023-11-22T08:55:40.276Z</time>
</trkpt>
<trkpt lat="31.6134200" lon="34.9503000">
<ele>319.169983</ele>
<time>2023-11-22T08:55:40.276Z</time>
</trkpt>
<trkpt lat="31.6133400" lon="34.9505200">
<ele>320.480011</ele>
<time>2023-11-22T08:55:40.276Z</time>
</trkpt>
<trkpt lat="31.6132400" lon="34.9509400">
<ele>325.059998</ele>
<time>2023-11-22T08:55:40.277Z</time>
</trkpt>
<trkpt lat="31.6130700" lon="34.9514200">
<ele>330.379974</ele>
<time>2023-11-22T08:55:40.277Z</time>
</trkpt>
<trkpt lat="31.6129100" lon="34.9516400">
<ele>327.989990</ele>
<time>2023-11-22T08:55:40.277Z</time>
</trkpt>
<trkpt lat="31.6127900" lon="34.9517100">
<ele>325.779999</ele>
<time>2023-11-22T08:55:40.277Z</time>
</trkpt>
<trkpt lat="31.6126700" lon="34.9519100">
<ele>324.619995</ele>
<time>2023-11-22T08:55:40.277Z</time>
</trkpt>
<trkpt lat="31.6124700" lon="34.9524700">
<ele>325.459991</ele>
<time>2023-11-22T08:55:40.277Z</time>
</trkpt>
<trkpt lat="31.6124600" lon="34.9527300">
<ele>327.859985</ele>
<time>2023-11-22T08:55:40.277Z</time>
</trkpt>
<trkpt lat="31.6124600" lon="34.9528800">
<ele>328.539978</ele>
<time>2023-11-22T08:55:40.277Z</time>
</trkpt>
<trkpt lat="31.6124500" lon="34.9529600">
<ele>328.519989</ele>
<time>2023-11-22T08:55:40.277Z</time>
</trkpt>
<trkpt lat="31.6124400" lon="34.9530600">
<ele>328.529999</ele>
<time>2023-11-22T08:55:40.277Z</time>
</trkpt>
<trkpt lat="31.6123000" lon="34.9533700">
<ele>326.619995</ele>
<time>2023-11-22T08:55:40.277Z</time>
</trkpt>
<trkpt lat="31.6122300" lon="34.9536200">
<ele>325.289978</ele>
<time>2023-11-22T08:55:40.277Z</time>
</trkpt>
<trkpt lat="31.6122200" lon="34.9540400">
<ele>327.550018</ele>
<time>2023-11-22T08:55:40.277Z</time>
</trkpt>
<trkpt lat="31.6120400" lon="34.9537800">
<ele>325.049988</ele>
<time>2023-11-22T08:55:40.277Z</time>
</trkpt>
<trkpt lat="31.6119000" lon="34.9537300">
<ele>323.229980</ele>
<time>2023-11-22T08:55:40.277Z</time>
</trkpt>
<trkpt lat="31.6117900" lon="34.9537400">
<ele>322.190002</ele>
<time>2023-11-22T08:55:40.277Z</time>
</trkpt>
<trkpt lat="31.6115600" lon="34.9537400">
<ele>318.430023</ele>
<time>2023-11-22T08:55:40.277Z</time>
</trkpt>
<trkpt lat="31.6115500" lon="34.9538100">
<ele>318.680023</ele>
<time>2023-11-22T08:55:40.277Z</time>
</trkpt>
<trkpt lat="31.6114500" lon="34.9539100">
<ele>316.169983</ele>
<time>2023-11-22T08:55:40.278Z</time>
</trkpt>
<trkpt lat="31.6098600" lon="34.9558700">
<ele>321.529999</ele>
<time>2023-11-22T08:55:40.278Z</time>
</trkpt>
<trkpt lat="31.6098500" lon="34.9563300">
<ele>328.860016</ele>
<time>2023-11-22T08:55:40.278Z</time>
</trkpt>
<trkpt lat="31.6098000" lon="34.9571600">
<ele>335.790009</ele>
<time>2023-11-22T08:55:40.278Z</time>
</trkpt>
<trkpt lat="31.6093000" lon="34.9580100">
<ele>332.380005</ele>
<time>2023-11-22T08:55:40.278Z</time>
</trkpt>
<trkpt lat="31.6087500" lon="34.9585900">
<ele>329.660004</ele>
<time>2023-11-22T08:55:40.278Z</time>
</trkpt>
<trkpt lat="31.6081900" lon="34.9589300">
<ele>326.500000</ele>
<time>2023-11-22T08:55:40.278Z</time>
</trkpt>
<trkpt lat="31.6078900" lon="34.9595000">
<ele>328.809998</ele>
<time>2023-11-22T08:55:40.278Z</time>
</trkpt>
<trkpt lat="31.6077500" lon="34.9601000">
<ele>334.429993</ele>
<time>2023-11-22T08:55:40.278Z</time>
</trkpt>
<trkpt lat="31.6077500" lon="34.9628500">
<ele>338.089996</ele>
<time>2023-11-22T08:55:40.278Z</time>
</trkpt>
<trkpt lat="31.6076300" lon="34.9639300">
<ele>340.399994</ele>
<time>2023-11-22T08:55:40.278Z</time>
</trkpt>
<trkpt lat="31.6076200" lon="34.9640400">
<ele>340.300018</ele>
<time>2023-11-22T08:55:40.278Z</time>
</trkpt>
<trkpt lat="31.6076100" lon="34.9644000">
<ele>340.190002</ele>
<time>2023-11-22T08:55:40.278Z</time>
</trkpt>
<trkpt lat="31.6078100" lon="34.9650900">
<ele>344.880005</ele>
<time>2023-11-22T08:55:40.278Z</time>
</trkpt>
<trkpt lat="31.6090900" lon="34.9666300">
<ele>353.539978</ele>
<time>2023-11-22T08:55:40.278Z</time>
</trkpt>
<trkpt lat="31.6102200" lon="34.9677400">
<ele>353.010010</ele>
<time>2023-11-22T08:55:40.278Z</time>
</trkpt>
<trkpt lat="31.6103100" lon="34.9678400">
<ele>352.029999</ele>
<time>2023-11-22T08:55:40.278Z</time>
</trkpt>
<trkpt lat="31.6109400" lon="34.9680400">
<ele>355.989990</ele>
<time>2023-11-22T08:55:40.279Z</time>
</trkpt>
<trkpt lat="31.6111900" lon="34.9680300">
<ele>360.649994</ele>
<time>2023-11-22T08:55:40.279Z</time>
</trkpt>
<trkpt lat="31.6119900" lon="34.9688100">
<ele>366.070007</ele>
<time>2023-11-22T08:55:40.279Z</time>
</trkpt>
<trkpt lat="31.6123200" lon="34.9690700">
<ele>368.009979</ele>
<time>2023-11-22T08:55:40.279Z</time>
</trkpt>
<trkpt lat="31.6127000" lon="34.9691900">
<ele>369.769989</ele>
<time>2023-11-22T08:55:40.279Z</time>
</trkpt>
<trkpt lat="31.6128700" lon="34.9693300">
<ele>372.769989</ele>
<time>2023-11-22T08:55:40.279Z</time>
</trkpt>
<trkpt lat="31.6130100" lon="34.9695800">
<ele>372.660004</ele>
<time>2023-11-22T08:55:40.279Z</time>
</trkpt>
<trkpt lat="31.6131000" lon="34.9696800">
<ele>372.100006</ele>
<time>2023-11-22T08:55:40.279Z</time>
</trkpt>
<trkpt lat="31.6133200" lon="34.9698700">
<ele>367.610016</ele>
<time>2023-11-22T08:55:40.279Z</time>
</trkpt>
<trkpt lat="31.6134700" lon="34.9699700">
<ele>368.040009</ele>
<time>2023-11-22T08:55:40.279Z</time>
</trkpt>
<trkpt lat="31.6136000" lon="34.9700300">
<ele>368.919983</ele>
<time>2023-11-22T08:55:40.279Z</time>
</trkpt>
<trkpt lat="31.6138800" lon="34.9702300">
<ele>366.899994</ele>
<time>2023-11-22T08:55:40.279Z</time>
</trkpt>
<trkpt lat="31.6139300" lon="34.9702500">
<ele>366.800018</ele>
<time>2023-11-22T08:55:40.279Z</time>
</trkpt>
<trkpt lat="31.6140600" lon="34.9702500">
<ele>366.469971</ele>
<time>2023-11-22T08:55:40.279Z</time>
</trkpt>
<trkpt lat="31.6143300" lon="34.9701900">
<ele>366.450012</ele>
<time>2023-11-22T08:55:40.279Z</time>
</trkpt>
<trkpt lat="31.6143700" lon="34.9701700">
<ele>366.489990</ele>
<time>2023-11-22T08:55:40.279Z</time>
</trkpt>
<trkpt lat="31.6145600" lon="34.9701600">
<ele>366.420013</ele>
<time>2023-11-22T08:55:40.279Z</time>
</trkpt>
<trkpt lat="31.6149900" lon="34.9701500">
<ele>367.500000</ele>
<time>2023-11-22T08:55:40.279Z</time>
</trkpt>
<trkpt lat="31.6152700" lon="34.9701700">
<ele>372.039978</ele>
<time>2023-11-22T08:55:40.280Z</time>
</trkpt>
<trkpt lat="31.6154900" lon="34.9701700">
<ele>373.690002</ele>
<time>2023-11-22T08:55:40.280Z</time>
</trkpt>
<trkpt lat="31.6158900" lon="34.9702600">
<ele>375.079987</ele>
<time>2023-11-22T08:55:40.280Z</time>
</trkpt>
<trkpt lat="31.6160100" lon="34.9703100">
<ele>374.440002</ele>
<time>2023-11-22T08:55:40.280Z</time>
</trkpt>
<trkpt lat="31.6162600" lon="34.9703500">
<ele>375.190002</ele>
<time>2023-11-22T08:55:40.280Z</time>
</trkpt>
<trkpt lat="31.6165700" lon="34.9703600">
<ele>376.839996</ele>
<time>2023-11-22T08:55:40.280Z</time>
</trkpt>
<trkpt lat="31.6168500" lon="34.9703800">
<ele>378.690002</ele>
<time>2023-11-22T08:55:40.280Z</time>
</trkpt>
<trkpt lat="31.6169300" lon="34.9704100">
<ele>379.369995</ele>
<time>2023-11-22T08:55:40.280Z</time>
</trkpt>
<trkpt lat="31.6172200" lon="34.9704300">
<ele>377.469971</ele>
<time>2023-11-22T08:55:40.280Z</time>
</trkpt>
<trkpt lat="31.6174400" lon="34.9704200">
<ele>375.559998</ele>
<time>2023-11-22T08:55:40.280Z</time>
</trkpt>
<trkpt lat="31.6175800" lon="34.9704300">
<ele>374.680023</ele>
<time>2023-11-22T08:55:40.280Z</time>
</trkpt>
<trkpt lat="31.6177700" lon="34.9703700">
<ele>373.040009</ele>
<time>2023-11-22T08:55:40.280Z</time>
</trkpt>
<trkpt lat="31.6180200" lon="34.9701900">
<ele>372.089996</ele>
<time>2023-11-22T08:55:40.280Z</time>
</trkpt>
<trkpt lat="31.6183200" lon="34.9699900">
<ele>376.850006</ele>
<time>2023-11-22T08:55:40.280Z</time>
</trkpt>
<trkpt lat="31.6184900" lon="34.9698400">
<ele>381.400024</ele>
<time>2023-11-22T08:55:40.280Z</time>
</trkpt>
<trkpt lat="31.6186800" lon="34.9695900">
<ele>385.179993</ele>
<time>2023-11-22T08:55:40.280Z</time>
</trkpt>
<trkpt lat="31.6187600" lon="34.9694500">
<ele>387.029999</ele>
<time>2023-11-22T08:55:40.280Z</time>
</trkpt>
<trkpt lat="31.6187900" lon="34.9692500">
<ele>386.679993</ele>
<time>2023-11-22T08:55:40.281Z</time>
</trkpt>
<trkpt lat="31.6187900" lon="34.9690400">
<ele>385.970001</ele>
<time>2023-11-22T08:55:40.281Z</time>
</trkpt>
<trkpt lat="31.6188200" lon="34.9689900">
<ele>385.359985</ele>
<time>2023-11-22T08:55:40.281Z</time>
</trkpt>
<trkpt lat="31.6194100" lon="34.9684600">
<ele>388.410004</ele>
<time>2023-11-22T08:55:40.281Z</time>
</trkpt>
<trkpt lat="31.6195200" lon="34.9683100">
<ele>388.080017</ele>
<time>2023-11-22T08:55:40.281Z</time>
</trkpt>
<trkpt lat="31.6198500" lon="34.9680400">
<ele>392.850006</ele>
<time>2023-11-22T08:55:40.281Z</time>
</trkpt>
<trkpt lat="31.6201100" lon="34.9676900">
<ele>402.580017</ele>
<time>2023-11-22T08:55:40.281Z</time>
</trkpt>
<trkpt lat="31.6203500" lon="34.9673100">
<ele>407.439972</ele>
<time>2023-11-22T08:55:40.281Z</time>
</trkpt>
<trkpt lat="31.6206600" lon="34.9676700">
<ele>407.789978</ele>
<time>2023-11-22T08:55:40.281Z</time>
</trkpt>
<trkpt lat="31.6207800" lon="34.9678000">
<ele>408.970001</ele>
<time>2023-11-22T08:55:40.281Z</time>
</trkpt>
<trkpt lat="31.6209400" lon="34.9682000">
<ele>409.409973</ele>
<time>2023-11-22T08:55:40.281Z</time>
</trkpt>
<trkpt lat="31.6209500" lon="34.9683500">
<ele>409.029999</ele>
<time>2023-11-22T08:55:40.281Z</time>
</trkpt>
<trkpt lat="31.6209500" lon="34.9684600">
<ele>409.189972</ele>
<time>2023-11-22T08:55:40.281Z</time>
</trkpt>
<trkpt lat="31.6209300" lon="34.9686400">
<ele>409.309998</ele>
<time>2023-11-22T08:55:40.281Z</time>
</trkpt>
<trkpt lat="31.6208800" lon="34.9687400">
<ele>409.089996</ele>
<time>2023-11-22T08:55:40.281Z</time>
</trkpt>
<trkpt lat="31.6208200" lon="34.9690100">
<ele>409.100006</ele>
<time>2023-11-22T08:55:40.281Z</time>
</trkpt>
<trkpt lat="31.6207300" lon="34.9692000">
<ele>409.459991</ele>
<time>2023-11-22T08:55:40.281Z</time>
</trkpt>
<trkpt lat="31.6206400" lon="34.9695700">
<ele>411.360016</ele>
<time>2023-11-22T08:55:40.281Z</time>
</trkpt>
<trkpt lat="31.6206300" lon="34.9697500">
<ele>411.960022</ele>
<time>2023-11-22T08:55:40.282Z</time>
</trkpt>
<trkpt lat="31.6206300" lon="34.9700400">
<ele>414.540009</ele>
<time>2023-11-22T08:55:40.282Z</time>
</trkpt>
<trkpt lat="31.6206400" lon="34.9702800">
<ele>417.709991</ele>
<time>2023-11-22T08:55:40.282Z</time>
</trkpt>
<trkpt lat="31.6206600" lon="34.9703400">
<ele>417.989990</ele>
<time>2023-11-22T08:55:40.282Z</time>
</trkpt>
<trkpt lat="31.6208100" lon="34.9705800">
<ele>417.889984</ele>
<time>2023-11-22T08:55:40.282Z</time>
</trkpt>
<trkpt lat="31.6212000" lon="34.9709600">
<ele>416.380005</ele>
<time>2023-11-22T08:55:40.282Z</time>
</trkpt>
<trkpt lat="31.6214600" lon="34.9712500">
<ele>418.009979</ele>
<time>2023-11-22T08:55:40.282Z</time>
</trkpt>
<trkpt lat="31.6215000" lon="34.9713200">
<ele>418.550018</ele>
<time>2023-11-22T08:55:40.282Z</time>
</trkpt>
<trkpt lat="31.6215400" lon="34.9714900">
<ele>418.919983</ele>
<time>2023-11-22T08:55:40.282Z</time>
</trkpt>
<trkpt lat="31.6221500" lon="34.9719600">
<ele>420.149994</ele>
<time>2023-11-22T08:55:40.282Z</time>
</trkpt>
<trkpt lat="31.6224700" lon="34.9723400">
<ele>417.109985</ele>
<time>2023-11-22T08:55:40.282Z</time>
</trkpt>
<trkpt lat="31.6225600" lon="34.9724900">
<ele>415.279999</ele>
<time>2023-11-22T08:55:40.282Z</time>
</trkpt>
<trkpt lat="31.6229100" lon="34.9727600">
<ele>405.149994</ele>
<time>2023-11-22T08:55:40.282Z</time>
</trkpt>
<trkpt lat="31.6232700" lon="34.9729400">
<ele>399.229980</ele>
<time>2023-11-22T08:55:40.282Z</time>
</trkpt>
<trkpt lat="31.6235300" lon="34.9730200">
<ele>396.529999</ele>
<time>2023-11-22T08:55:40.282Z</time>
</trkpt>
<trkpt lat="31.6235400" lon="34.9732900">
<ele>396.300018</ele>
<time>2023-11-22T08:55:40.282Z</time>
</trkpt>
<trkpt lat="31.6235300" lon="34.9736000">
<ele>394.489990</ele>
<time>2023-11-22T08:55:40.282Z</time>
</trkpt>
<trkpt lat="31.6235300" lon="34.9736900">
<ele>394.209991</ele>
<time>2023-11-22T08:55:40.283Z</time>
</trkpt>
<trkpt lat="31.6234900" lon="34.9738000">
<ele>393.739990</ele>
<time>2023-11-22T08:55:40.283Z</time>
</trkpt>
<trkpt lat="31.6234700" lon="34.9738300">
<ele>393.600006</ele>
<time>2023-11-22T08:55:40.283Z</time>
</trkpt>
<trkpt lat="31.6233700" lon="34.9739800">
<ele>392.759979</ele>
<time>2023-11-22T08:55:40.283Z</time>
</trkpt>
<trkpt lat="31.6233000" lon="34.9741800">
<ele>392.480011</ele>
<time>2023-11-22T08:55:40.283Z</time>
</trkpt>
<trkpt lat="31.6232900" lon="34.9743800">
<ele>392.620026</ele>
<time>2023-11-22T08:55:40.283Z</time>
</trkpt>
<trkpt lat="31.6233000" lon="34.9745600">
<ele>392.109985</ele>
<time>2023-11-22T08:55:40.283Z</time>
</trkpt>
<trkpt lat="31.6233400" lon="34.9747000">
<ele>391.059998</ele>
<time>2023-11-22T08:55:40.283Z</time>
</trkpt>
<trkpt lat="31.6236100" lon="34.9753300">
<ele>384.830017</ele>
<time>2023-11-22T08:55:40.283Z</time>
</trkpt>
<trkpt lat="31.6236500" lon="34.9754700">
<ele>383.700012</ele>
<time>2023-11-22T08:55:40.283Z</time>
</trkpt>
<trkpt lat="31.6237500" lon="34.9756300">
<ele>381.730011</ele>
<time>2023-11-22T08:55:40.283Z</time>
</trkpt>
<trkpt lat="31.6239000" lon="34.9757400">
<ele>379.180023</ele>
<time>2023-11-22T08:55:40.283Z</time>
</trkpt>
<trkpt lat="31.6241800" lon="34.9758000">
<ele>375.039978</ele>
<time>2023-11-22T08:55:40.283Z</time>
</trkpt>
<trkpt lat="31.6243000" lon="34.9758100">
<ele>374.399994</ele>
<time>2023-11-22T08:55:40.283Z</time>
</trkpt>
<trkpt lat="31.6247500" lon="34.9758100">
<ele>367.079987</ele>
<time>2023-11-22T08:55:40.283Z</time>
</trkpt>
<trkpt lat="31.6267300" lon="34.9758800">
<ele>393.040009</ele>
<time>2023-11-22T08:55:40.284Z</time>
</trkpt>
<trkpt lat="31.6268200" lon="34.9759000">
<ele>398.130005</ele>
<time>2023-11-22T08:55:40.284Z</time>
</trkpt>
<trkpt lat="31.6270000" lon="34.9759500">
<ele>405.200012</ele>
<time>2023-11-22T08:55:40.284Z</time>
</trkpt>
<trkpt lat="31.6277200" lon="34.9763600">
<ele>406.140015</ele>
<time>2023-11-22T08:55:40.284Z</time>
</trkpt>
<trkpt lat="31.6283300" lon="34.9767800">
<ele>401.279999</ele>
<time>2023-11-22T08:55:40.284Z</time>
</trkpt>
<trkpt lat="31.6284400" lon="34.9769200">
<ele>398.990021</ele>
<time>2023-11-22T08:55:40.284Z</time>
</trkpt>
<trkpt lat="31.6285100" lon="34.9770300">
<ele>397.979980</ele>
<time>2023-11-22T08:55:40.284Z</time>
</trkpt>
<trkpt lat="31.6287700" lon="34.9776000">
<ele>396.589996</ele>
<time>2023-11-22T08:55:40.284Z</time>
</trkpt>
<trkpt lat="31.6288200" lon="34.9776900">
<ele>396.529999</ele>
<time>2023-11-22T08:55:40.284Z</time>
</trkpt>
<trkpt lat="31.6288600" lon="34.9777200">
<ele>396.080017</ele>
<time>2023-11-22T08:55:40.284Z</time>
</trkpt>
<trkpt lat="31.6289300" lon="34.9777300">
<ele>395.779999</ele>
<time>2023-11-22T08:55:40.284Z</time>
</trkpt>
<trkpt lat="31.6290700" lon="34.9777300">
<ele>396.200012</ele>
<time>2023-11-22T08:55:40.284Z</time>
</trkpt>
<trkpt lat="31.6291800" lon="34.9777100">
<ele>396.399994</ele>
<time>2023-11-22T08:55:40.284Z</time>
</trkpt>
<trkpt lat="31.6294200" lon="34.9775700">
<ele>396.809998</ele>
<time>2023-11-22T08:55:40.284Z</time>
</trkpt>
<trkpt lat="31.6297000" lon="34.9774600">
<ele>397.179993</ele>
<time>2023-11-22T08:55:40.285Z</time>
</trkpt>
<trkpt lat="31.6301200" lon="34.9774000">
<ele>402.839996</ele>
<time>2023-11-22T08:55:40.285Z</time>
</trkpt>
<trkpt lat="31.6301900" lon="34.9773400">
<ele>403.049988</ele>
<time>2023-11-22T08:55:40.285Z</time>
</trkpt>
<trkpt lat="31.6302600" lon="34.9771700">
<ele>402.880005</ele>
<time>2023-11-22T08:55:40.285Z</time>
</trkpt>
<trkpt lat="31.6303000" lon="34.9769600">
<ele>402.059998</ele>
<time>2023-11-22T08:55:40.285Z</time>
</trkpt>
<trkpt lat="31.6303800" lon="34.9769300">
<ele>402.160004</ele>
<time>2023-11-22T08:55:40.285Z</time>
</trkpt>
<trkpt lat="31.6308900" lon="34.9769300">
<ele>406.459991</ele>
<time>2023-11-22T08:55:40.285Z</time>
</trkpt>
<trkpt lat="31.6309800" lon="34.9769200">
<ele>407.139984</ele>
<time>2023-11-22T08:55:40.285Z</time>
</trkpt>
<trkpt lat="31.6314700" lon="34.9769200">
<ele>412.059998</ele>
<time>2023-11-22T08:55:40.285Z</time>
</trkpt>
<trkpt lat="31.6316900" lon="34.9769700">
<ele>411.589996</ele>
<time>2023-11-22T08:55:40.285Z</time>
</trkpt>
<trkpt lat="31.6318700" lon="34.9770000">
<ele>409.839996</ele>
<time>2023-11-22T08:55:40.285Z</time>
</trkpt>
<trkpt lat="31.6320900" lon="34.9770800">
<ele>408.700012</ele>
<time>2023-11-22T08:55:40.285Z</time>
</trkpt>
<trkpt lat="31.6322000" lon="34.9770900">
<ele>408.169983</ele>
<time>2023-11-22T08:55:40.285Z</time>
</trkpt>
<trkpt lat="31.6326500" lon="34.9770800">
<ele>399.119995</ele>
<time>2023-11-22T08:55:40.286Z</time>
</trkpt>
<trkpt lat="31.6328000" lon="34.9770200">
<ele>395.089996</ele>
<time>2023-11-22T08:55:40.286Z</time>
</trkpt>
<trkpt lat="31.6334600" lon="34.9769100">
<ele>393.000000</ele>
<time>2023-11-22T08:55:40.286Z</time>
</trkpt>
<trkpt lat="31.6339100" lon="34.9768200">
<ele>391.460022</ele>
<time>2023-11-22T08:55:40.286Z</time>
</trkpt>
<trkpt lat="31.6343500" lon="34.9766900">
<ele>388.660004</ele>
<time>2023-11-22T08:55:40.286Z</time>
</trkpt>
<trkpt lat="31.6349400" lon="34.9763100">
<ele>383.989990</ele>
<time>2023-11-22T08:55:40.286Z</time>
</trkpt>
<trkpt lat="31.6355900" lon="34.9760100">
<ele>382.290009</ele>
<time>2023-11-22T08:55:40.286Z</time>
</trkpt>
<trkpt lat="31.6359000" lon="34.9759600">
<ele>383.920013</ele>
<time>2023-11-22T08:55:40.286Z</time>
</trkpt>
<trkpt lat="31.6360300" lon="34.9759500">
<ele>383.519989</ele>
<time>2023-11-22T08:55:40.286Z</time>
</trkpt>
<trkpt lat="31.6361600" lon="34.9759700">
<ele>384.010010</ele>
<time>2023-11-22T08:55:40.286Z</time>
</trkpt>
<trkpt lat="31.6365000" lon="34.9763100">
<ele>390.839996</ele>
<time>2023-11-22T08:55:40.286Z</time>
</trkpt>
<trkpt lat="31.6368400" lon="34.9764900">
<ele>396.309998</ele>
<time>2023-11-22T08:55:40.286Z</time>
</trkpt>
<trkpt lat="31.6369600" lon="34.9765300">
<ele>397.619995</ele>
<time>2023-11-22T08:55:40.286Z</time>
</trkpt>
<trkpt lat="31.6372500" lon="34.9767100">
<ele>400.490021</ele>
<time>2023-11-22T08:55:40.286Z</time>
</trkpt>
<trkpt lat="31.6373000" lon="34.9767800">
<ele>399.810028</ele>
<time>2023-11-22T08:55:40.287Z</time>
</trkpt>
<trkpt lat="31.6375500" lon="34.9771800">
<ele>398.250000</ele>
<time>2023-11-22T08:55:40.287Z</time>
</trkpt>
<trkpt lat="31.6376300" lon="34.9774000">
<ele>397.729980</ele>
<time>2023-11-22T08:55:40.287Z</time>
</trkpt>
<trkpt lat="31.6376500" lon="34.9775000">
<ele>397.920013</ele>
<time>2023-11-22T08:55:40.287Z</time>
</trkpt>
<trkpt lat="31.6376600" lon="34.9776200">
<ele>398.959991</ele>
<time>2023-11-22T08:55:40.287Z</time>
</trkpt>
<trkpt lat="31.6376700" lon="34.9777000">
<ele>399.660004</ele>
<time>2023-11-22T08:55:40.287Z</time>
</trkpt>
<trkpt lat="31.6376800" lon="34.9779300">
<ele>401.260010</ele>
<time>2023-11-22T08:55:40.287Z</time>
</trkpt>
<trkpt lat="31.6376800" lon="34.9781600">
<ele>402.489990</ele>
<time>2023-11-22T08:55:40.287Z</time>
</trkpt>
<trkpt lat="31.6376400" lon="34.9786200">
<ele>403.570007</ele>
<time>2023-11-22T08:55:40.287Z</time>
</trkpt>
<trkpt lat="31.6376300" lon="34.9789700">
<ele>406.329987</ele>
<time>2023-11-22T08:55:40.287Z</time>
</trkpt>
<trkpt lat="31.6376700" lon="34.9795500">
<ele>411.679993</ele>
<time>2023-11-22T08:55:40.287Z</time>
</trkpt>
<trkpt lat="31.6376900" lon="34.9796200">
<ele>412.549988</ele>
<time>2023-11-22T08:55:40.287Z</time>
</trkpt>
<trkpt lat="31.6378200" lon="34.9797700">
<ele>415.630005</ele>
<time>2023-11-22T08:55:40.287Z</time>
</trkpt>
<trkpt lat="31.6380000" lon="34.9799200">
<ele>418.109985</ele>
<time>2023-11-22T08:55:40.287Z</time>
</trkpt>
<trkpt lat="31.6384200" lon="34.9801800">
<ele>420.520020</ele>
<time>2023-11-22T08:55:40.287Z</time>
</trkpt>
<trkpt lat="31.6388700" lon="34.9806200">
<ele>419.000000</ele>
<time>2023-11-22T08:55:40.288Z</time>
</trkpt>
<trkpt lat="31.6389000" lon="34.9809600">
<ele>419.440002</ele>
<time>2023-11-22T08:55:40.288Z</time>
</trkpt>
<trkpt lat="31.6389100" lon="34.9815300">
<ele>419.339996</ele>
<time>2023-11-22T08:55:40.288Z</time>
</trkpt>
<trkpt lat="31.6388600" lon="34.9824100">
<ele>417.720001</ele>
<time>2023-11-22T08:55:40.288Z</time>
</trkpt>
<trkpt lat="31.6388200" lon="34.9830300">
<ele>415.929993</ele>
<time>2023-11-22T08:55:40.288Z</time>
</trkpt>
<trkpt lat="31.6388200" lon="34.9831900">
<ele>415.640015</ele>
<time>2023-11-22T08:55:40.288Z</time>
</trkpt>
<trkpt lat="31.6388400" lon="34.9832900">
<ele>415.300018</ele>
<time>2023-11-22T08:55:40.288Z</time>
</trkpt>
<trkpt lat="31.6389300" lon="34.9833800">
<ele>414.610016</ele>
<time>2023-11-22T08:55:40.288Z</time>
</trkpt>
<trkpt lat="31.6390900" lon="34.9833900">
<ele>413.790009</ele>
<time>2023-11-22T08:55:40.288Z</time>
</trkpt>
<trkpt lat="31.6391900" lon="34.9833800">
<ele>413.279999</ele>
<time>2023-11-22T08:55:40.288Z</time>
</trkpt>
<trkpt lat="31.6394000" lon="34.9833000">
<ele>411.739990</ele>
<time>2023-11-22T08:55:40.288Z</time>
</trkpt>
<trkpt lat="31.6396000" lon="34.9830900">
<ele>408.429993</ele>
<time>2023-11-22T08:55:40.288Z</time>
</trkpt>
<trkpt lat="31.6397100" lon="34.9830000">
<ele>407.990021</ele>
<time>2023-11-22T08:55:40.288Z</time>
</trkpt>
<trkpt lat="31.6402900" lon="34.9827700">
<ele>410.829987</ele>
<time>2023-11-22T08:55:40.288Z</time>
</trkpt>
<trkpt lat="31.6403800" lon="34.9827600">
<ele>409.579987</ele>
<time>2023-11-22T08:55:40.288Z</time>
</trkpt>
<trkpt lat="31.6404900" lon="34.9827500">
<ele>408.100006</ele>
<time>2023-11-22T08:55:40.288Z</time>
</trkpt>
<trkpt lat="31.6409300" lon="34.9827800">
<ele>404.669983</ele>
<time>2023-11-22T08:55:40.288Z</time>
</trkpt>
<trkpt lat="31.6412100" lon="34.9828800">
<ele>405.080017</ele>
<time>2023-11-22T08:55:40.288Z</time>
</trkpt>
<trkpt lat="31.6415700" lon="34.9831000">
<ele>405.959991</ele>
<time>2023-11-22T08:55:40.289Z</time>
</trkpt>
<trkpt lat="31.6416900" lon="34.9831900">
<ele>405.720032</ele>
<time>2023-11-22T08:55:40.289Z</time>
</trkpt>
<trkpt lat="31.6417500" lon="34.9832700">
<ele>405.639984</ele>
<time>2023-11-22T08:55:40.289Z</time>
</trkpt>
<trkpt lat="31.6418100" lon="34.9834100">
<ele>405.320007</ele>
<time>2023-11-22T08:55:40.289Z</time>
</trkpt>
<trkpt lat="31.6418800" lon="34.9836800">
<ele>404.029999</ele>
<time>2023-11-22T08:55:40.289Z</time>
</trkpt>
<trkpt lat="31.6419000" lon="34.9839700">
<ele>402.190002</ele>
<time>2023-11-22T08:55:40.289Z</time>
</trkpt>
<trkpt lat="31.6419200" lon="34.9841100">
<ele>401.470001</ele>
<time>2023-11-22T08:55:40.289Z</time>
</trkpt>
<trkpt lat="31.6419800" lon="34.9841900">
<ele>402.250000</ele>
<time>2023-11-22T08:55:40.289Z</time>
</trkpt>
<trkpt lat="31.6420800" lon="34.9842000">
<ele>405.149994</ele>
<time>2023-11-22T08:55:40.289Z</time>
</trkpt>
<trkpt lat="31.6421700" lon="34.9841900">
<ele>407.609985</ele>
<time>2023-11-22T08:55:40.289Z</time>
</trkpt>
<trkpt lat="31.6423700" lon="34.9840300">
<ele>409.650024</ele>
<time>2023-11-22T08:55:40.289Z</time>
</trkpt>
<trkpt lat="31.6424900" lon="34.9839400">
<ele>410.410004</ele>
<time>2023-11-22T08:55:40.289Z</time>
</trkpt>
<trkpt lat="31.6427800" lon="34.9837800">
<ele>412.850006</ele>
<time>2023-11-22T08:55:40.289Z</time>
</trkpt>
<trkpt lat="31.6428300" lon="34.9837200">
<ele>412.850006</ele>
<time>2023-11-22T08:55:40.289Z</time>
</trkpt>
<trkpt lat="31.6428600" lon="34.9836800">
<ele>412.850006</ele>
<time>2023-11-22T08:55:40.289Z</time>
</trkpt>
<trkpt lat="31.6428800" lon="34.9836000">
<ele>412.339996</ele>
<time>2023-11-22T08:55:40.289Z</time>
</trkpt>
<trkpt lat="31.6429000" lon="34.9832200">
<ele>407.510010</ele>
<time>2023-11-22T08:55:40.289Z</time>
</trkpt>
<trkpt lat="31.6429300" lon="34.9831200">
<ele>406.150024</ele>
<time>2023-11-22T08:55:40.289Z</time>
</trkpt>
<trkpt lat="31.6430200" lon="34.9828900">
<ele>405.149994</ele>
<time>2023-11-22T08:55:40.290Z</time>
</trkpt>
<trkpt lat="31.6432000" lon="34.9827400">
<ele>406.350006</ele>
<time>2023-11-22T08:55:40.290Z</time>
</trkpt>
<trkpt lat="31.6433500" lon="34.9826800">
<ele>407.070007</ele>
<time>2023-11-22T08:55:40.290Z</time>
</trkpt>
<trkpt lat="31.6435000" lon="34.9826300">
<ele>407.959991</ele>
<time>2023-11-22T08:55:40.290Z</time>
</trkpt>
<trkpt lat="31.6439500" lon="34.9826000">
<ele>410.139984</ele>
<time>2023-11-22T08:55:40.290Z</time>
</trkpt>
<trkpt lat="31.6444200" lon="34.9826000">
<ele>405.379974</ele>
<time>2023-11-22T08:55:40.290Z</time>
</trkpt>
<trkpt lat="31.6447100" lon="34.9825900">
<ele>406.579987</ele>
<time>2023-11-22T08:55:40.290Z</time>
</trkpt>
<trkpt lat="31.6448800" lon="34.9826000">
<ele>406.239990</ele>
<time>2023-11-22T08:55:40.290Z</time>
</trkpt>
<trkpt lat="31.6450700" lon="34.9826000">
<ele>406.109985</ele>
<time>2023-11-22T08:55:40.290Z</time>
</trkpt>
<trkpt lat="31.6452600" lon="34.9825600">
<ele>405.989990</ele>
<time>2023-11-22T08:55:40.290Z</time>
</trkpt>
<trkpt lat="31.6454400" lon="34.9824000">
<ele>405.460022</ele>
<time>2023-11-22T08:55:40.290Z</time>
</trkpt>
<trkpt lat="31.6460000" lon="34.9816000">
<ele>403.369995</ele>
<time>2023-11-22T08:55:40.290Z</time>
</trkpt>
<trkpt lat="31.6463200" lon="34.9809200">
<ele>403.500000</ele>
<time>2023-11-22T08:55:40.290Z</time>
</trkpt>
<trkpt lat="31.6464300" lon="34.9807600">
<ele>403.779999</ele>
<time>2023-11-22T08:55:40.290Z</time>
</trkpt>
<trkpt lat="31.6465000" lon="34.9807200">
<ele>403.759979</ele>
<time>2023-11-22T08:55:40.290Z</time>
</trkpt>
<trkpt lat="31.6466000" lon="34.9806900">
<ele>403.880005</ele>
<time>2023-11-22T08:55:40.291Z</time>
</trkpt>
<trkpt lat="31.6467100" lon="34.9806900">
<ele>404.000000</ele>
<time>2023-11-22T08:55:40.291Z</time>
</trkpt>
<trkpt lat="31.6467900" lon="34.9807200">
<ele>404.000000</ele>
<time>2023-11-22T08:55:40.291Z</time>
</trkpt>
<trkpt lat="31.6469200" lon="34.9809600">
<ele>403.130005</ele>
<time>2023-11-22T08:55:40.291Z</time>
</trkpt>
<trkpt lat="31.6471100" lon="34.9815500">
<ele>396.860016</ele>
<time>2023-11-22T08:55:40.291Z</time>
</trkpt>
<trkpt lat="31.6471700" lon="34.9817000">
<ele>394.959991</ele>
<time>2023-11-22T08:55:40.291Z</time>
</trkpt>
<trkpt lat="31.6472800" lon="34.9817500">
<ele>393.420013</ele>
<time>2023-11-22T08:55:40.291Z</time>
</trkpt>
<trkpt lat="31.6474100" lon="34.9817500">
<ele>392.109985</ele>
<time>2023-11-22T08:55:40.291Z</time>
</trkpt>
<trkpt lat="31.6475300" lon="34.9817200">
<ele>391.269989</ele>
<time>2023-11-22T08:55:40.291Z</time>
</trkpt>
<trkpt lat="31.6477700" lon="34.9815300">
<ele>389.589996</ele>
<time>2023-11-22T08:55:40.291Z</time>
</trkpt>
<trkpt lat="31.6480200" lon="34.9814000">
<ele>384.409973</ele>
<time>2023-11-22T08:55:40.291Z</time>
</trkpt>
<trkpt lat="31.6483000" lon="34.9813500">
<ele>383.000000</ele>
<time>2023-11-22T08:55:40.291Z</time>
</trkpt>
<trkpt lat="31.6486200" lon="34.9813400">
<ele>385.680023</ele>
<time>2023-11-22T08:55:40.291Z</time>
</trkpt>
<trkpt lat="31.6494600" lon="34.9813400">
<ele>376.990021</ele>
<time>2023-11-22T08:55:40.291Z</time>
</trkpt>
<trkpt lat="31.6496100" lon="34.9813500">
<ele>378.649994</ele>
<time>2023-11-22T08:55:40.291Z</time>
</trkpt>
<trkpt lat="31.6497700" lon="34.9814700">
<ele>379.540009</ele>
<time>2023-11-22T08:55:40.291Z</time>
</trkpt>
<trkpt lat="31.6499600" lon="34.9817000">
<ele>377.380005</ele>
<time>2023-11-22T08:55:40.291Z</time>
</trkpt>
<trkpt lat="31.6500300" lon="34.9818700">
<ele>374.420013</ele>
<time>2023-11-22T08:55:40.291Z</time>
</trkpt>
<trkpt lat="31.6500700" lon="34.9820900">
<ele>370.000000</ele>
<time>2023-11-22T08:55:40.292Z</time>
</trkpt>
<trkpt lat="31.6500800" lon="34.9825000">
<ele>364.710022</ele>
<time>2023-11-22T08:55:40.292Z</time>
</trkpt>
<trkpt lat="31.6500800" lon="34.9826800">
<ele>364.440002</ele>
<time>2023-11-22T08:55:40.292Z</time>
</trkpt>
<trkpt lat="31.6500400" lon="34.9830800">
<ele>360.479980</ele>
<time>2023-11-22T08:55:40.292Z</time>
</trkpt>
<trkpt lat="31.6500300" lon="34.9832100">
<ele>360.559998</ele>
<time>2023-11-22T08:55:40.292Z</time>
</trkpt>
<trkpt lat="31.6500600" lon="34.9832700">
<ele>361.320007</ele>
<time>2023-11-22T08:55:40.292Z</time>
</trkpt>
<trkpt lat="31.6501300" lon="34.9832700">
<ele>362.850006</ele>
<time>2023-11-22T08:55:40.292Z</time>
</trkpt>
<trkpt lat="31.6504500" lon="34.9831300">
<ele>367.579987</ele>
<time>2023-11-22T08:55:40.292Z</time>
</trkpt>
<trkpt lat="31.6506400" lon="34.9830900">
<ele>370.520020</ele>
<time>2023-11-22T08:55:40.292Z</time>
</trkpt>
<trkpt lat="31.6509000" lon="34.9830700">
<ele>373.740021</ele>
<time>2023-11-22T08:55:40.292Z</time>
</trkpt>
<trkpt lat="31.6512000" lon="34.9830900">
<ele>382.170013</ele>
<time>2023-11-22T08:55:40.292Z</time>
</trkpt>
<trkpt lat="31.6514700" lon="34.9832200">
<ele>384.530029</ele>
<time>2023-11-22T08:55:40.292Z</time>
</trkpt>
<trkpt lat="31.6515200" lon="34.9832800">
<ele>385.009979</ele>
<time>2023-11-22T08:55:40.292Z</time>
</trkpt>
<trkpt lat="31.6516900" lon="34.9836300">
<ele>387.010010</ele>
<time>2023-11-22T08:55:40.292Z</time>
</trkpt>
<trkpt lat="31.6518400" lon="34.9841000">
<ele>389.480011</ele>
<time>2023-11-22T08:55:40.292Z</time>
</trkpt>
<trkpt lat="31.6519100" lon="34.9845100">
<ele>394.339996</ele>
<time>2023-11-22T08:55:40.292Z</time>
</trkpt>
<trkpt lat="31.6519700" lon="34.9845900">
<ele>395.950012</ele>
<time>2023-11-22T08:55:40.292Z</time>
</trkpt>
<trkpt lat="31.6520300" lon="34.9846600">
<ele>397.899994</ele>
<time>2023-11-22T08:55:40.292Z</time>
</trkpt>
<trkpt lat="31.6522100" lon="34.9847700">
<ele>402.790009</ele>
<time>2023-11-22T08:55:40.292Z</time>
</trkpt>
<trkpt lat="31.6524100" lon="34.9848000">
<ele>401.650024</ele>
<time>2023-11-22T08:55:40.293Z</time>
</trkpt>
<trkpt lat="31.6526900" lon="34.9849200">
<ele>400.499969</ele>
<time>2023-11-22T08:55:40.293Z</time>
</trkpt>
<trkpt lat="31.6530200" lon="34.9852000">
<ele>402.279999</ele>
<time>2023-11-22T08:55:40.293Z</time>
</trkpt>
<trkpt lat="31.6532500" lon="34.9855000">
<ele>400.540009</ele>
<time>2023-11-22T08:55:40.293Z</time>
</trkpt>
<trkpt lat="31.6534100" lon="34.9857800">
<ele>399.479980</ele>
<time>2023-11-22T08:55:40.293Z</time>
</trkpt>
<trkpt lat="31.6534800" lon="34.9859500">
<ele>398.549988</ele>
<time>2023-11-22T08:55:40.293Z</time>
</trkpt>
<trkpt lat="31.6535400" lon="34.9862900">
<ele>397.190002</ele>
<time>2023-11-22T08:55:40.293Z</time>
</trkpt>
<trkpt lat="31.6535400" lon="34.9865400">
<ele>396.600006</ele>
<time>2023-11-22T08:55:40.293Z</time>
</trkpt>
<trkpt lat="31.6535400" lon="34.9866800">
<ele>396.430023</ele>
<time>2023-11-22T08:55:40.293Z</time>
</trkpt>
<trkpt lat="31.6535200" lon="34.9868200">
<ele>395.610016</ele>
<time>2023-11-22T08:55:40.293Z</time>
</trkpt>
<trkpt lat="31.6534300" lon="34.9869900">
<ele>393.770020</ele>
<time>2023-11-22T08:55:40.293Z</time>
</trkpt>
<trkpt lat="31.6533000" lon="34.9871800">
<ele>391.939972</ele>
<time>2023-11-22T08:55:40.293Z</time>
</trkpt>
<trkpt lat="31.6529400" lon="34.9875100">
<ele>389.610016</ele>
<time>2023-11-22T08:55:40.293Z</time>
</trkpt>
<trkpt lat="31.6526700" lon="34.9878500">
<ele>388.769989</ele>
<time>2023-11-22T08:55:40.293Z</time>
</trkpt>
<trkpt lat="31.6526200" lon="34.9879300">
<ele>388.670013</ele>
<time>2023-11-22T08:55:40.293Z</time>
</trkpt>
<trkpt lat="31.6525900" lon="34.9881000">
<ele>388.760010</ele>
<time>2023-11-22T08:55:40.293Z</time>
</trkpt>
<trkpt lat="31.6525700" lon="34.9883500">
<ele>389.270020</ele>
<time>2023-11-22T08:55:40.293Z</time>
</trkpt>
<trkpt lat="31.6525700" lon="34.9885300">
<ele>389.419983</ele>
<time>2023-11-22T08:55:40.293Z</time>
</trkpt>
<trkpt lat="31.6526900" lon="34.9897500">
<ele>385.869995</ele>
<time>2023-11-22T08:55:40.294Z</time>
</trkpt>
<trkpt lat="31.6527000" lon="34.9899300">
<ele>385.040009</ele>
<time>2023-11-22T08:55:40.294Z</time>
</trkpt>
<trkpt lat="31.6526900" lon="34.9901600">
<ele>383.710022</ele>
<time>2023-11-22T08:55:40.294Z</time>
</trkpt>
<trkpt lat="31.6526800" lon="34.9902100">
<ele>383.399994</ele>
<time>2023-11-22T08:55:40.294Z</time>
</trkpt>
<trkpt lat="31.6526500" lon="34.9903000">
<ele>383.039978</ele>
<time>2023-11-22T08:55:40.294Z</time>
</trkpt>
<trkpt lat="31.6525900" lon="34.9904700">
<ele>383.470001</ele>
<time>2023-11-22T08:55:40.294Z</time>
</trkpt>
<trkpt lat="31.6525100" lon="34.9905600">
<ele>384.000000</ele>
<time>2023-11-22T08:55:40.294Z</time>
</trkpt>
<trkpt lat="31.6525700" lon="34.9909000">
<ele>386.230011</ele>
<time>2023-11-22T08:55:40.294Z</time>
</trkpt>
<trkpt lat="31.6528600" lon="34.9914100">
<ele>387.170013</ele>
<time>2023-11-22T08:55:40.294Z</time>
</trkpt>
<trkpt lat="31.6531700" lon="34.9914900">
<ele>388.649994</ele>
<time>2023-11-22T08:55:40.294Z</time>
</trkpt>
<trkpt lat="31.6532400" lon="34.9915000">
<ele>389.130005</ele>
<time>2023-11-22T08:55:40.294Z</time>
</trkpt>
<trkpt lat="31.6532400" lon="34.9915000">
<ele>389.130005</ele>
<time>2023-11-22T08:55:40.294Z</time>
</trkpt>
<trkpt lat="31.6537400" lon="34.9906800">
<ele>386.179993</ele>
<time>2023-11-22T08:55:40.294Z</time>
</trkpt>
<trkpt lat="31.6537400" lon="34.9906800">
<ele>386.179993</ele>
<time>2023-11-22T08:55:40.294Z</time>
</trkpt>
<trkpt lat="31.6542300" lon="34.9903300">
<ele>386.899994</ele>
<time>2023-11-22T08:55:40.294Z</time>
</trkpt>
<trkpt lat="31.6542300" lon="34.9903300">
<ele>386.899994</ele>
<time>2023-11-22T08:55:40.294Z</time>
</trkpt>
<trkpt lat="31.6545000" lon="34.9899800">
<ele>385.839996</ele>
<time>2023-11-22T08:55:40.294Z</time>
</trkpt>
<trkpt lat="31.6545000" lon="34.9899800">
<ele>385.839996</ele>
<time>2023-11-22T08:55:40.294Z</time>
</trkpt>
<trkpt lat="31.6547100" lon="34.9898200">
<ele>388.230011</ele>
<time>2023-11-22T08:55:40.295Z</time>
</trkpt>
<trkpt lat="31.6547100" lon="34.9898200">
<ele>388.230011</ele>
<time>2023-11-22T08:55:40.295Z</time>
</trkpt>
<trkpt lat="31.6548500" lon="34.9896900">
<ele>389.960022</ele>
<time>2023-11-22T08:55:40.295Z</time>
</trkpt>
<trkpt lat="31.6548500" lon="34.9896900">
<ele>389.960022</ele>
<time>2023-11-22T08:55:40.295Z</time>
</trkpt>
<trkpt lat="31.6551600" lon="34.9891000">
<ele>390.359985</ele>
<time>2023-11-22T08:55:40.295Z</time>
</trkpt>
<trkpt lat="31.6551600" lon="34.9891000">
<ele>390.359985</ele>
<time>2023-11-22T08:55:40.295Z</time>
</trkpt>
<trkpt lat="31.6553600" lon="34.9886100">
<ele>389.470001</ele>
<time>2023-11-22T08:55:40.295Z</time>
</trkpt>
<trkpt lat="31.6553600" lon="34.9886100">
<ele>389.470001</ele>
<time>2023-11-22T08:55:40.295Z</time>
</trkpt>
<trkpt lat="31.6554100" lon="34.9884600">
<ele>389.580017</ele>
<time>2023-11-22T08:55:40.295Z</time>
</trkpt>
<trkpt lat="31.6554100" lon="34.9884600">
<ele>389.580017</ele>
<time>2023-11-22T08:55:40.295Z</time>
</trkpt>
<trkpt lat="31.6555100" lon="34.9882400">
<ele>389.339996</ele>
<time>2023-11-22T08:55:40.295Z</time>
</trkpt>
<trkpt lat="31.6555100" lon="34.9882400">
<ele>389.339996</ele>
<time>2023-11-22T08:55:40.295Z</time>
</trkpt>
<trkpt lat="31.6555900" lon="34.9880200">
<ele>388.440002</ele>
<time>2023-11-22T08:55:40.295Z</time>
</trkpt>
<trkpt lat="31.6555900" lon="34.9880200">
<ele>388.440002</ele>
<time>2023-11-22T08:55:40.295Z</time>
</trkpt>
<trkpt lat="31.6560200" lon="34.9874200">
<ele>386.250000</ele>
<time>2023-11-22T08:55:40.295Z</time>
</trkpt>
<trkpt lat="31.6560200" lon="34.9874200">
<ele>386.250000</ele>
<time>2023-11-22T08:55:40.295Z</time>
</trkpt>
<trkpt lat="31.6561300" lon="34.9873300">
<ele>386.719971</ele>
<time>2023-11-22T08:55:40.295Z</time>
</trkpt>
<trkpt lat="31.6561300" lon="34.9873300">
<ele>386.719971</ele>
<time>2023-11-22T08:55:40.295Z</time>
</trkpt>
<trkpt lat="31.6563600" lon="34.9873200">
<ele>385.859985</ele>
<time>2023-11-22T08:55:40.296Z</time>
</trkpt>
<trkpt lat="31.6563600" lon="34.9873200">
<ele>385.859985</ele>
<time>2023-11-22T08:55:40.296Z</time>
</trkpt>
<trkpt lat="31.6565300" lon="34.9872300">
<ele>385.160004</ele>
<time>2023-11-22T08:55:40.296Z</time>
</trkpt>
<trkpt lat="31.6565300" lon="34.9872300">
<ele>385.160004</ele>
<time>2023-11-22T08:55:40.296Z</time>
</trkpt>
<trkpt lat="31.6566400" lon="34.9872100">
<ele>385.600006</ele>
<time>2023-11-22T08:55:40.296Z</time>
</trkpt>
<trkpt lat="31.6566400" lon="34.9872100">
<ele>385.600006</ele>
<time>2023-11-22T08:55:40.296Z</time>
</trkpt>
<trkpt lat="31.6568600" lon="34.9872400">
<ele>386.929993</ele>
<time>2023-11-22T08:55:40.296Z</time>
</trkpt>
<trkpt lat="31.6568600" lon="34.9872400">
<ele>386.929993</ele>
<time>2023-11-22T08:55:40.296Z</time>
</trkpt>
<trkpt lat="31.6570300" lon="34.9871500">
<ele>384.970001</ele>
<time>2023-11-22T08:55:40.296Z</time>
</trkpt>
<trkpt lat="31.6570300" lon="34.9871500">
<ele>384.970001</ele>
<time>2023-11-22T08:55:40.296Z</time>
</trkpt>
<trkpt lat="31.6572700" lon="34.9869400">
<ele>381.109985</ele>
<time>2023-11-22T08:55:40.296Z</time>
</trkpt>
<trkpt lat="31.6572700" lon="34.9869400">
<ele>381.109985</ele>
<time>2023-11-22T08:55:40.296Z</time>
</trkpt>
<trkpt lat="31.6574500" lon="34.9867800">
<ele>378.549988</ele>
<time>2023-11-22T08:55:40.296Z</time>
</trkpt>
<trkpt lat="31.6574500" lon="34.9867800">
<ele>378.549988</ele>
<time>2023-11-22T08:55:40.296Z</time>
</trkpt>
<trkpt lat="31.6576200" lon="34.9866800">
<ele>378.470001</ele>
<time>2023-11-22T08:55:40.296Z</time>
</trkpt>
<trkpt lat="31.6576200" lon="34.9866800">
<ele>378.470001</ele>
<time>2023-11-22T08:55:40.296Z</time>
</trkpt>
<trkpt lat="31.6578300" lon="34.9863700">
<ele>383.259979</ele>
<time>2023-11-22T08:55:40.296Z</time>
</trkpt>
<trkpt lat="31.6578300" lon="34.9863700">
<ele>383.259979</ele>
<time>2023-11-22T08:55:40.296Z</time>
</trkpt>
<trkpt lat="31.6579500" lon="34.9862600">
<ele>384.079987</ele>
<time>2023-11-22T08:55:40.297Z</time>
</trkpt>
<trkpt lat="31.6579500" lon="34.9862600">
<ele>384.079987</ele>
<time>2023-11-22T08:55:40.297Z</time>
</trkpt>
<trkpt lat="31.6581600" lon="34.9861200">
<ele>386.410004</ele>
<time>2023-11-22T08:55:40.297Z</time>
</trkpt>
<trkpt lat="31.6581600" lon="34.9861200">
<ele>386.410004</ele>
<time>2023-11-22T08:55:40.297Z</time>
</trkpt>
<trkpt lat="31.6584100" lon="34.9859200">
<ele>392.299988</ele>
<time>2023-11-22T08:55:40.297Z</time>
</trkpt>
<trkpt lat="31.6584100" lon="34.9859200">
<ele>392.299988</ele>
<time>2023-11-22T08:55:40.297Z</time>
</trkpt>
<trkpt lat="31.6585000" lon="34.9858500">
<ele>393.959991</ele>
<time>2023-11-22T08:55:40.297Z</time>
</trkpt>
<trkpt lat="31.6585000" lon="34.9858500">
<ele>393.959991</ele>
<time>2023-11-22T08:55:40.297Z</time>
</trkpt>
<trkpt lat="31.6585600" lon="34.9857000">
<ele>395.589996</ele>
<time>2023-11-22T08:55:40.297Z</time>
</trkpt>
<trkpt lat="31.6585600" lon="34.9857000">
<ele>395.589996</ele>
<time>2023-11-22T08:55:40.297Z</time>
</trkpt>
<trkpt lat="31.6586200" lon="34.9856400">
<ele>396.430023</ele>
<time>2023-11-22T08:55:40.297Z</time>
</trkpt>
<trkpt lat="31.6586200" lon="34.9856400">
<ele>396.430023</ele>
<time>2023-11-22T08:55:40.297Z</time>
</trkpt>
<trkpt lat="31.6590500" lon="34.9855700">
<ele>398.769989</ele>
<time>2023-11-22T08:55:40.297Z</time>
</trkpt>
<trkpt lat="31.6590500" lon="34.9855700">
<ele>398.769989</ele>
<time>2023-11-22T08:55:40.297Z</time>
</trkpt>
<trkpt lat="31.6592200" lon="34.9856100">
<ele>398.480011</ele>
<time>2023-11-22T08:55:40.297Z</time>
</trkpt>
<trkpt lat="31.6592200" lon="34.9856100">
<ele>398.480011</ele>
<time>2023-11-22T08:55:40.297Z</time>
</trkpt>
<trkpt lat="31.6593300" lon="34.9855900">
<ele>399.239990</ele>
<time>2023-11-22T08:55:40.297Z</time>
</trkpt>
<trkpt lat="31.6593300" lon="34.9855900">
<ele>399.239990</ele>
<time>2023-11-22T08:55:40.297Z</time>
</trkpt>
<trkpt lat="31.6594600" lon="34.9855300">
<ele>400.179993</ele>
<time>2023-11-22T08:55:40.297Z</time>
</trkpt>
<trkpt lat="31.6594600" lon="34.9855300">
<ele>400.179993</ele>
<time>2023-11-22T08:55:40.298Z</time>
</trkpt>
<trkpt lat="31.6595400" lon="34.9854500">
<ele>400.759979</ele>
<time>2023-11-22T08:55:40.298Z</time>
</trkpt>
<trkpt lat="31.6595400" lon="34.9854500">
<ele>400.759979</ele>
<time>2023-11-22T08:55:40.298Z</time>
</trkpt>
<trkpt lat="31.6596000" lon="34.9853500">
<ele>401.480011</ele>
<time>2023-11-22T08:55:40.298Z</time>
</trkpt>
<trkpt lat="31.6596000" lon="34.9853500">
<ele>401.480011</ele>
<time>2023-11-22T08:55:40.298Z</time>
</trkpt>
<trkpt lat="31.6597600" lon="34.9852700">
<ele>402.089996</ele>
<time>2023-11-22T08:55:40.298Z</time>
</trkpt>
<trkpt lat="31.6597600" lon="34.9852700">
<ele>402.089996</ele>
<time>2023-11-22T08:55:40.298Z</time>
</trkpt>
<trkpt lat="31.6598000" lon="34.9852100">
<ele>402.800018</ele>
<time>2023-11-22T08:55:40.298Z</time>
</trkpt>
<trkpt lat="31.6598000" lon="34.9852100">
<ele>402.800018</ele>
<time>2023-11-22T08:55:40.298Z</time>
</trkpt>
<trkpt lat="31.6598300" lon="34.9851000">
<ele>404.170013</ele>
<time>2023-11-22T08:55:40.298Z</time>
</trkpt>
<trkpt lat="31.6598300" lon="34.9851000">
<ele>404.170013</ele>
<time>2023-11-22T08:55:40.298Z</time>
</trkpt>
<trkpt lat="31.6598200" lon="34.9850200">
<ele>405.110016</ele>
<time>2023-11-22T08:55:40.298Z</time>
</trkpt>
<trkpt lat="31.6598200" lon="34.9850200">
<ele>405.110016</ele>
<time>2023-11-22T08:55:40.298Z</time>
</trkpt>
<trkpt lat="31.6597300" lon="34.9848400">
<ele>407.330017</ele>
<time>2023-11-22T08:55:40.298Z</time>
</trkpt>
<trkpt lat="31.6597300" lon="34.9848400">
<ele>407.330017</ele>
<time>2023-11-22T08:55:40.298Z</time>
</trkpt>
<trkpt lat="31.6596000" lon="34.9846900">
<ele>410.179993</ele>
<time>2023-11-22T08:55:40.298Z</time>
</trkpt>
<trkpt lat="31.6596000" lon="34.9846900">
<ele>410.179993</ele>
<time>2023-11-22T08:55:40.298Z</time>
</trkpt>
<trkpt lat="31.6594000" lon="34.9845400">
<ele>412.359985</ele>
<time>2023-11-22T08:55:40.298Z</time>
</trkpt>
<trkpt lat="31.6594000" lon="34.9845400">
<ele>412.359985</ele>
<time>2023-11-22T08:55:40.299Z</time>
</trkpt>
<trkpt lat="31.6593700" lon="34.9844700">
<ele>413.029999</ele>
<time>2023-11-22T08:55:40.299Z</time>
</trkpt>
<trkpt lat="31.6593700" lon="34.9844700">
<ele>413.029999</ele>
<time>2023-11-22T08:55:40.299Z</time>
</trkpt>
<trkpt lat="31.6593500" lon="34.9843100">
<ele>413.660004</ele>
<time>2023-11-22T08:55:40.299Z</time>
</trkpt>
<trkpt lat="31.6593500" lon="34.9843100">
<ele>413.660004</ele>
<time>2023-11-22T08:55:40.299Z</time>
</trkpt>
<trkpt lat="31.6592900" lon="34.9841700">
<ele>413.989990</ele>
<time>2023-11-22T08:55:40.299Z</time>
</trkpt>
<trkpt lat="31.6592900" lon="34.9841700">
<ele>413.989990</ele>
<time>2023-11-22T08:55:40.299Z</time>
</trkpt>
<trkpt lat="31.6592400" lon="34.9839500">
<ele>414.000000</ele>
<time>2023-11-22T08:55:40.299Z</time>
</trkpt>
<trkpt lat="31.6592400" lon="34.9839500">
<ele>414.000000</ele>
<time>2023-11-22T08:55:40.299Z</time>
</trkpt>
<trkpt lat="31.6591500" lon="34.9836900">
<ele>414.130005</ele>
<time>2023-11-22T08:55:40.299Z</time>
</trkpt>
<trkpt lat="31.6591500" lon="34.9836900">
<ele>414.130005</ele>
<time>2023-11-22T08:55:40.299Z</time>
</trkpt>
<trkpt lat="31.6591000" lon="34.9835600">
<ele>414.209991</ele>
<time>2023-11-22T08:55:40.299Z</time>
</trkpt>
<trkpt lat="31.6591000" lon="34.9835600">
<ele>414.209991</ele>
<time>2023-11-22T08:55:40.299Z</time>
</trkpt>
<trkpt lat="31.6590900" lon="34.9834800">
<ele>413.540009</ele>
<time>2023-11-22T08:55:40.299Z</time>
</trkpt>
<trkpt lat="31.6590900" lon="34.9834800">
<ele>413.540009</ele>
<time>2023-11-22T08:55:40.299Z</time>
</trkpt>
<trkpt lat="31.6591200" lon="34.9833900">
<ele>412.250000</ele>
<time>2023-11-22T08:55:40.299Z</time>
</trkpt>
<trkpt lat="31.6591200" lon="34.9833900">
<ele>412.250000</ele>
<time>2023-11-22T08:55:40.299Z</time>
</trkpt>
<trkpt lat="31.6591800" lon="34.9832500">
<ele>409.799988</ele>
<time>2023-11-22T08:55:40.299Z</time>
</trkpt>
<trkpt lat="31.6591800" lon="34.9832500">
<ele>409.799988</ele>
<time>2023-11-22T08:55:40.300Z</time>
</trkpt>
<trkpt lat="31.6592300" lon="34.9830800">
<ele>407.349976</ele>
<time>2023-11-22T08:55:40.300Z</time>
</trkpt>
<trkpt lat="31.6592300" lon="34.9830800">
<ele>407.349976</ele>
<time>2023-11-22T08:55:40.300Z</time>
</trkpt>
<trkpt lat="31.6592400" lon="34.9830200">
<ele>406.839996</ele>
<time>2023-11-22T08:55:40.300Z</time>
</trkpt>
<trkpt lat="31.6592400" lon="34.9830200">
<ele>406.839996</ele>
<time>2023-11-22T08:55:40.300Z</time>
</trkpt>
<trkpt lat="31.6591400" lon="34.9827700">
<ele>406.629974</ele>
<time>2023-11-22T08:55:40.300Z</time>
</trkpt>
<trkpt lat="31.6591400" lon="34.9827700">
<ele>406.629974</ele>
<time>2023-11-22T08:55:40.300Z</time>
</trkpt>
<trkpt lat="31.6590500" lon="34.9826300">
<ele>409.360016</ele>
<time>2023-11-22T08:55:40.300Z</time>
</trkpt>
<trkpt lat="31.6590500" lon="34.9826300">
<ele>409.360016</ele>
<time>2023-11-22T08:55:40.300Z</time>
</trkpt>
<trkpt lat="31.6590200" lon="34.9825100">
<ele>410.589996</ele>
<time>2023-11-22T08:55:40.300Z</time>
</trkpt>
<trkpt lat="31.6590200" lon="34.9825100">
<ele>410.589996</ele>
<time>2023-11-22T08:55:40.300Z</time>
</trkpt>
<trkpt lat="31.6591100" lon="34.9822400">
<ele>407.890015</ele>
<time>2023-11-22T08:55:40.300Z</time>
</trkpt>
<trkpt lat="31.6591100" lon="34.9822400">
<ele>407.890015</ele>
<time>2023-11-22T08:55:40.300Z</time>
</trkpt>
<trkpt lat="31.6591200" lon="34.9821700">
<ele>407.390015</ele>
<time>2023-11-22T08:55:40.300Z</time>
</trkpt>
<trkpt lat="31.6591200" lon="34.9821700">
<ele>407.390015</ele>
<time>2023-11-22T08:55:40.300Z</time>
</trkpt>
<trkpt lat="31.6590700" lon="34.9819700">
<ele>406.539978</ele>
<time>2023-11-22T08:55:40.301Z</time>
</trkpt>
<trkpt lat="31.6590700" lon="34.9819700">
<ele>406.539978</ele>
<time>2023-11-22T08:55:40.301Z</time>
</trkpt>
<trkpt lat="31.6589700" lon="34.9817800">
<ele>406.539978</ele>
<time>2023-11-22T08:55:40.301Z</time>
</trkpt>
<trkpt lat="31.6589700" lon="34.9817800">
<ele>406.539978</ele>
<time>2023-11-22T08:55:40.301Z</time>
</trkpt>
<trkpt lat="31.6589700" lon="34.9816900">
<ele>406.440002</ele>
<time>2023-11-22T08:55:40.301Z</time>
</trkpt>
<trkpt lat="31.6589700" lon="34.9816900">
<ele>406.440002</ele>
<time>2023-11-22T08:55:40.301Z</time>
</trkpt>
<trkpt lat="31.6590000" lon="34.9813300">
<ele>407.239990</ele>
<time>2023-11-22T08:55:40.301Z</time>
</trkpt>
<trkpt lat="31.6590000" lon="34.9813300">
<ele>407.239990</ele>
<time>2023-11-22T08:55:40.301Z</time>
</trkpt>
<trkpt lat="31.6589900" lon="34.9811800">
<ele>407.479980</ele>
<time>2023-11-22T08:55:40.301Z</time>
</trkpt>
<trkpt lat="31.6589900" lon="34.9811800">
<ele>407.479980</ele>
<time>2023-11-22T08:55:40.301Z</time>
</trkpt>
<trkpt lat="31.6589000" lon="34.9808200">
<ele>409.839996</ele>
<time>2023-11-22T08:55:40.301Z</time>
</trkpt>
<trkpt lat="31.6589000" lon="34.9808200">
<ele>409.839996</ele>
<time>2023-11-22T08:55:40.301Z</time>
</trkpt>
<trkpt lat="31.6588900" lon="34.9806000">
<ele>409.990021</ele>
<time>2023-11-22T08:55:40.301Z</time>
</trkpt>
<trkpt lat="31.6588900" lon="34.9806000">
<ele>409.990021</ele>
<time>2023-11-22T08:55:40.301Z</time>
</trkpt>
<trkpt lat="31.6589300" lon="34.9804100">
<ele>409.189972</ele>
<time>2023-11-22T08:55:40.301Z</time>
</trkpt>
<trkpt lat="31.6589300" lon="34.9804100">
<ele>409.189972</ele>
<time>2023-11-22T08:55:40.301Z</time>
</trkpt>
<trkpt lat="31.6589600" lon="34.9801600">
<ele>408.739990</ele>
<time>2023-11-22T08:55:40.301Z</time>
</trkpt>
<trkpt lat="31.6589600" lon="34.9801600">
<ele>408.739990</ele>
<time>2023-11-22T08:55:40.301Z</time>
</trkpt>
<trkpt lat="31.6589900" lon="34.9800700">
<ele>408.639984</ele>
<time>2023-11-22T08:55:40.302Z</time>
</trkpt>
<trkpt lat="31.6589900" lon="34.9800700">
<ele>408.639984</ele>
<time>2023-11-22T08:55:40.302Z</time>
</trkpt>
<trkpt lat="31.6592700" lon="34.9797800">
<ele>406.839996</ele>
<time>2023-11-22T08:55:40.302Z</time>
</trkpt>
<trkpt lat="31.6592700" lon="34.9797800">
<ele>406.839996</ele>
<time>2023-11-22T08:55:40.302Z</time>
</trkpt>
<trkpt lat="31.6594900" lon="34.9797900">
<ele>406.660004</ele>
<time>2023-11-22T08:55:40.302Z</time>
</trkpt>
<trkpt lat="31.6594900" lon="34.9797900">
<ele>406.660004</ele>
<time>2023-11-22T08:55:40.302Z</time>
</trkpt>
<trkpt lat="31.6596600" lon="34.9797400">
<ele>408.290009</ele>
<time>2023-11-22T08:55:40.302Z</time>
</trkpt>
<trkpt lat="31.6596600" lon="34.9797400">
<ele>408.290009</ele>
<time>2023-11-22T08:55:40.302Z</time>
</trkpt>
<trkpt lat="31.6597700" lon="34.9796800">
<ele>408.989990</ele>
<time>2023-11-22T08:55:40.302Z</time>
</trkpt>
<trkpt lat="31.6597700" lon="34.9796800">
<ele>408.989990</ele>
<time>2023-11-22T08:55:40.302Z</time>
</trkpt>
<trkpt lat="31.6598900" lon="34.9796300">
<ele>409.069977</ele>
<time>2023-11-22T08:55:40.302Z</time>
</trkpt>
<trkpt lat="31.6598900" lon="34.9796300">
<ele>409.069977</ele>
<time>2023-11-22T08:55:40.302Z</time>
</trkpt>
<trkpt lat="31.6599500" lon="34.9795500">
<ele>408.690002</ele>
<time>2023-11-22T08:55:40.302Z</time>
</trkpt>
<trkpt lat="31.6599500" lon="34.9795500">
<ele>408.690002</ele>
<time>2023-11-22T08:55:40.302Z</time>
</trkpt>
<trkpt lat="31.6600900" lon="34.9791800">
<ele>407.410004</ele>
<time>2023-11-22T08:55:40.302Z</time>
</trkpt>
<trkpt lat="31.6600900" lon="34.9791800">
<ele>407.410004</ele>
<time>2023-11-22T08:55:40.302Z</time>
</trkpt>
<trkpt lat="31.6600900" lon="34.9790400">
<ele>406.079987</ele>
<time>2023-11-22T08:55:40.302Z</time>
</trkpt>
<trkpt lat="31.6600900" lon="34.9790400">
<ele>406.079987</ele>
<time>2023-11-22T08:55:40.302Z</time>
</trkpt>
<trkpt lat="31.6601100" lon="34.9789600">
<ele>405.649994</ele>
<time>2023-11-22T08:55:40.303Z</time>
</trkpt>
<trkpt lat="31.6601100" lon="34.9789600">
<ele>405.649994</ele>
<time>2023-11-22T08:55:40.303Z</time>
</trkpt>
<trkpt lat="31.6601200" lon="34.9788900">
<ele>405.169983</ele>
<time>2023-11-22T08:55:40.303Z</time>
</trkpt>
<trkpt lat="31.6601200" lon="34.9788900">
<ele>405.169983</ele>
<time>2023-11-22T08:55:40.303Z</time>
</trkpt>
<trkpt lat="31.6601300" lon="34.9788400">
<ele>404.990021</ele>
<time>2023-11-22T08:55:40.303Z</time>
</trkpt>
<trkpt lat="31.6601300" lon="34.9788400">
<ele>404.990021</ele>
<time>2023-11-22T08:55:40.303Z</time>
</trkpt>
<trkpt lat="31.6601300" lon="34.9787100">
<ele>404.050018</ele>
<time>2023-11-22T08:55:40.303Z</time>
</trkpt>
<trkpt lat="31.6601300" lon="34.9787100">
<ele>404.050018</ele>
<time>2023-11-22T08:55:40.303Z</time>
</trkpt>
<trkpt lat="31.6601700" lon="34.9782600">
<ele>402.939972</ele>
<time>2023-11-22T08:55:40.303Z</time>
</trkpt>
<trkpt lat="31.6601700" lon="34.9782600">
<ele>402.939972</ele>
<time>2023-11-22T08:55:40.303Z</time>
</trkpt>
<trkpt lat="31.6601900" lon="34.9777100">
<ele>403.280029</ele>
<time>2023-11-22T08:55:40.303Z</time>
</trkpt>
<trkpt lat="31.6602000" lon="34.9771500">
<ele>399.670013</ele>
<time>2023-11-22T08:55:40.303Z</time>
</trkpt>
<trkpt lat="31.6602200" lon="34.9766000">
<ele>400.600006</ele>
<time>2023-11-22T08:55:40.303Z</time>
</trkpt>
<trkpt lat="31.6602200" lon="34.9766000">
<ele>400.600006</ele>
<time>2023-11-22T08:55:40.303Z</time>
</trkpt>
<trkpt lat="31.6603800" lon="34.9760400">
<ele>400.589996</ele>
<time>2023-11-22T08:55:40.303Z</time>
</trkpt>
<trkpt lat="31.6603800" lon="34.9760400">
<ele>400.589996</ele>
<time>2023-11-22T08:55:40.303Z</time>
</trkpt>
<trkpt lat="31.6603200" lon="34.9757700">
<ele>398.419983</ele>
<time>2023-11-22T08:55:40.303Z</time>
</trkpt>
<trkpt lat="31.6603200" lon="34.9757700">
<ele>398.419983</ele>
<time>2023-11-22T08:55:40.303Z</time>
</trkpt>
<trkpt lat="31.6603700" lon="34.9754400">
<ele>398.669983</ele>
<time>2023-11-22T08:55:40.304Z</time>
</trkpt>
<trkpt lat="31.6603700" lon="34.9754400">
<ele>398.669983</ele>
<time>2023-11-22T08:55:40.304Z</time>
</trkpt>
<trkpt lat="31.6603200" lon="34.9752500">
<ele>398.730011</ele>
<time>2023-11-22T08:55:40.304Z</time>
</trkpt>
<trkpt lat="31.6603200" lon="34.9752500">
<ele>398.730011</ele>
<time>2023-11-22T08:55:40.304Z</time>
</trkpt>
<trkpt lat="31.6601600" lon="34.9750900">
<ele>397.769989</ele>
<time>2023-11-22T08:55:40.304Z</time>
</trkpt>
<trkpt lat="31.6601600" lon="34.9750900">
<ele>397.769989</ele>
<time>2023-11-22T08:55:40.304Z</time>
</trkpt>
<trkpt lat="31.6601200" lon="34.9749400">
<ele>397.570007</ele>
<time>2023-11-22T08:55:40.304Z</time>
</trkpt>
<trkpt lat="31.6601200" lon="34.9749400">
<ele>397.570007</ele>
<time>2023-11-22T08:55:40.304Z</time>
</trkpt>
<trkpt lat="31.6598900" lon="34.9744700">
<ele>389.179993</ele>
<time>2023-11-22T08:55:40.304Z</time>
</trkpt>
<trkpt lat="31.6598900" lon="34.9744700">
<ele>389.179993</ele>
<time>2023-11-22T08:55:40.304Z</time>
</trkpt>
<trkpt lat="31.6598700" lon="34.9742100">
<ele>385.100006</ele>
<time>2023-11-22T08:55:40.304Z</time>
</trkpt>
<trkpt lat="31.6598700" lon="34.9742100">
<ele>385.100006</ele>
<time>2023-11-22T08:55:40.304Z</time>
</trkpt>
<trkpt lat="31.6597300" lon="34.9736600">
<ele>388.190002</ele>
<time>2023-11-22T08:55:40.304Z</time>
</trkpt>
<trkpt lat="31.6597300" lon="34.9736600">
<ele>388.190002</ele>
<time>2023-11-22T08:55:40.304Z</time>
</trkpt>
<trkpt lat="31.6597100" lon="34.9734900">
<ele>389.610016</ele>
<time>2023-11-22T08:55:40.304Z</time>
</trkpt>
<trkpt lat="31.6597100" lon="34.9734900">
<ele>389.610016</ele>
<time>2023-11-22T08:55:40.304Z</time>
</trkpt>
<trkpt lat="31.6597200" lon="34.9731000">
<ele>390.040009</ele>
<time>2023-11-22T08:55:40.304Z</time>
</trkpt>
<trkpt lat="31.6597200" lon="34.9731000">
<ele>390.040009</ele>
<time>2023-11-22T08:55:40.304Z</time>
</trkpt>
<trkpt lat="31.6598100" lon="34.9725500">
<ele>389.929993</ele>
<time>2023-11-22T08:55:40.304Z</time>
</trkpt>
<trkpt lat="31.6598100" lon="34.9725500">
<ele>389.929993</ele>
<time>2023-11-22T08:55:40.305Z</time>
</trkpt>
<trkpt lat="31.6598000" lon="34.9722600">
<ele>389.490021</ele>
<time>2023-11-22T08:55:40.305Z</time>
</trkpt>
<trkpt lat="31.6598000" lon="34.9722600">
<ele>389.490021</ele>
<time>2023-11-22T08:55:40.305Z</time>
</trkpt>
<trkpt lat="31.6598600" lon="34.9721200">
<ele>386.910004</ele>
<time>2023-11-22T08:55:40.305Z</time>
</trkpt>
<trkpt lat="31.6598600" lon="34.9721200">
<ele>386.910004</ele>
<time>2023-11-22T08:55:40.305Z</time>
</trkpt>
<trkpt lat="31.6599800" lon="34.9719100">
<ele>384.980011</ele>
<time>2023-11-22T08:55:40.305Z</time>
</trkpt>
<trkpt lat="31.6599800" lon="34.9719100">
<ele>384.980011</ele>
<time>2023-11-22T08:55:40.305Z</time>
</trkpt>
<trkpt lat="31.6602800" lon="34.9716500">
<ele>387.079987</ele>
<time>2023-11-22T08:55:40.305Z</time>
</trkpt>
<trkpt lat="31.6602800" lon="34.9716500">
<ele>387.079987</ele>
<time>2023-11-22T08:55:40.305Z</time>
</trkpt>
<trkpt lat="31.6604400" lon="34.9715200">
<ele>388.080017</ele>
<time>2023-11-22T08:55:40.305Z</time>
</trkpt>
<trkpt lat="31.6604400" lon="34.9715200">
<ele>388.080017</ele>
<time>2023-11-22T08:55:40.305Z</time>
</trkpt>
<trkpt lat="31.6606800" lon="34.9713700">
<ele>388.239990</ele>
<time>2023-11-22T08:55:40.305Z</time>
</trkpt>
<trkpt lat="31.6606800" lon="34.9713700">
<ele>388.239990</ele>
<time>2023-11-22T08:55:40.305Z</time>
</trkpt>
<trkpt lat="31.6608300" lon="34.9712600">
<ele>388.049988</ele>
<time>2023-11-22T08:55:40.305Z</time>
</trkpt>
<trkpt lat="31.6608300" lon="34.9712600">
<ele>388.049988</ele>
<time>2023-11-22T08:55:40.305Z</time>
</trkpt>
<trkpt lat="31.6609800" lon="34.9710900">
<ele>388.510010</ele>
<time>2023-11-22T08:55:40.305Z</time>
</trkpt>
<trkpt lat="31.6609800" lon="34.9710900">
<ele>388.510010</ele>
<time>2023-11-22T08:55:40.305Z</time>
</trkpt>
<trkpt lat="31.6611300" lon="34.9708800">
<ele>389.329987</ele>
<time>2023-11-22T08:55:40.305Z</time>
</trkpt>
<trkpt lat="31.6611300" lon="34.9708800">
<ele>389.329987</ele>
<time>2023-11-22T08:55:40.306Z</time>
</trkpt>
<trkpt lat="31.6611700" lon="34.9702600">
<ele>388.959991</ele>
<time>2023-11-22T08:55:40.306Z</time>
</trkpt>
<trkpt lat="31.6611700" lon="34.9702600">
<ele>388.959991</ele>
<time>2023-11-22T08:55:40.306Z</time>
</trkpt>
<trkpt lat="31.6612900" lon="34.9697400">
<ele>388.689972</ele>
<time>2023-11-22T08:55:40.306Z</time>
</trkpt>
<trkpt lat="31.6612900" lon="34.9697400">
<ele>388.689972</ele>
<time>2023-11-22T08:55:40.306Z</time>
</trkpt>
<trkpt lat="31.6614500" lon="34.9689300">
<ele>387.619995</ele>
<time>2023-11-22T08:55:40.306Z</time>
</trkpt>
<trkpt lat="31.6614500" lon="34.9689300">
<ele>387.619995</ele>
<time>2023-11-22T08:55:40.306Z</time>
</trkpt>
<trkpt lat="31.6613900" lon="34.9687400">
<ele>385.940002</ele>
<time>2023-11-22T08:55:40.306Z</time>
</trkpt>
<trkpt lat="31.6613900" lon="34.9687400">
<ele>385.940002</ele>
<time>2023-11-22T08:55:40.306Z</time>
</trkpt>
<trkpt lat="31.6615300" lon="34.9685300">
<ele>385.430023</ele>
<time>2023-11-22T08:55:40.306Z</time>
</trkpt>
<trkpt lat="31.6615300" lon="34.9685300">
<ele>385.430023</ele>
<time>2023-11-22T08:55:40.306Z</time>
</trkpt>
<trkpt lat="31.6616700" lon="34.9683400">
<ele>384.050018</ele>
<time>2023-11-22T08:55:40.306Z</time>
</trkpt>
<trkpt lat="31.6616700" lon="34.9683400">
<ele>384.050018</ele>
<time>2023-11-22T08:55:40.306Z</time>
</trkpt>
<trkpt lat="31.6619200" lon="34.9680100">
<ele>379.560028</ele>
<time>2023-11-22T08:55:40.306Z</time>
</trkpt>
<trkpt lat="31.6619200" lon="34.9680100">
<ele>379.560028</ele>
<time>2023-11-22T08:55:40.306Z</time>
</trkpt>
<trkpt lat="31.6620300" lon="34.9678500">
<ele>378.790009</ele>
<time>2023-11-22T08:55:40.306Z</time>
</trkpt>
<trkpt lat="31.6620300" lon="34.9678500">
<ele>378.790009</ele>
<time>2023-11-22T08:55:40.306Z</time>
</trkpt>
<trkpt lat="31.6621300" lon="34.9677100">
<ele>377.639984</ele>
<time>2023-11-22T08:55:40.306Z</time>
</trkpt>
<trkpt lat="31.6621300" lon="34.9677100">
<ele>377.639984</ele>
<time>2023-11-22T08:55:40.307Z</time>
</trkpt>
<trkpt lat="31.6622000" lon="34.9675700">
<ele>377.660004</ele>
<time>2023-11-22T08:55:40.307Z</time>
</trkpt>
<trkpt lat="31.6622000" lon="34.9675700">
<ele>377.660004</ele>
<time>2023-11-22T08:55:40.307Z</time>
</trkpt>
<trkpt lat="31.6622700" lon="34.9674700">
<ele>377.089996</ele>
<time>2023-11-22T08:55:40.307Z</time>
</trkpt>
<trkpt lat="31.6622700" lon="34.9674700">
<ele>377.089996</ele>
<time>2023-11-22T08:55:40.307Z</time>
</trkpt>
<trkpt lat="31.6624000" lon="34.9673800">
<ele>375.199982</ele>
<time>2023-11-22T08:55:40.307Z</time>
</trkpt>
<trkpt lat="31.6624000" lon="34.9673800">
<ele>375.199982</ele>
<time>2023-11-22T08:55:40.307Z</time>
</trkpt>
<trkpt lat="31.6625100" lon="34.9672800">
<ele>374.450012</ele>
<time>2023-11-22T08:55:40.307Z</time>
</trkpt>
<trkpt lat="31.6625100" lon="34.9672800">
<ele>374.450012</ele>
<time>2023-11-22T08:55:40.307Z</time>
</trkpt>
<trkpt lat="31.6625700" lon="34.9671000">
<ele>374.980011</ele>
<time>2023-11-22T08:55:40.307Z</time>
</trkpt>
<trkpt lat="31.6625700" lon="34.9671000">
<ele>374.980011</ele>
<time>2023-11-22T08:55:40.307Z</time>
</trkpt>
<trkpt lat="31.6626400" lon="34.9669900">
<ele>375.079987</ele>
<time>2023-11-22T08:55:40.307Z</time>
</trkpt>
<trkpt lat="31.6626400" lon="34.9669900">
<ele>375.079987</ele>
<time>2023-11-22T08:55:40.307Z</time>
</trkpt>
<trkpt lat="31.6629400" lon="34.9667500">
<ele>372.130005</ele>
<time>2023-11-22T08:55:40.307Z</time>
</trkpt>
<trkpt lat="31.6629400" lon="34.9667500">
<ele>372.130005</ele>
<time>2023-11-22T08:55:40.307Z</time>
</trkpt>
<trkpt lat="31.6631100" lon="34.9665300">
<ele>369.619995</ele>
<time>2023-11-22T08:55:40.307Z</time>
</trkpt>
<trkpt lat="31.6631100" lon="34.9665300">
<ele>369.619995</ele>
<time>2023-11-22T08:55:40.307Z</time>
</trkpt>
<trkpt lat="31.6631700" lon="34.9663200">
<ele>368.730011</ele>
<time>2023-11-22T08:55:40.307Z</time>
</trkpt>
<trkpt lat="31.6631700" lon="34.9663200">
<ele>368.730011</ele>
<time>2023-11-22T08:55:40.308Z</time>
</trkpt>
<trkpt lat="31.6632400" lon="34.9662000">
<ele>368.560028</ele>
<time>2023-11-22T08:55:40.308Z</time>
</trkpt>
<trkpt lat="31.6632400" lon="34.9662000">
<ele>368.560028</ele>
<time>2023-11-22T08:55:40.308Z</time>
</trkpt>
<trkpt lat="31.6633200" lon="34.9661100">
<ele>368.099976</ele>
<time>2023-11-22T08:55:40.308Z</time>
</trkpt>
<trkpt lat="31.6633200" lon="34.9661100">
<ele>368.099976</ele>
<time>2023-11-22T08:55:40.308Z</time>
</trkpt>
<trkpt lat="31.6636100" lon="34.9659200">
<ele>369.000000</ele>
<time>2023-11-22T08:55:40.308Z</time>
</trkpt>
<trkpt lat="31.6636100" lon="34.9659200">
<ele>369.000000</ele>
<time>2023-11-22T08:55:40.308Z</time>
</trkpt>
<trkpt lat="31.6636600" lon="34.9658600">
<ele>369.350006</ele>
<time>2023-11-22T08:55:40.308Z</time>
</trkpt>
<trkpt lat="31.6636600" lon="34.9658600">
<ele>369.350006</ele>
<time>2023-11-22T08:55:40.308Z</time>
</trkpt>
<trkpt lat="31.6637500" lon="34.9655900">
<ele>367.369995</ele>
<time>2023-11-22T08:55:40.308Z</time>
</trkpt>
<trkpt lat="31.6637500" lon="34.9655900">
<ele>367.369995</ele>
<time>2023-11-22T08:55:40.308Z</time>
</trkpt>
<trkpt lat="31.6640400" lon="34.9649600">
<ele>366.729980</ele>
<time>2023-11-22T08:55:40.308Z</time>
</trkpt>
<trkpt lat="31.6640400" lon="34.9649600">
<ele>366.729980</ele>
<time>2023-11-22T08:55:40.308Z</time>
</trkpt>
<trkpt lat="31.6642500" lon="34.9644500">
<ele>363.959991</ele>
<time>2023-11-22T08:55:40.308Z</time>
</trkpt>
<trkpt lat="31.6642500" lon="34.9644500">
<ele>363.959991</ele>
<time>2023-11-22T08:55:40.308Z</time>
</trkpt>
<trkpt lat="31.6643500" lon="34.9641700">
<ele>362.329987</ele>
<time>2023-11-22T08:55:40.308Z</time>
</trkpt>
<trkpt lat="31.6643500" lon="34.9641700">
<ele>362.329987</ele>
<time>2023-11-22T08:55:40.308Z</time>
</trkpt>
<trkpt lat="31.6648100" lon="34.9636900">
<ele>367.429993</ele>
<time>2023-11-22T08:55:40.308Z</time>
</trkpt>
<trkpt lat="31.6648100" lon="34.9636900">
<ele>367.429993</ele>
<time>2023-11-22T08:55:40.308Z</time>
</trkpt>
<trkpt lat="31.6651400" lon="34.9633900">
<ele>370.709991</ele>
<time>2023-11-22T08:55:40.309Z</time>
</trkpt>
<trkpt lat="31.6651400" lon="34.9633900">
<ele>370.709991</ele>
<time>2023-11-22T08:55:40.309Z</time>
</trkpt>
<trkpt lat="31.6652500" lon="34.9632600">
<ele>370.690002</ele>
<time>2023-11-22T08:55:40.309Z</time>
</trkpt>
<trkpt lat="31.6652500" lon="34.9632600">
<ele>370.690002</ele>
<time>2023-11-22T08:55:40.309Z</time>
</trkpt>
<trkpt lat="31.6655000" lon="34.9627200">
<ele>371.219971</ele>
<time>2023-11-22T08:55:40.309Z</time>
</trkpt>
<trkpt lat="31.6655000" lon="34.9627200">
<ele>371.219971</ele>
<time>2023-11-22T08:55:40.309Z</time>
</trkpt>
<trkpt lat="31.6656300" lon="34.9624400">
<ele>372.830017</ele>
<time>2023-11-22T08:55:40.309Z</time>
</trkpt>
<trkpt lat="31.6656300" lon="34.9624400">
<ele>372.830017</ele>
<time>2023-11-22T08:55:40.309Z</time>
</trkpt>
<trkpt lat="31.6656800" lon="34.9623700">
<ele>372.600006</ele>
<time>2023-11-22T08:55:40.309Z</time>
</trkpt>
<trkpt lat="31.6656800" lon="34.9623700">
<ele>372.600006</ele>
<time>2023-11-22T08:55:40.309Z</time>
</trkpt>
<trkpt lat="31.6660100" lon="34.9621400">
<ele>369.429993</ele>
<time>2023-11-22T08:55:40.309Z</time>
</trkpt>
<trkpt lat="31.6660100" lon="34.9621400">
<ele>369.429993</ele>
<time>2023-11-22T08:55:40.309Z</time>
</trkpt>
<trkpt lat="31.6661700" lon="34.9621400">
<ele>368.070007</ele>
<time>2023-11-22T08:55:40.309Z</time>
</trkpt>
<trkpt lat="31.6661700" lon="34.9621400">
<ele>368.070007</ele>
<time>2023-11-22T08:55:40.309Z</time>
</trkpt>
<trkpt lat="31.6663900" lon="34.9620800">
<ele>365.480011</ele>
<time>2023-11-22T08:55:40.309Z</time>
</trkpt>
<trkpt lat="31.6663900" lon="34.9620800">
<ele>365.480011</ele>
<time>2023-11-22T08:55:40.309Z</time>
</trkpt>
<trkpt lat="31.6665300" lon="34.9621000">
<ele>364.320007</ele>
<time>2023-11-22T08:55:40.309Z</time>
</trkpt>
<trkpt lat="31.6665300" lon="34.9621000">
<ele>364.320007</ele>
<time>2023-11-22T08:55:40.309Z</time>
</trkpt>
<trkpt lat="31.6666100" lon="34.9621000">
<ele>363.619995</ele>
<time>2023-11-22T08:55:40.310Z</time>
</trkpt>
<trkpt lat="31.6666100" lon="34.9621000">
<ele>363.619995</ele>
<time>2023-11-22T08:55:40.310Z</time>
</trkpt>
<trkpt lat="31.6665700" lon="34.9619600">
<ele>363.139984</ele>
<time>2023-11-22T08:55:40.310Z</time>
</trkpt>
<trkpt lat="31.6665700" lon="34.9619600">
<ele>363.139984</ele>
<time>2023-11-22T08:55:40.310Z</time>
</trkpt>
<trkpt lat="31.6665500" lon="34.9617800">
<ele>362.079987</ele>
<time>2023-11-22T08:55:40.310Z</time>
</trkpt>
<trkpt lat="31.6665500" lon="34.9617800">
<ele>362.079987</ele>
<time>2023-11-22T08:55:40.310Z</time>
</trkpt>
<trkpt lat="31.6665000" lon="34.9616300">
<ele>361.089996</ele>
<time>2023-11-22T08:55:40.310Z</time>
</trkpt>
<trkpt lat="31.6665000" lon="34.9616300">
<ele>361.089996</ele>
<time>2023-11-22T08:55:40.310Z</time>
</trkpt>
<trkpt lat="31.6665300" lon="34.9615000">
<ele>358.169983</ele>
<time>2023-11-22T08:55:40.310Z</time>
</trkpt>
<trkpt lat="31.6665300" lon="34.9615000">
<ele>358.169983</ele>
<time>2023-11-22T08:55:40.310Z</time>
</trkpt>
<trkpt lat="31.6665900" lon="34.9613500">
<ele>354.439972</ele>
<time>2023-11-22T08:55:40.310Z</time>
</trkpt>
<trkpt lat="31.6665900" lon="34.9613500">
<ele>354.439972</ele>
<time>2023-11-22T08:55:40.310Z</time>
</trkpt>
<trkpt lat="31.6666400" lon="34.9613200">
<ele>353.169983</ele>
<time>2023-11-22T08:55:40.310Z</time>
</trkpt>
<trkpt lat="31.6666400" lon="34.9613200">
<ele>353.169983</ele>
<time>2023-11-22T08:55:40.310Z</time>
</trkpt>
<trkpt lat="31.6667900" lon="34.9614100">
<ele>352.240021</ele>
<time>2023-11-22T08:55:40.310Z</time>
</trkpt>
<trkpt lat="31.6667900" lon="34.9614100">
<ele>352.240021</ele>
<time>2023-11-22T08:55:40.310Z</time>
</trkpt>
<trkpt lat="31.6669900" lon="34.9614600">
<ele>350.329987</ele>
<time>2023-11-22T08:55:40.310Z</time>
</trkpt>
<trkpt lat="31.6669900" lon="34.9614600">
<ele>350.329987</ele>
<time>2023-11-22T08:55:40.310Z</time>
</trkpt>
<trkpt lat="31.6671000" lon="34.9614700">
<ele>350.029968</ele>
<time>2023-11-22T08:55:40.311Z</time>
</trkpt>
<trkpt lat="31.6671000" lon="34.9614700">
<ele>350.029968</ele>
<time>2023-11-22T08:55:40.311Z</time>
</trkpt>
<trkpt lat="31.6671600" lon="34.9614400">
<ele>349.190002</ele>
<time>2023-11-22T08:55:40.311Z</time>
</trkpt>
<trkpt lat="31.6671600" lon="34.9614400">
<ele>349.190002</ele>
<time>2023-11-22T08:55:40.311Z</time>
</trkpt>
<trkpt lat="31.6672100" lon="34.9613800">
<ele>347.790009</ele>
<time>2023-11-22T08:55:40.311Z</time>
</trkpt>
<trkpt lat="31.6672100" lon="34.9613800">
<ele>347.790009</ele>
<time>2023-11-22T08:55:40.311Z</time>
</trkpt>
<trkpt lat="31.6672300" lon="34.9611800">
<ele>341.920013</ele>
<time>2023-11-22T08:55:40.311Z</time>
</trkpt>
<trkpt lat="31.6672300" lon="34.9611800">
<ele>341.920013</ele>
<time>2023-11-22T08:55:40.311Z</time>
</trkpt>
<trkpt lat="31.6672600" lon="34.9610400">
<ele>337.899994</ele>
<time>2023-11-22T08:55:40.311Z</time>
</trkpt>
<trkpt lat="31.6672600" lon="34.9610400">
<ele>337.899994</ele>
<time>2023-11-22T08:55:40.311Z</time>
</trkpt>
<trkpt lat="31.6674400" lon="34.9607900">
<ele>329.809998</ele>
<time>2023-11-22T08:55:40.311Z</time>
</trkpt>
<trkpt lat="31.6674400" lon="34.9607900">
<ele>329.809998</ele>
<time>2023-11-22T08:55:40.311Z</time>
</trkpt>
<trkpt lat="31.6677300" lon="34.9606200">
<ele>327.049988</ele>
<time>2023-11-22T08:55:40.311Z</time>
</trkpt>
<trkpt lat="31.6677300" lon="34.9606200">
<ele>327.049988</ele>
<time>2023-11-22T08:55:40.311Z</time>
</trkpt>
<trkpt lat="31.6677600" lon="34.9605400">
<ele>325.710022</ele>
<time>2023-11-22T08:55:40.311Z</time>
</trkpt>
<trkpt lat="31.6677600" lon="34.9605400">
<ele>325.710022</ele>
<time>2023-11-22T08:55:40.311Z</time>
</trkpt>
<trkpt lat="31.6678300" lon="34.9603400">
<ele>323.229980</ele>
<time>2023-11-22T08:55:40.311Z</time>
</trkpt>
<trkpt lat="31.6678300" lon="34.9603400">
<ele>323.229980</ele>
<time>2023-11-22T08:55:40.311Z</time>
</trkpt>
<trkpt lat="31.6678900" lon="34.9602600">
<ele>321.619995</ele>
<time>2023-11-22T08:55:40.312Z</time>
</trkpt>
<trkpt lat="31.6678900" lon="34.9602600">
<ele>321.619995</ele>
<time>2023-11-22T08:55:40.312Z</time>
</trkpt>
<trkpt lat="31.6680300" lon="34.9601800">
<ele>318.649994</ele>
<time>2023-11-22T08:55:40.312Z</time>
</trkpt>
<trkpt lat="31.6680300" lon="34.9601800">
<ele>318.649994</ele>
<time>2023-11-22T08:55:40.312Z</time>
</trkpt>
<trkpt lat="31.6681700" lon="34.9601500">
<ele>317.320007</ele>
<time>2023-11-22T08:55:40.312Z</time>
</trkpt>
<trkpt lat="31.6681700" lon="34.9601500">
<ele>317.320007</ele>
<time>2023-11-22T08:55:40.312Z</time>
</trkpt>
<trkpt lat="31.6682700" lon="34.9600400">
<ele>314.400024</ele>
<time>2023-11-22T08:55:40.312Z</time>
</trkpt>
<trkpt lat="31.6682700" lon="34.9600400">
<ele>314.400024</ele>
<time>2023-11-22T08:55:40.312Z</time>
</trkpt>
<trkpt lat="31.6683900" lon="34.9599500">
<ele>312.500000</ele>
<time>2023-11-22T08:55:40.312Z</time>
</trkpt>
<trkpt lat="31.6683900" lon="34.9599500">
<ele>312.500000</ele>
<time>2023-11-22T08:55:40.312Z</time>
</trkpt>
<trkpt lat="31.6685100" lon="34.9597700">
<ele>312.669983</ele>
<time>2023-11-22T08:55:40.312Z</time>
</trkpt>
<trkpt lat="31.6685100" lon="34.9597700">
<ele>312.669983</ele>
<time>2023-11-22T08:55:40.312Z</time>
</trkpt>
<trkpt lat="31.6686700" lon="34.9596100">
<ele>314.779999</ele>
<time>2023-11-22T08:55:40.312Z</time>
</trkpt>
<trkpt lat="31.6686700" lon="34.9596100">
<ele>314.779999</ele>
<time>2023-11-22T08:55:40.312Z</time>
</trkpt>
<trkpt lat="31.6688200" lon="34.9593200">
<ele>316.360016</ele>
<time>2023-11-22T08:55:40.312Z</time>
</trkpt>
<trkpt lat="31.6688200" lon="34.9593200">
<ele>316.360016</ele>
<time>2023-11-22T08:55:40.312Z</time>
</trkpt>
<trkpt lat="31.6688700" lon="34.9592700">
<ele>316.110016</ele>
<time>2023-11-22T08:55:40.312Z</time>
</trkpt>
<trkpt lat="31.6688700" lon="34.9592700">
<ele>316.110016</ele>
<time>2023-11-22T08:55:40.312Z</time>
</trkpt>
<trkpt lat="31.6689900" lon="34.9591800">
<ele>316.679993</ele>
<time>2023-11-22T08:55:40.312Z</time>
</trkpt>
<trkpt lat="31.6689900" lon="34.9591800">
<ele>316.679993</ele>
<time>2023-11-22T08:55:40.313Z</time>
</trkpt>
<trkpt lat="31.6691400" lon="34.9592000">
<ele>317.480011</ele>
<time>2023-11-22T08:55:40.313Z</time>
</trkpt>
<trkpt lat="31.6691400" lon="34.9592000">
<ele>317.480011</ele>
<time>2023-11-22T08:55:40.313Z</time>
</trkpt>
<trkpt lat="31.6692400" lon="34.9591500">
<ele>317.069977</ele>
<time>2023-11-22T08:55:40.313Z</time>
</trkpt>
<trkpt lat="31.6692400" lon="34.9591500">
<ele>317.069977</ele>
<time>2023-11-22T08:55:40.313Z</time>
</trkpt>
<trkpt lat="31.6694100" lon="34.9590100">
<ele>317.040009</ele>
<time>2023-11-22T08:55:40.313Z</time>
</trkpt>
<trkpt lat="31.6694100" lon="34.9590100">
<ele>317.040009</ele>
<time>2023-11-22T08:55:40.313Z</time>
</trkpt>
<trkpt lat="31.6695800" lon="34.9589300">
<ele>314.920013</ele>
<time>2023-11-22T08:55:40.313Z</time>
</trkpt>
<trkpt lat="31.6695800" lon="34.9589300">
<ele>314.920013</ele>
<time>2023-11-22T08:55:40.313Z</time>
</trkpt>
<trkpt lat="31.6696700" lon="34.9588100">
<ele>314.059998</ele>
<time>2023-11-22T08:55:40.313Z</time>
</trkpt>
<trkpt lat="31.6696700" lon="34.9588100">
<ele>314.059998</ele>
<time>2023-11-22T08:55:40.313Z</time>
</trkpt>
<trkpt lat="31.6697400" lon="34.9587700">
<ele>313.059998</ele>
<time>2023-11-22T08:55:40.313Z</time>
</trkpt>
<trkpt lat="31.6697400" lon="34.9587700">
<ele>313.059998</ele>
<time>2023-11-22T08:55:40.313Z</time>
</trkpt>
<trkpt lat="31.6698800" lon="34.9587600">
<ele>311.380005</ele>
<time>2023-11-22T08:55:40.313Z</time>
</trkpt>
<trkpt lat="31.6698800" lon="34.9587600">
<ele>311.380005</ele>
<time>2023-11-22T08:55:40.313Z</time>
</trkpt>
<trkpt lat="31.6700200" lon="34.9587800">
<ele>309.179993</ele>
<time>2023-11-22T08:55:40.313Z</time>
</trkpt>
<trkpt lat="31.6700200" lon="34.9587800">
<ele>309.179993</ele>
<time>2023-11-22T08:55:40.313Z</time>
</trkpt>
<trkpt lat="31.6701000" lon="34.9587500">
<ele>308.200012</ele>
<time>2023-11-22T08:55:40.314Z</time>
</trkpt>
<trkpt lat="31.6701000" lon="34.9587500">
<ele>308.200012</ele>
<time>2023-11-22T08:55:40.314Z</time>
</trkpt>
<trkpt lat="31.6701900" lon="34.9587000">
<ele>307.790009</ele>
<time>2023-11-22T08:55:40.314Z</time>
</trkpt>
<trkpt lat="31.6701900" lon="34.9587000">
<ele>307.790009</ele>
<time>2023-11-22T08:55:40.314Z</time>
</trkpt>
<trkpt lat="31.6702900" lon="34.9585700">
<ele>310.070007</ele>
<time>2023-11-22T08:55:40.314Z</time>
</trkpt>
<trkpt lat="31.6702900" lon="34.9585700">
<ele>310.070007</ele>
<time>2023-11-22T08:55:40.314Z</time>
</trkpt>
<trkpt lat="31.6704400" lon="34.9584700">
<ele>310.359985</ele>
<time>2023-11-22T08:55:40.314Z</time>
</trkpt>
<trkpt lat="31.6704400" lon="34.9584700">
<ele>310.359985</ele>
<time>2023-11-22T08:55:40.314Z</time>
</trkpt>
<trkpt lat="31.6705600" lon="34.9583000">
<ele>313.340027</ele>
<time>2023-11-22T08:55:40.314Z</time>
</trkpt>
<trkpt lat="31.6705600" lon="34.9583000">
<ele>313.340027</ele>
<time>2023-11-22T08:55:40.314Z</time>
</trkpt>
<trkpt lat="31.6707100" lon="34.9582200">
<ele>310.540009</ele>
<time>2023-11-22T08:55:40.314Z</time>
</trkpt>
<trkpt lat="31.6707100" lon="34.9582200">
<ele>310.540009</ele>
<time>2023-11-22T08:55:40.314Z</time>
</trkpt>
<trkpt lat="31.6708100" lon="34.9580400">
<ele>312.690002</ele>
<time>2023-11-22T08:55:40.314Z</time>
</trkpt>
<trkpt lat="31.6708100" lon="34.9580400">
<ele>312.690002</ele>
<time>2023-11-22T08:55:40.314Z</time>
</trkpt>
<trkpt lat="31.6709800" lon="34.9577800">
<ele>313.259979</ele>
<time>2023-11-22T08:55:40.314Z</time>
</trkpt>
<trkpt lat="31.6709800" lon="34.9577800">
<ele>313.259979</ele>
<time>2023-11-22T08:55:40.314Z</time>
</trkpt>
<trkpt lat="31.6712400" lon="34.9575000">
<ele>308.820007</ele>
<time>2023-11-22T08:55:40.314Z</time>
</trkpt>
<trkpt lat="31.6712400" lon="34.9575000">
<ele>308.820007</ele>
<time>2023-11-22T08:55:40.314Z</time>
</trkpt>
<trkpt lat="31.6713800" lon="34.9573700">
<ele>307.489990</ele>
<time>2023-11-22T08:55:40.314Z</time>
</trkpt>
<trkpt lat="31.6713800" lon="34.9573700">
<ele>307.489990</ele>
<time>2023-11-22T08:55:40.315Z</time>
</trkpt>
<trkpt lat="31.6715500" lon="34.9571500">
<ele>307.529999</ele>
<time>2023-11-22T08:55:40.315Z</time>
</trkpt>
<trkpt lat="31.6715500" lon="34.9571500">
<ele>307.529999</ele>
<time>2023-11-22T08:55:40.315Z</time>
</trkpt>
<trkpt lat="31.6716300" lon="34.9570000">
<ele>309.269989</ele>
<time>2023-11-22T08:55:40.315Z</time>
</trkpt>
<trkpt lat="31.6716300" lon="34.9570000">
<ele>309.269989</ele>
<time>2023-11-22T08:55:40.315Z</time>
</trkpt>
<trkpt lat="31.6716600" lon="34.9568900">
<ele>310.529999</ele>
<time>2023-11-22T08:55:40.315Z</time>
</trkpt>
<trkpt lat="31.6716600" lon="34.9568900">
<ele>310.529999</ele>
<time>2023-11-22T08:55:40.315Z</time>
</trkpt>
<trkpt lat="31.6716300" lon="34.9566700">
<ele>312.510010</ele>
<time>2023-11-22T08:55:40.315Z</time>
</trkpt>
<trkpt lat="31.6716300" lon="34.9566700">
<ele>312.510010</ele>
<time>2023-11-22T08:55:40.315Z</time>
</trkpt>
<trkpt lat="31.6714600" lon="34.9564300">
<ele>313.049988</ele>
<time>2023-11-22T08:55:40.315Z</time>
</trkpt>
<trkpt lat="31.6714600" lon="34.9564300">
<ele>313.049988</ele>
<time>2023-11-22T08:55:40.315Z</time>
</trkpt>
<trkpt lat="31.6714400" lon="34.9562900">
<ele>312.339996</ele>
<time>2023-11-22T08:55:40.315Z</time>
</trkpt>
<trkpt lat="31.6714400" lon="34.9562900">
<ele>312.339996</ele>
<time>2023-11-22T08:55:40.315Z</time>
</trkpt>
<trkpt lat="31.6714700" lon="34.9561600">
<ele>311.270020</ele>
<time>2023-11-22T08:55:40.315Z</time>
</trkpt>
<trkpt lat="31.6714700" lon="34.9561600">
<ele>311.270020</ele>
<time>2023-11-22T08:55:40.315Z</time>
</trkpt>
<trkpt lat="31.6715300" lon="34.9559800">
<ele>311.470001</ele>
<time>2023-11-22T08:55:40.315Z</time>
</trkpt>
<trkpt lat="31.6715300" lon="34.9559800">
<ele>311.470001</ele>
<time>2023-11-22T08:55:40.315Z</time>
</trkpt>
<trkpt lat="31.6714700" lon="34.9557900">
<ele>311.779999</ele>
<time>2023-11-22T08:55:40.315Z</time>
</trkpt>
<trkpt lat="31.6714700" lon="34.9557900">
<ele>311.779999</ele>
<time>2023-11-22T08:55:40.316Z</time>
</trkpt>
<trkpt lat="31.6714800" lon="34.9553900">
<ele>310.059998</ele>
<time>2023-11-22T08:55:40.316Z</time>
</trkpt>
<trkpt lat="31.6714800" lon="34.9553900">
<ele>310.059998</ele>
<time>2023-11-22T08:55:40.316Z</time>
</trkpt>
<trkpt lat="31.6713800" lon="34.9550200">
<ele>310.579987</ele>
<time>2023-11-22T08:55:40.316Z</time>
</trkpt>
<trkpt lat="31.6713800" lon="34.9550200">
<ele>310.579987</ele>
<time>2023-11-22T08:55:40.316Z</time>
</trkpt>
<trkpt lat="31.6713800" lon="34.9547900">
<ele>308.440002</ele>
<time>2023-11-22T08:55:40.316Z</time>
</trkpt>
<trkpt lat="31.6713800" lon="34.9547900">
<ele>308.440002</ele>
<time>2023-11-22T08:55:40.316Z</time>
</trkpt>
<trkpt lat="31.6714200" lon="34.9545500">
<ele>306.250000</ele>
<time>2023-11-22T08:55:40.316Z</time>
</trkpt>
<trkpt lat="31.6714200" lon="34.9545500">
<ele>306.250000</ele>
<time>2023-11-22T08:55:40.316Z</time>
</trkpt>
<trkpt lat="31.6714300" lon="34.9543900">
<ele>304.820007</ele>
<time>2023-11-22T08:55:40.316Z</time>
</trkpt>
<trkpt lat="31.6714300" lon="34.9543900">
<ele>304.820007</ele>
<time>2023-11-22T08:55:40.316Z</time>
</trkpt>
<trkpt lat="31.6715400" lon="34.9541400">
<ele>306.609985</ele>
<time>2023-11-22T08:55:40.316Z</time>
</trkpt>
<trkpt lat="31.6715400" lon="34.9541400">
<ele>306.609985</ele>
<time>2023-11-22T08:55:40.316Z</time>
</trkpt>
<trkpt lat="31.6716900" lon="34.9539700">
<ele>309.720001</ele>
<time>2023-11-22T08:55:40.316Z</time>
</trkpt>
<trkpt lat="31.6716900" lon="34.9539700">
<ele>309.720001</ele>
<time>2023-11-22T08:55:40.316Z</time>
</trkpt>
<trkpt lat="31.6718600" lon="34.9537600">
<ele>312.029999</ele>
<time>2023-11-22T08:55:40.316Z</time>
</trkpt>
<trkpt lat="31.6718600" lon="34.9537600">
<ele>312.029999</ele>
<time>2023-11-22T08:55:40.316Z</time>
</trkpt>
<trkpt lat="31.6720000" lon="34.9535600">
<ele>310.419983</ele>
<time>2023-11-22T08:55:40.317Z</time>
</trkpt>
<trkpt lat="31.6720000" lon="34.9535600">
<ele>310.419983</ele>
<time>2023-11-22T08:55:40.317Z</time>
</trkpt>
<trkpt lat="31.6721700" lon="34.9534000">
<ele>306.390015</ele>
<time>2023-11-22T08:55:40.317Z</time>
</trkpt>
<trkpt lat="31.6721700" lon="34.9534000">
<ele>306.390015</ele>
<time>2023-11-22T08:55:40.317Z</time>
</trkpt>
<trkpt lat="31.6722700" lon="34.9532700">
<ele>303.630005</ele>
<time>2023-11-22T08:55:40.317Z</time>
</trkpt>
<trkpt lat="31.6722700" lon="34.9532700">
<ele>303.630005</ele>
<time>2023-11-22T08:55:40.317Z</time>
</trkpt>
<trkpt lat="31.6723900" lon="34.9532000">
<ele>302.119995</ele>
<time>2023-11-22T08:55:40.317Z</time>
</trkpt>
<trkpt lat="31.6723900" lon="34.9532000">
<ele>302.119995</ele>
<time>2023-11-22T08:55:40.317Z</time>
</trkpt>
<trkpt lat="31.6725100" lon="34.9531700">
<ele>301.559998</ele>
<time>2023-11-22T08:55:40.317Z</time>
</trkpt>
<trkpt lat="31.6725100" lon="34.9531700">
<ele>301.559998</ele>
<time>2023-11-22T08:55:40.317Z</time>
</trkpt>
<trkpt lat="31.6727400" lon="34.9531800">
<ele>303.800018</ele>
<time>2023-11-22T08:55:40.317Z</time>
</trkpt>
<trkpt lat="31.6727400" lon="34.9531800">
<ele>303.800018</ele>
<time>2023-11-22T08:55:40.317Z</time>
</trkpt>
<trkpt lat="31.6729500" lon="34.9532300">
<ele>304.230011</ele>
<time>2023-11-22T08:55:40.317Z</time>
</trkpt>
<trkpt lat="31.6729500" lon="34.9532300">
<ele>304.230011</ele>
<time>2023-11-22T08:55:40.317Z</time>
</trkpt>
<trkpt lat="31.6730500" lon="34.9532900">
<ele>304.429993</ele>
<time>2023-11-22T08:55:40.317Z</time>
</trkpt>
<trkpt lat="31.6730500" lon="34.9532900">
<ele>304.429993</ele>
<time>2023-11-22T08:55:40.318Z</time>
</trkpt>
<trkpt lat="31.6732000" lon="34.9534300">
<ele>306.059998</ele>
<time>2023-11-22T08:55:40.318Z</time>
</trkpt>
<trkpt lat="31.6732000" lon="34.9534300">
<ele>306.059998</ele>
<time>2023-11-22T08:55:40.318Z</time>
</trkpt>
<trkpt lat="31.6733600" lon="34.9535000">
<ele>307.470001</ele>
<time>2023-11-22T08:55:40.318Z</time>
</trkpt>
<trkpt lat="31.6733600" lon="34.9535000">
<ele>307.470001</ele>
<time>2023-11-22T08:55:40.318Z</time>
</trkpt>
<trkpt lat="31.6735700" lon="34.9536600">
<ele>312.760010</ele>
<time>2023-11-22T08:55:40.318Z</time>
</trkpt>
<trkpt lat="31.6735700" lon="34.9536600">
<ele>312.760010</ele>
<time>2023-11-22T08:55:40.318Z</time>
</trkpt>
<trkpt lat="31.6737200" lon="34.9538500">
<ele>319.389984</ele>
<time>2023-11-22T08:55:40.318Z</time>
</trkpt>
<trkpt lat="31.6737200" lon="34.9538500">
<ele>319.389984</ele>
<time>2023-11-22T08:55:40.318Z</time>
</trkpt>
<trkpt lat="31.6742700" lon="34.9538000">
<ele>312.390015</ele>
<time>2023-11-22T08:55:40.318Z</time>
</trkpt>
<trkpt lat="31.6742700" lon="34.9538000">
<ele>312.390015</ele>
<time>2023-11-22T08:55:40.318Z</time>
</trkpt>
<trkpt lat="31.6744700" lon="34.9537300">
<ele>310.760010</ele>
<time>2023-11-22T08:55:40.318Z</time>
</trkpt>
<trkpt lat="31.6744700" lon="34.9537300">
<ele>310.760010</ele>
<time>2023-11-22T08:55:40.318Z</time>
</trkpt>
<trkpt lat="31.6747100" lon="34.9535600">
<ele>306.880005</ele>
<time>2023-11-22T08:55:40.318Z</time>
</trkpt>
<trkpt lat="31.6747100" lon="34.9535600">
<ele>306.880005</ele>
<time>2023-11-22T08:55:40.318Z</time>
</trkpt>
<trkpt lat="31.6747900" lon="34.9534500">
<ele>307.010010</ele>
<time>2023-11-22T08:55:40.318Z</time>
</trkpt>
<trkpt lat="31.6747900" lon="34.9534500">
<ele>307.010010</ele>
<time>2023-11-22T08:55:40.318Z</time>
</trkpt>
<trkpt lat="31.6747900" lon="34.9531800">
<ele>310.489990</ele>
<time>2023-11-22T08:55:40.318Z</time>
</trkpt>
<trkpt lat="31.6747900" lon="34.9531800">
<ele>310.489990</ele>
<time>2023-11-22T08:55:40.319Z</time>
</trkpt>
<trkpt lat="31.6748500" lon="34.9531300">
<ele>309.929993</ele>
<time>2023-11-22T08:55:40.319Z</time>
</trkpt>
<trkpt lat="31.6748500" lon="34.9531300">
<ele>309.929993</ele>
<time>2023-11-22T08:55:40.319Z</time>
</trkpt>
<trkpt lat="31.6750900" lon="34.9530300">
<ele>306.889984</ele>
<time>2023-11-22T08:55:40.319Z</time>
</trkpt>
<trkpt lat="31.6750900" lon="34.9530300">
<ele>306.889984</ele>
<time>2023-11-22T08:55:40.319Z</time>
</trkpt>
<trkpt lat="31.6753300" lon="34.9528500">
<ele>308.410004</ele>
<time>2023-11-22T08:55:40.319Z</time>
</trkpt>
<trkpt lat="31.6753300" lon="34.9528500">
<ele>308.410004</ele>
<time>2023-11-22T08:55:40.319Z</time>
</trkpt>
<trkpt lat="31.6753600" lon="34.9527600">
<ele>309.510010</ele>
<time>2023-11-22T08:55:40.319Z</time>
</trkpt>
<trkpt lat="31.6753600" lon="34.9527600">
<ele>309.510010</ele>
<time>2023-11-22T08:55:40.319Z</time>
</trkpt>
<trkpt lat="31.6753700" lon="34.9526900">
<ele>310.380005</ele>
<time>2023-11-22T08:55:40.319Z</time>
</trkpt>
<trkpt lat="31.6753700" lon="34.9526900">
<ele>310.380005</ele>
<time>2023-11-22T08:55:40.319Z</time>
</trkpt>
<trkpt lat="31.6753000" lon="34.9525300">
<ele>311.830017</ele>
<time>2023-11-22T08:55:40.319Z</time>
</trkpt>
<trkpt lat="31.6753000" lon="34.9525300">
<ele>311.830017</ele>
<time>2023-11-22T08:55:40.319Z</time>
</trkpt>
<trkpt lat="31.6752600" lon="34.9523800">
<ele>311.220001</ele>
<time>2023-11-22T08:55:40.319Z</time>
</trkpt>
<trkpt lat="31.6752600" lon="34.9523800">
<ele>311.220001</ele>
<time>2023-11-22T08:55:40.319Z</time>
</trkpt>
<trkpt lat="31.6753400" lon="34.9521300">
<ele>310.670013</ele>
<time>2023-11-22T08:55:40.319Z</time>
</trkpt>
<trkpt lat="31.6753400" lon="34.9521300">
<ele>310.670013</ele>
<time>2023-11-22T08:55:40.319Z</time>
</trkpt>
<trkpt lat="31.6753700" lon="34.9520300">
<ele>310.639984</ele>
<time>2023-11-22T08:55:40.320Z</time>
</trkpt>
<trkpt lat="31.6753700" lon="34.9520300">
<ele>310.639984</ele>
<time>2023-11-22T08:55:40.320Z</time>
</trkpt>
<trkpt lat="31.6753000" lon="34.9519300">
<ele>309.970001</ele>
<time>2023-11-22T08:55:40.320Z</time>
</trkpt>
<trkpt lat="31.6753000" lon="34.9519300">
<ele>309.970001</ele>
<time>2023-11-22T08:55:40.320Z</time>
</trkpt>
<trkpt lat="31.6753000" lon="34.9518500">
<ele>309.350006</ele>
<time>2023-11-22T08:55:40.320Z</time>
</trkpt>
<trkpt lat="31.6753000" lon="34.9518500">
<ele>309.350006</ele>
<time>2023-11-22T08:55:40.320Z</time>
</trkpt>
<trkpt lat="31.6754600" lon="34.9517100">
<ele>307.859985</ele>
<time>2023-11-22T08:55:40.320Z</time>
</trkpt>
<trkpt lat="31.6754600" lon="34.9517100">
<ele>307.859985</ele>
<time>2023-11-22T08:55:40.320Z</time>
</trkpt>
<trkpt lat="31.6755200" lon="34.9516500">
<ele>306.839996</ele>
<time>2023-11-22T08:55:40.320Z</time>
</trkpt>
<trkpt lat="31.6755200" lon="34.9516500">
<ele>306.839996</ele>
<time>2023-11-22T08:55:40.320Z</time>
</trkpt>
<trkpt lat="31.6755600" lon="34.9514900">
<ele>303.800018</ele>
<time>2023-11-22T08:55:40.320Z</time>
</trkpt>
<trkpt lat="31.6755600" lon="34.9514900">
<ele>303.800018</ele>
<time>2023-11-22T08:55:40.320Z</time>
</trkpt>
<trkpt lat="31.6755700" lon="34.9513600">
<ele>301.360016</ele>
<time>2023-11-22T08:55:40.320Z</time>
</trkpt>
<trkpt lat="31.6755700" lon="34.9513600">
<ele>301.360016</ele>
<time>2023-11-22T08:55:40.320Z</time>
</trkpt>
<trkpt lat="31.6756100" lon="34.9512800">
<ele>299.910004</ele>
<time>2023-11-22T08:55:40.320Z</time>
</trkpt>
<trkpt lat="31.6756100" lon="34.9512800">
<ele>299.910004</ele>
<time>2023-11-22T08:55:40.320Z</time>
</trkpt>
<trkpt lat="31.6756600" lon="34.9512400">
<ele>299.619995</ele>
<time>2023-11-22T08:55:40.320Z</time>
</trkpt>
<trkpt lat="31.6756600" lon="34.9512400">
<ele>299.619995</ele>
<time>2023-11-22T08:55:40.321Z</time>
</trkpt>
<trkpt lat="31.6758400" lon="34.9512100">
<ele>301.049988</ele>
<time>2023-11-22T08:55:40.321Z</time>
</trkpt>
<trkpt lat="31.6758400" lon="34.9512100">
<ele>301.049988</ele>
<time>2023-11-22T08:55:40.321Z</time>
</trkpt>
<trkpt lat="31.6759100" lon="34.9511700">
<ele>301.709991</ele>
<time>2023-11-22T08:55:40.321Z</time>
</trkpt>
<trkpt lat="31.6759100" lon="34.9511700">
<ele>301.709991</ele>
<time>2023-11-22T08:55:40.321Z</time>
</trkpt>
<trkpt lat="31.6760100" lon="34.9511400">
<ele>302.779999</ele>
<time>2023-11-22T08:55:40.321Z</time>
</trkpt>
<trkpt lat="31.6760100" lon="34.9511400">
<ele>302.779999</ele>
<time>2023-11-22T08:55:40.321Z</time>
</trkpt>
<trkpt lat="31.6762300" lon="34.9510000">
<ele>306.369995</ele>
<time>2023-11-22T08:55:40.321Z</time>
</trkpt>
<trkpt lat="31.6762300" lon="34.9510000">
<ele>306.369995</ele>
<time>2023-11-22T08:55:40.321Z</time>
</trkpt>
<trkpt lat="31.6762700" lon="34.9509400">
<ele>307.119995</ele>
<time>2023-11-22T08:55:40.321Z</time>
</trkpt>
<trkpt lat="31.6762700" lon="34.9509400">
<ele>307.119995</ele>
<time>2023-11-22T08:55:40.321Z</time>
</trkpt>
<trkpt lat="31.6763200" lon="34.9507600">
<ele>306.880005</ele>
<time>2023-11-22T08:55:40.321Z</time>
</trkpt>
<trkpt lat="31.6763200" lon="34.9507600">
<ele>306.880005</ele>
<time>2023-11-22T08:55:40.321Z</time>
</trkpt>
<trkpt lat="31.6763200" lon="34.9506900">
<ele>305.809998</ele>
<time>2023-11-22T08:55:40.321Z</time>
</trkpt>
<trkpt lat="31.6763200" lon="34.9506900">
<ele>305.809998</ele>
<time>2023-11-22T08:55:40.321Z</time>
</trkpt>
<trkpt lat="31.6762900" lon="34.9506300">
<ele>304.700012</ele>
<time>2023-11-22T08:55:40.321Z</time>
</trkpt>
<trkpt lat="31.6762900" lon="34.9506300">
<ele>304.700012</ele>
<time>2023-11-22T08:55:40.321Z</time>
</trkpt>
<trkpt lat="31.6761400" lon="34.9505900">
<ele>303.390015</ele>
<time>2023-11-22T08:55:40.321Z</time>
</trkpt>
<trkpt lat="31.6761400" lon="34.9505900">
<ele>303.390015</ele>
<time>2023-11-22T08:55:40.322Z</time>
</trkpt>
<trkpt lat="31.6760700" lon="34.9505500">
<ele>301.490021</ele>
<time>2023-11-22T08:55:40.322Z</time>
</trkpt>
<trkpt lat="31.6760700" lon="34.9505500">
<ele>301.490021</ele>
<time>2023-11-22T08:55:40.322Z</time>
</trkpt>
<trkpt lat="31.6760200" lon="34.9503600">
<ele>294.170013</ele>
<time>2023-11-22T08:55:40.322Z</time>
</trkpt>
<trkpt lat="31.6760200" lon="34.9503600">
<ele>294.170013</ele>
<time>2023-11-22T08:55:40.322Z</time>
</trkpt>
<trkpt lat="31.6760000" lon="34.9503300">
<ele>292.739990</ele>
<time>2023-11-22T08:55:40.322Z</time>
</trkpt>
<trkpt lat="31.6760000" lon="34.9503300">
<ele>292.739990</ele>
<time>2023-11-22T08:55:40.322Z</time>
</trkpt>
<trkpt lat="31.6759100" lon="34.9503500">
<ele>290.899994</ele>
<time>2023-11-22T08:55:40.322Z</time>
</trkpt>
<trkpt lat="31.6759100" lon="34.9503500">
<ele>290.899994</ele>
<time>2023-11-22T08:55:40.322Z</time>
</trkpt>
<trkpt lat="31.6758400" lon="34.9503900">
<ele>290.020020</ele>
<time>2023-11-22T08:55:40.322Z</time>
</trkpt>
<trkpt lat="31.6758400" lon="34.9503900">
<ele>290.020020</ele>
<time>2023-11-22T08:55:40.322Z</time>
</trkpt>
<trkpt lat="31.6757700" lon="34.9504900">
<ele>292.510010</ele>
<time>2023-11-22T08:55:40.322Z</time>
</trkpt>
<trkpt lat="31.6757700" lon="34.9504900">
<ele>292.510010</ele>
<time>2023-11-22T08:55:40.322Z</time>
</trkpt>
<trkpt lat="31.6757000" lon="34.9503600">
<ele>290.089996</ele>
<time>2023-11-22T08:55:40.322Z</time>
</trkpt>
<trkpt lat="31.6757000" lon="34.9503600">
<ele>290.089996</ele>
<time>2023-11-22T08:55:40.322Z</time>
</trkpt>
<trkpt lat="31.6756200" lon="34.9502900">
<ele>289.509979</ele>
<time>2023-11-22T08:55:40.322Z</time>
</trkpt>
<trkpt lat="31.6756200" lon="34.9502900">
<ele>289.509979</ele>
<time>2023-11-22T08:55:40.322Z</time>
</trkpt>
<trkpt lat="31.6755700" lon="34.9502800">
<ele>289.880005</ele>
<time>2023-11-22T08:55:40.322Z</time>
</trkpt>
<trkpt lat="31.6755700" lon="34.9502800">
<ele>289.880005</ele>
<time>2023-11-22T08:55:40.323Z</time>
</trkpt>
<trkpt lat="31.6754600" lon="34.9504100">
<ele>294.130005</ele>
<time>2023-11-22T08:55:40.323Z</time>
</trkpt>
<trkpt lat="31.6754600" lon="34.9504100">
<ele>294.130005</ele>
<time>2023-11-22T08:55:40.323Z</time>
</trkpt>
<trkpt lat="31.6754200" lon="34.9504500">
<ele>295.709991</ele>
<time>2023-11-22T08:55:40.323Z</time>
</trkpt>
<trkpt lat="31.6754200" lon="34.9504500">
<ele>295.709991</ele>
<time>2023-11-22T08:55:40.323Z</time>
</trkpt>
<trkpt lat="31.6753200" lon="34.9503900">
<ele>297.049988</ele>
<time>2023-11-22T08:55:40.323Z</time>
</trkpt>
<trkpt lat="31.6753200" lon="34.9503900">
<ele>297.049988</ele>
<time>2023-11-22T08:55:40.323Z</time>
</trkpt>
<trkpt lat="31.6752800" lon="34.9502800">
<ele>295.990021</ele>
<time>2023-11-22T08:55:40.323Z</time>
</trkpt>
<trkpt lat="31.6752800" lon="34.9502800">
<ele>295.990021</ele>
<time>2023-11-22T08:55:40.323Z</time>
</trkpt>
<trkpt lat="31.6752900" lon="34.9502000">
<ele>294.589996</ele>
<time>2023-11-22T08:55:40.323Z</time>
</trkpt>
<trkpt lat="31.6752900" lon="34.9502000">
<ele>294.589996</ele>
<time>2023-11-22T08:55:40.323Z</time>
</trkpt>
<trkpt lat="31.6754000" lon="34.9501700">
<ele>291.470001</ele>
<time>2023-11-22T08:55:40.323Z</time>
</trkpt>
<trkpt lat="31.6754000" lon="34.9501700">
<ele>291.470001</ele>
<time>2023-11-22T08:55:40.323Z</time>
</trkpt>
<trkpt lat="31.6754600" lon="34.9501300">
<ele>289.239990</ele>
<time>2023-11-22T08:55:40.324Z</time>
</trkpt>
<trkpt lat="31.6754600" lon="34.9501300">
<ele>289.239990</ele>
<time>2023-11-22T08:55:40.324Z</time>
</trkpt>
<trkpt lat="31.6754800" lon="34.9500900">
<ele>287.940002</ele>
<time>2023-11-22T08:55:40.324Z</time>
</trkpt>
<trkpt lat="31.6754800" lon="34.9500900">
<ele>287.940002</ele>
<time>2023-11-22T08:55:40.324Z</time>
</trkpt>
<trkpt lat="31.6754000" lon="34.9498600">
<ele>286.059998</ele>
<time>2023-11-22T08:55:40.324Z</time>
</trkpt>
<trkpt lat="31.6754000" lon="34.9498600">
<ele>286.059998</ele>
<time>2023-11-22T08:55:40.324Z</time>
</trkpt>
<trkpt lat="31.6754000" lon="34.9497800">
<ele>284.679993</ele>
<time>2023-11-22T08:55:40.324Z</time>
</trkpt>
<trkpt lat="31.6754000" lon="34.9497800">
<ele>284.679993</ele>
<time>2023-11-22T08:55:40.324Z</time>
</trkpt>
<trkpt lat="31.6754400" lon="34.9497000">
<ele>283.130005</ele>
<time>2023-11-22T08:55:40.324Z</time>
</trkpt>
<trkpt lat="31.6754400" lon="34.9497000">
<ele>283.130005</ele>
<time>2023-11-22T08:55:40.324Z</time>
</trkpt>
<trkpt lat="31.6754800" lon="34.9496800">
<ele>282.619995</ele>
<time>2023-11-22T08:55:40.324Z</time>
</trkpt>
<trkpt lat="31.6754800" lon="34.9496800">
<ele>282.619995</ele>
<time>2023-11-22T08:55:40.324Z</time>
</trkpt>
<trkpt lat="31.6756500" lon="34.9496800">
<ele>281.119995</ele>
<time>2023-11-22T08:55:40.324Z</time>
</trkpt>
<trkpt lat="31.6756500" lon="34.9496800">
<ele>281.119995</ele>
<time>2023-11-22T08:55:40.324Z</time>
</trkpt>
<trkpt lat="31.6758000" lon="34.9497400">
<ele>280.420013</ele>
<time>2023-11-22T08:55:40.324Z</time>
</trkpt>
<trkpt lat="31.6758000" lon="34.9497400">
<ele>280.420013</ele>
<time>2023-11-22T08:55:40.324Z</time>
</trkpt>
<trkpt lat="31.6759000" lon="34.9497500">
<ele>280.830017</ele>
<time>2023-11-22T08:55:40.324Z</time>
</trkpt>
<trkpt lat="31.6759000" lon="34.9497500">
<ele>280.830017</ele>
<time>2023-11-22T08:55:40.324Z</time>
</trkpt>
<trkpt lat="31.6761000" lon="34.9496800">
<ele>281.470001</ele>
<time>2023-11-22T08:55:40.325Z</time>
</trkpt>
<trkpt lat="31.6761000" lon="34.9496800">
<ele>281.470001</ele>
<time>2023-11-22T08:55:40.325Z</time>
</trkpt>
<trkpt lat="31.6763200" lon="34.9496600">
<ele>284.920013</ele>
<time>2023-11-22T08:55:40.325Z</time>
</trkpt>
<trkpt lat="31.6763200" lon="34.9496600">
<ele>284.920013</ele>
<time>2023-11-22T08:55:40.325Z</time>
</trkpt>
<trkpt lat="31.6762200" lon="34.9495600">
<ele>281.980011</ele>
<time>2023-11-22T08:55:40.325Z</time>
</trkpt>
<trkpt lat="31.6762200" lon="34.9495600">
<ele>281.980011</ele>
<time>2023-11-22T08:55:40.325Z</time>
</trkpt>
<trkpt lat="31.6761300" lon="34.9494500">
<ele>279.329987</ele>
<time>2023-11-22T08:55:40.325Z</time>
</trkpt>
<trkpt lat="31.6761300" lon="34.9494500">
<ele>279.329987</ele>
<time>2023-11-22T08:55:40.325Z</time>
</trkpt>
<trkpt lat="31.6759200" lon="34.9492800">
<ele>276.940002</ele>
<time>2023-11-22T08:55:40.325Z</time>
</trkpt>
<trkpt lat="31.6759200" lon="34.9492800">
<ele>276.940002</ele>
<time>2023-11-22T08:55:40.325Z</time>
</trkpt>
<trkpt lat="31.6758000" lon="34.9491600">
<ele>276.669983</ele>
<time>2023-11-22T08:55:40.325Z</time>
</trkpt>
<trkpt lat="31.6758000" lon="34.9491600">
<ele>276.669983</ele>
<time>2023-11-22T08:55:40.325Z</time>
</trkpt>
<trkpt lat="31.6757000" lon="34.9490100">
<ele>277.750000</ele>
<time>2023-11-22T08:55:40.325Z</time>
</trkpt>
<trkpt lat="31.6757000" lon="34.9490100">
<ele>277.750000</ele>
<time>2023-11-22T08:55:40.325Z</time>
</trkpt>
<trkpt lat="31.6756900" lon="34.9489100">
<ele>277.250000</ele>
<time>2023-11-22T08:55:40.325Z</time>
</trkpt>
<trkpt lat="31.6756900" lon="34.9489100">
<ele>277.250000</ele>
<time>2023-11-22T08:55:40.325Z</time>
</trkpt>
<trkpt lat="31.6759300" lon="34.9489900">
<ele>274.289978</ele>
<time>2023-11-22T08:55:40.325Z</time>
</trkpt>
<trkpt lat="31.6759300" lon="34.9489900">
<ele>274.289978</ele>
<time>2023-11-22T08:55:40.325Z</time>
</trkpt>
<trkpt lat="31.6759700" lon="34.9489700">
<ele>273.889984</ele>
<time>2023-11-22T08:55:40.326Z</time>
</trkpt>
<trkpt lat="31.6759700" lon="34.9489700">
<ele>273.889984</ele>
<time>2023-11-22T08:55:40.326Z</time>
</trkpt>
<trkpt lat="31.6759600" lon="34.9488900">
<ele>273.100006</ele>
<time>2023-11-22T08:55:40.326Z</time>
</trkpt>
<trkpt lat="31.6759600" lon="34.9488900">
<ele>273.100006</ele>
<time>2023-11-22T08:55:40.326Z</time>
</trkpt>
<trkpt lat="31.6758600" lon="34.9486800">
<ele>270.049988</ele>
<time>2023-11-22T08:55:40.326Z</time>
</trkpt>
<trkpt lat="31.6758600" lon="34.9486800">
<ele>270.049988</ele>
<time>2023-11-22T08:55:40.326Z</time>
</trkpt>
<trkpt lat="31.6758800" lon="34.9486200">
<ele>268.820007</ele>
<time>2023-11-22T08:55:40.326Z</time>
</trkpt>
<trkpt lat="31.6758800" lon="34.9486200">
<ele>268.820007</ele>
<time>2023-11-22T08:55:40.326Z</time>
</trkpt>
<trkpt lat="31.6759400" lon="34.9486600">
<ele>269.109985</ele>
<time>2023-11-22T08:55:40.326Z</time>
</trkpt>
<trkpt lat="31.6759400" lon="34.9486600">
<ele>269.109985</ele>
<time>2023-11-22T08:55:40.326Z</time>
</trkpt>
<trkpt lat="31.6761600" lon="34.9487300">
<ele>269.140015</ele>
<time>2023-11-22T08:55:40.326Z</time>
</trkpt>
<trkpt lat="31.6761600" lon="34.9487300">
<ele>269.140015</ele>
<time>2023-11-22T08:55:40.326Z</time>
</trkpt>
<trkpt lat="31.6762500" lon="34.9487300">
<ele>269.140015</ele>
<time>2023-11-22T08:55:40.326Z</time>
</trkpt>
<trkpt lat="31.6762500" lon="34.9487300">
<ele>269.140015</ele>
<time>2023-11-22T08:55:40.326Z</time>
</trkpt>
<trkpt lat="31.6762400" lon="34.9486600">
<ele>267.880005</ele>
<time>2023-11-22T08:55:40.326Z</time>
</trkpt>
<trkpt lat="31.6762400" lon="34.9486600">
<ele>267.880005</ele>
<time>2023-11-22T08:55:40.326Z</time>
</trkpt>
<trkpt lat="31.6761900" lon="34.9486000">
<ele>266.779999</ele>
<time>2023-11-22T08:55:40.326Z</time>
</trkpt>
<trkpt lat="31.6761900" lon="34.9486000">
<ele>266.779999</ele>
<time>2023-11-22T08:55:40.327Z</time>
</trkpt>
<trkpt lat="31.6761300" lon="34.9484900">
<ele>264.440002</ele>
<time>2023-11-22T08:55:40.327Z</time>
</trkpt>
<trkpt lat="31.6761300" lon="34.9484900">
<ele>264.440002</ele>
<time>2023-11-22T08:55:40.327Z</time>
</trkpt>
<trkpt lat="31.6760900" lon="34.9483300">
<ele>261.179993</ele>
<time>2023-11-22T08:55:40.327Z</time>
</trkpt>
<trkpt lat="31.6760900" lon="34.9483300">
<ele>261.179993</ele>
<time>2023-11-22T08:55:40.327Z</time>
</trkpt>
<trkpt lat="31.6760100" lon="34.9475900">
<ele>258.320007</ele>
<time>2023-11-22T08:55:40.327Z</time>
</trkpt>
<trkpt lat="31.6760100" lon="34.9475900">
<ele>258.320007</ele>
<time>2023-11-22T08:55:40.327Z</time>
</trkpt>
<trkpt lat="31.6759300" lon="34.9474000">
<ele>260.149994</ele>
<time>2023-11-22T08:55:40.327Z</time>
</trkpt>
<trkpt lat="31.6759300" lon="34.9474000">
<ele>260.149994</ele>
<time>2023-11-22T08:55:40.327Z</time>
</trkpt>
<trkpt lat="31.6760700" lon="34.9472700">
<ele>260.660004</ele>
<time>2023-11-22T08:55:40.327Z</time>
</trkpt>
<trkpt lat="31.6760700" lon="34.9472700">
<ele>260.660004</ele>
<time>2023-11-22T08:55:40.327Z</time>
</trkpt>
<trkpt lat="31.6757000" lon="34.9467500">
<ele>257.579987</ele>
<time>2023-11-22T08:55:40.327Z</time>
</trkpt>
<trkpt lat="31.6757000" lon="34.9467500">
<ele>257.579987</ele>
<time>2023-11-22T08:55:40.327Z</time>
</trkpt>
<trkpt lat="31.6755400" lon="34.9465600">
<ele>254.580002</ele>
<time>2023-11-22T08:55:40.327Z</time>
</trkpt>
<trkpt lat="31.6755400" lon="34.9465600">
<ele>254.580002</ele>
<time>2023-11-22T08:55:40.327Z</time>
</trkpt>
<trkpt lat="31.6757600" lon="34.9463700">
<ele>249.540009</ele>
<time>2023-11-22T08:55:40.327Z</time>
</trkpt>
<trkpt lat="31.6757600" lon="34.9463700">
<ele>249.540009</ele>
<time>2023-11-22T08:55:40.327Z</time>
</trkpt>
<trkpt lat="31.6760400" lon="34.9461300">
<ele>245.269989</ele>
<time>2023-11-22T08:55:40.327Z</time>
</trkpt>
<trkpt lat="31.6760400" lon="34.9461300">
<ele>245.269989</ele>
<time>2023-11-22T08:55:40.328Z</time>
</trkpt>
<trkpt lat="31.6761300" lon="34.9460400">
<ele>244.980011</ele>
<time>2023-11-22T08:55:40.328Z</time>
</trkpt>
<trkpt lat="31.6761300" lon="34.9460400">
<ele>244.980011</ele>
<time>2023-11-22T08:55:40.328Z</time>
</trkpt>
<trkpt lat="31.6762100" lon="34.9459000">
<ele>245.849991</ele>
<time>2023-11-22T08:55:40.328Z</time>
</trkpt>
<trkpt lat="31.6762100" lon="34.9459000">
<ele>245.849991</ele>
<time>2023-11-22T08:55:40.328Z</time>
</trkpt>
<trkpt lat="31.6762500" lon="34.9457900">
<ele>246.809998</ele>
<time>2023-11-22T08:55:40.328Z</time>
</trkpt>
<trkpt lat="31.6762500" lon="34.9457900">
<ele>246.809998</ele>
<time>2023-11-22T08:55:40.328Z</time>
</trkpt>
<trkpt lat="31.6761800" lon="34.9451100">
<ele>248.889999</ele>
<time>2023-11-22T08:55:40.328Z</time>
</trkpt>
<trkpt lat="31.6761800" lon="34.9451100">
<ele>248.889999</ele>
<time>2023-11-22T08:55:40.328Z</time>
</trkpt>
<trkpt lat="31.6762200" lon="34.9445400">
<ele>251.440002</ele>
<time>2023-11-22T08:55:40.328Z</time>
</trkpt>
<trkpt lat="31.6762200" lon="34.9445400">
<ele>251.440002</ele>
<time>2023-11-22T08:55:40.328Z</time>
</trkpt>
<trkpt lat="31.6762700" lon="34.9440000">
<ele>249.690002</ele>
<time>2023-11-22T08:55:40.328Z</time>
</trkpt>
<trkpt lat="31.6763300" lon="34.9434700">
<ele>250.470001</ele>
<time>2023-11-22T08:55:40.328Z</time>
</trkpt>
<trkpt lat="31.6763800" lon="34.9429300">
<ele>249.919998</ele>
<time>2023-11-22T08:55:40.328Z</time>
</trkpt>
<trkpt lat="31.6763800" lon="34.9429300">
<ele>249.919998</ele>
<time>2023-11-22T08:55:40.328Z</time>
</trkpt>
<trkpt lat="31.6763600" lon="34.9426500">
<ele>251.429993</ele>
<time>2023-11-22T08:55:40.328Z</time>
</trkpt>
<trkpt lat="31.6763600" lon="34.9426500">
<ele>251.429993</ele>
<time>2023-11-22T08:55:40.328Z</time>
</trkpt>
<trkpt lat="31.6762700" lon="34.9424200">
<ele>253.300003</ele>
<time>2023-11-22T08:55:40.329Z</time>
</trkpt>
<trkpt lat="31.6762700" lon="34.9424200">
<ele>253.300003</ele>
<time>2023-11-22T08:55:40.329Z</time>
</trkpt>
<trkpt lat="31.6763400" lon="34.9422700">
<ele>257.260010</ele>
<time>2023-11-22T08:55:40.329Z</time>
</trkpt>
<trkpt lat="31.6763400" lon="34.9422700">
<ele>257.260010</ele>
<time>2023-11-22T08:55:40.329Z</time>
</trkpt>
<trkpt lat="31.6763300" lon="34.9422100">
<ele>258.000000</ele>
<time>2023-11-22T08:55:40.329Z</time>
</trkpt>
<trkpt lat="31.6763300" lon="34.9422100">
<ele>258.000000</ele>
<time>2023-11-22T08:55:40.329Z</time>
</trkpt>
<trkpt lat="31.6761500" lon="34.9417200">
<ele>258.000000</ele>
<time>2023-11-22T08:55:40.329Z</time>
</trkpt>
<trkpt lat="31.6759700" lon="34.9412200">
<ele>259.799988</ele>
<time>2023-11-22T08:55:40.329Z</time>
</trkpt>
<trkpt lat="31.6759700" lon="34.9412200">
<ele>259.799988</ele>
<time>2023-11-22T08:55:40.329Z</time>
</trkpt>
<trkpt lat="31.6756600" lon="34.9406600">
<ele>265.869995</ele>
<time>2023-11-22T08:55:40.329Z</time>
</trkpt>
<trkpt lat="31.6756600" lon="34.9406600">
<ele>265.869995</ele>
<time>2023-11-22T08:55:40.329Z</time>
</trkpt>
<trkpt lat="31.6754200" lon="34.9403600">
<ele>265.660004</ele>
<time>2023-11-22T08:55:40.329Z</time>
</trkpt>
<trkpt lat="31.6754200" lon="34.9403600">
<ele>265.660004</ele>
<time>2023-11-22T08:55:40.329Z</time>
</trkpt>
<trkpt lat="31.6752400" lon="34.9402000">
<ele>264.639984</ele>
<time>2023-11-22T08:55:40.329Z</time>
</trkpt>
<trkpt lat="31.6752400" lon="34.9402000">
<ele>264.639984</ele>
<time>2023-11-22T08:55:40.329Z</time>
</trkpt>
<trkpt lat="31.6752400" lon="34.9402000">
<ele>264.639984</ele>
<time>2023-11-22T08:55:40.329Z</time>
</trkpt>
<trkpt lat="31.6751100" lon="34.9401100">
<ele>262.949982</ele>
<time>2023-11-22T08:55:40.329Z</time>
</trkpt>
<trkpt lat="31.6749700" lon="34.9401200">
<ele>260.179993</ele>
<time>2023-11-22T08:55:40.329Z</time>
</trkpt>
<trkpt lat="31.6745900" lon="34.9403700">
<ele>247.779999</ele>
<time>2023-11-22T08:55:40.330Z</time>
</trkpt>
<trkpt lat="31.6745100" lon="34.9404300">
<ele>247.089996</ele>
<time>2023-11-22T08:55:40.330Z</time>
</trkpt>
<trkpt lat="31.6744500" lon="34.9404800">
<ele>246.970001</ele>
<time>2023-11-22T08:55:40.330Z</time>
</trkpt>
<trkpt lat="31.6744000" lon="34.9405100">
<ele>247.339996</ele>
<time>2023-11-22T08:55:40.330Z</time>
</trkpt>
<trkpt lat="31.6744000" lon="34.9405100">
<ele>247.339996</ele>
<time>2023-11-22T08:55:40.330Z</time>
</trkpt>
<trkpt lat="31.6744000" lon="34.9405100">
<ele>247.339996</ele>
<time>2023-11-22T08:55:40.330Z</time>
</trkpt>
<trkpt lat="31.6744000" lon="34.9405100">
<ele>247.339996</ele>
<time>2023-11-22T08:55:40.330Z</time>
</trkpt>
<trkpt lat="31.6743500" lon="34.9405400">
<ele>247.779999</ele>
<time>2023-11-22T08:55:40.330Z</time>
</trkpt>
<trkpt lat="31.6740400" lon="34.9407000">
<ele>252.850006</ele>
<time>2023-11-22T08:55:40.330Z</time>
</trkpt>
<trkpt lat="31.6738700" lon="34.9407700">
<ele>255.979996</ele>
<time>2023-11-22T08:55:40.330Z</time>
</trkpt>
<trkpt lat="31.6737400" lon="34.9408000">
<ele>257.049988</ele>
<time>2023-11-22T08:55:40.330Z</time>
</trkpt>
<trkpt lat="31.6735500" lon="34.9407900">
<ele>256.419983</ele>
<time>2023-11-22T08:55:40.330Z</time>
</trkpt>
<trkpt lat="31.6734400" lon="34.9407500">
<ele>254.980011</ele>
<time>2023-11-22T08:55:40.330Z</time>
</trkpt>
<trkpt lat="31.6734400" lon="34.9407400">
<ele>254.830002</ele>
<time>2023-11-22T08:55:40.330Z</time>
</trkpt>
<trkpt lat="31.6734400" lon="34.9407400">
<ele>254.830002</ele>
<time>2023-11-22T08:55:40.330Z</time>
</trkpt>
<trkpt lat="31.6734400" lon="34.9407500">
<ele>254.980011</ele>
<time>2023-11-22T08:55:40.330Z</time>
</trkpt>
<trkpt lat="31.6733400" lon="34.9407200">
<ele>254.210007</ele>
<time>2023-11-22T08:55:40.331Z</time>
</trkpt>
<trkpt lat="31.6732700" lon="34.9406600">
<ele>253.489990</ele>
<time>2023-11-22T08:55:40.331Z</time>
</trkpt>
<trkpt lat="31.6732300" lon="34.9406100">
<ele>253.169998</ele>
<time>2023-11-22T08:55:40.331Z</time>
</trkpt>
<trkpt lat="31.6731900" lon="34.9404700">
<ele>253.630005</ele>
<time>2023-11-22T08:55:40.331Z</time>
</trkpt>
<trkpt lat="31.6731700" lon="34.9403100">
<ele>254.919998</ele>
<time>2023-11-22T08:55:40.331Z</time>
</trkpt>
<trkpt lat="31.6732200" lon="34.9400100">
<ele>256.170013</ele>
<time>2023-11-22T08:55:40.331Z</time>
</trkpt>
<trkpt lat="31.6732200" lon="34.9398900">
<ele>257.480011</ele>
<time>2023-11-22T08:55:40.331Z</time>
</trkpt>
<trkpt lat="31.6732000" lon="34.9397000">
<ele>259.519989</ele>
<time>2023-11-22T08:55:40.331Z</time>
</trkpt>
<trkpt lat="31.6730800" lon="34.9392300">
<ele>259.360016</ele>
<time>2023-11-22T08:55:40.331Z</time>
</trkpt>
<trkpt lat="31.6730400" lon="34.9391200">
<ele>259.269989</ele>
<time>2023-11-22T08:55:40.331Z</time>
</trkpt>
<trkpt lat="31.6730100" lon="34.9389900">
<ele>259.860016</ele>
<time>2023-11-22T08:55:40.331Z</time>
</trkpt>
<trkpt lat="31.6730100" lon="34.9389900">
<ele>259.860016</ele>
<time>2023-11-22T08:55:40.331Z</time>
</trkpt>
<trkpt lat="31.6730100" lon="34.9389900">
<ele>259.860016</ele>
<time>2023-11-22T08:55:40.331Z</time>
</trkpt>
<trkpt lat="31.6730100" lon="34.9389900">
<ele>259.860016</ele>
<time>2023-11-22T08:55:40.331Z</time>
</trkpt>
<trkpt lat="31.6724800" lon="34.9390800">
<ele>256.899994</ele>
<time>2023-11-22T08:55:40.331Z</time>
</trkpt>
<trkpt lat="31.6721200" lon="34.9392400">
<ele>256.739990</ele>
<time>2023-11-22T08:55:40.331Z</time>
</trkpt>
<trkpt lat="31.6720500" lon="34.9395800">
<ele>258.220001</ele>
<time>2023-11-22T08:55:40.331Z</time>
</trkpt>
<trkpt lat="31.6719800" lon="34.9397000">
<ele>258.960022</ele>
<time>2023-11-22T08:55:40.332Z</time>
</trkpt>
<trkpt lat="31.6717500" lon="34.9399900">
<ele>255.170013</ele>
<time>2023-11-22T08:55:40.332Z</time>
</trkpt>
<trkpt lat="31.6712300" lon="34.9404700">
<ele>258.259979</ele>
<time>2023-11-22T08:55:40.332Z</time>
</trkpt>
<trkpt lat="31.6712300" lon="34.9404700">
<ele>258.259979</ele>
<time>2023-11-22T08:55:40.332Z</time>
</trkpt>
<trkpt lat="31.6712300" lon="34.9404700">
<ele>258.259979</ele>
<time>2023-11-22T08:55:40.332Z</time>
</trkpt>
<trkpt lat="31.6706900" lon="34.9409700">
<ele>257.600006</ele>
<time>2023-11-22T08:55:40.332Z</time>
</trkpt>
<trkpt lat="31.6695900" lon="34.9420300">
<ele>254.639999</ele>
<time>2023-11-22T08:55:40.332Z</time>
</trkpt>
<trkpt lat="31.6692500" lon="34.9423700">
<ele>258.640015</ele>
<time>2023-11-22T08:55:40.332Z</time>
</trkpt>
<trkpt lat="31.6691700" lon="34.9422300">
<ele>258.020020</ele>
<time>2023-11-22T08:55:40.332Z</time>
</trkpt>
<trkpt lat="31.6689200" lon="34.9419100">
<ele>257.880005</ele>
<time>2023-11-22T08:55:40.332Z</time>
</trkpt>
<trkpt lat="31.6676300" lon="34.9405800">
<ele>284.220001</ele>
<time>2023-11-22T08:55:40.332Z</time>
</trkpt>
<trkpt lat="31.6674600" lon="34.9405100">
<ele>287.160004</ele>
<time>2023-11-22T08:55:40.332Z</time>
</trkpt>
<trkpt lat="31.6673200" lon="34.9404900">
<ele>287.239990</ele>
<time>2023-11-22T08:55:40.332Z</time>
</trkpt>
<trkpt lat="31.6664800" lon="34.9404900">
<ele>286.660004</ele>
<time>2023-11-22T08:55:40.332Z</time>
</trkpt>
<trkpt lat="31.6663300" lon="34.9404800">
<ele>288.390015</ele>
<time>2023-11-22T08:55:40.332Z</time>
</trkpt>
<trkpt lat="31.6658000" lon="34.9403800">
<ele>298.429993</ele>
<time>2023-11-22T08:55:40.332Z</time>
</trkpt>
<trkpt lat="31.6657400" lon="34.9403500">
<ele>298.899994</ele>
<time>2023-11-22T08:55:40.332Z</time>
</trkpt>
<trkpt lat="31.6656900" lon="34.9402600">
<ele>299.769989</ele>
<time>2023-11-22T08:55:40.333Z</time>
</trkpt>
<trkpt lat="31.6657000" lon="34.9402400">
<ele>300.029999</ele>
<time>2023-11-22T08:55:40.333Z</time>
</trkpt>
<trkpt lat="31.6657500" lon="34.9401800">
<ele>300.850006</ele>
<time>2023-11-22T08:55:40.333Z</time>
</trkpt>
<trkpt lat="31.6665300" lon="34.9399800">
<ele>294.579987</ele>
<time>2023-11-22T08:55:40.333Z</time>
</trkpt>
<trkpt lat="31.6667700" lon="34.9398900">
<ele>296.730011</ele>
<time>2023-11-22T08:55:40.333Z</time>
</trkpt>
<trkpt lat="31.6669400" lon="34.9397900">
<ele>297.820007</ele>
<time>2023-11-22T08:55:40.333Z</time>
</trkpt>
<trkpt lat="31.6670300" lon="34.9397000">
<ele>297.230011</ele>
<time>2023-11-22T08:55:40.333Z</time>
</trkpt>
<trkpt lat="31.6673900" lon="34.9392700">
<ele>292.460022</ele>
<time>2023-11-22T08:55:40.333Z</time>
</trkpt>
<trkpt lat="31.6674800" lon="34.9391200">
<ele>291.899994</ele>
<time>2023-11-22T08:55:40.333Z</time>
</trkpt>
<trkpt lat="31.6676500" lon="34.9387900">
<ele>295.089996</ele>
<time>2023-11-22T08:55:40.333Z</time>
</trkpt>
<trkpt lat="31.6676900" lon="34.9387300">
<ele>295.649994</ele>
<time>2023-11-22T08:55:40.333Z</time>
</trkpt>
<trkpt lat="31.6677400" lon="34.9386800">
<ele>296.270020</ele>
<time>2023-11-22T08:55:40.333Z</time>
</trkpt>
<trkpt lat="31.6678400" lon="34.9386900">
<ele>297.329987</ele>
<time>2023-11-22T08:55:40.333Z</time>
</trkpt>
<trkpt lat="31.6679300" lon="34.9388000">
<ele>297.830017</ele>
<time>2023-11-22T08:55:40.333Z</time>
</trkpt>
<trkpt lat="31.6681600" lon="34.9392000">
<ele>296.899994</ele>
<time>2023-11-22T08:55:40.334Z</time>
</trkpt>
<trkpt lat="31.6683500" lon="34.9394500">
<ele>294.880005</ele>
<time>2023-11-22T08:55:40.334Z</time>
</trkpt>
<trkpt lat="31.6684400" lon="34.9395300">
<ele>294.230011</ele>
<time>2023-11-22T08:55:40.334Z</time>
</trkpt>
<trkpt lat="31.6686400" lon="34.9396600">
<ele>293.130005</ele>
<time>2023-11-22T08:55:40.334Z</time>
</trkpt>
<trkpt lat="31.6688100" lon="34.9397000">
<ele>293.769989</ele>
<time>2023-11-22T08:55:40.334Z</time>
</trkpt>
<trkpt lat="31.6690500" lon="34.9397000">
<ele>294.080017</ele>
<time>2023-11-22T08:55:40.334Z</time>
</trkpt>
<trkpt lat="31.6691200" lon="34.9396600">
<ele>294.220001</ele>
<time>2023-11-22T08:55:40.334Z</time>
</trkpt>
<trkpt lat="31.6692600" lon="34.9395600">
<ele>294.440002</ele>
<time>2023-11-22T08:55:40.334Z</time>
</trkpt>
<trkpt lat="31.6694200" lon="34.9393900">
<ele>294.820007</ele>
<time>2023-11-22T08:55:40.334Z</time>
</trkpt>
<trkpt lat="31.6695100" lon="34.9392600">
<ele>293.389984</ele>
<time>2023-11-22T08:55:40.334Z</time>
</trkpt>
<trkpt lat="31.6695900" lon="34.9390400">
<ele>292.880005</ele>
<time>2023-11-22T08:55:40.334Z</time>
</trkpt>
<trkpt lat="31.6696800" lon="34.9385900">
<ele>293.320007</ele>
<time>2023-11-22T08:55:40.334Z</time>
</trkpt>
<trkpt lat="31.6697100" lon="34.9381000">
<ele>294.779999</ele>
<time>2023-11-22T08:55:40.335Z</time>
</trkpt>
<trkpt lat="31.6697100" lon="34.9378400">
<ele>295.860016</ele>
<time>2023-11-22T08:55:40.335Z</time>
</trkpt>
<trkpt lat="31.6696900" lon="34.9377000">
<ele>296.540009</ele>
<time>2023-11-22T08:55:40.335Z</time>
</trkpt>
<trkpt lat="31.6695800" lon="34.9373000">
<ele>302.170013</ele>
<time>2023-11-22T08:55:40.335Z</time>
</trkpt>
<trkpt lat="31.6691600" lon="34.9362200">
<ele>307.480011</ele>
<time>2023-11-22T08:55:40.335Z</time>
</trkpt>
<trkpt lat="31.6689100" lon="34.9357900">
<ele>308.679993</ele>
<time>2023-11-22T08:55:40.335Z</time>
</trkpt>
<trkpt lat="31.6687700" lon="34.9356100">
<ele>307.489990</ele>
<time>2023-11-22T08:55:40.335Z</time>
</trkpt>
<trkpt lat="31.6687700" lon="34.9356100">
<ele>307.489990</ele>
<time>2023-11-22T08:55:40.335Z</time>
</trkpt>
<trkpt lat="31.6687700" lon="34.9356100">
<ele>307.489990</ele>
<time>2023-11-22T08:55:40.335Z</time>
</trkpt>
<trkpt lat="31.6687700" lon="34.9356100">
<ele>307.489990</ele>
<time>2023-11-22T08:55:40.335Z</time>
</trkpt>
<trkpt lat="31.6687000" lon="34.9355100">
<ele>307.109985</ele>
<time>2023-11-22T08:55:40.335Z</time>
</trkpt>
<trkpt lat="31.6685800" lon="34.9354000">
<ele>308.660004</ele>
<time>2023-11-22T08:55:40.335Z</time>
</trkpt>
<trkpt lat="31.6680200" lon="34.9349900">
<ele>305.350006</ele>
<time>2023-11-22T08:55:40.335Z</time>
</trkpt>
<trkpt lat="31.6676800" lon="34.9348000">
<ele>300.019989</ele>
<time>2023-11-22T08:55:40.336Z</time>
</trkpt>
<trkpt lat="31.6675900" lon="34.9347800">
<ele>299.690002</ele>
<time>2023-11-22T08:55:40.336Z</time>
</trkpt>
<trkpt lat="31.6673800" lon="34.9347800">
<ele>299.970001</ele>
<time>2023-11-22T08:55:40.336Z</time>
</trkpt>
<trkpt lat="31.6672200" lon="34.9348400">
<ele>300.829987</ele>
<time>2023-11-22T08:55:40.336Z</time>
</trkpt>
<trkpt lat="31.6667100" lon="34.9350800">
<ele>298.329987</ele>
<time>2023-11-22T08:55:40.336Z</time>
</trkpt>
<trkpt lat="31.6662400" lon="34.9353400">
<ele>299.260010</ele>
<time>2023-11-22T08:55:40.336Z</time>
</trkpt>
<trkpt lat="31.6660400" lon="34.9353900">
<ele>299.510010</ele>
<time>2023-11-22T08:55:40.336Z</time>
</trkpt>
<trkpt lat="31.6659600" lon="34.9354500">
<ele>300.140015</ele>
<time>2023-11-22T08:55:40.336Z</time>
</trkpt>
<trkpt lat="31.6660700" lon="34.9354800">
<ele>300.799988</ele>
<time>2023-11-22T08:55:40.336Z</time>
</trkpt>
<trkpt lat="31.6661500" lon="34.9356800">
<ele>304.239990</ele>
<time>2023-11-22T08:55:40.336Z</time>
</trkpt>
<trkpt lat="31.6662400" lon="34.9358700">
<ele>307.119995</ele>
<time>2023-11-22T08:55:40.336Z</time>
</trkpt>
<trkpt lat="31.6665700" lon="34.9362800">
<ele>308.959991</ele>
<time>2023-11-22T08:55:40.336Z</time>
</trkpt>
<trkpt lat="31.6667100" lon="34.9366900">
<ele>310.950012</ele>
<time>2023-11-22T08:55:40.336Z</time>
</trkpt>
<trkpt lat="31.6666600" lon="34.9369300">
<ele>309.929993</ele>
<time>2023-11-22T08:55:40.336Z</time>
</trkpt>
<trkpt lat="31.6665000" lon="34.9370900">
<ele>307.359985</ele>
<time>2023-11-22T08:55:40.336Z</time>
</trkpt>
<trkpt lat="31.6662100" lon="34.9372600">
<ele>301.760010</ele>
<time>2023-11-22T08:55:40.336Z</time>
</trkpt>
<trkpt lat="31.6659900" lon="34.9374500">
<ele>302.489990</ele>
<time>2023-11-22T08:55:40.337Z</time>
</trkpt>
<trkpt lat="31.6654100" lon="34.9379900">
<ele>304.480011</ele>
<time>2023-11-22T08:55:40.337Z</time>
</trkpt>
<trkpt lat="31.6649200" lon="34.9384600">
<ele>302.640015</ele>
<time>2023-11-22T08:55:40.337Z</time>
</trkpt>
<trkpt lat="31.6646800" lon="34.9384500">
<ele>297.890015</ele>
<time>2023-11-22T08:55:40.337Z</time>
</trkpt>
<trkpt lat="31.6644200" lon="34.9385600">
<ele>296.690002</ele>
<time>2023-11-22T08:55:40.337Z</time>
</trkpt>
<trkpt lat="31.6644200" lon="34.9385600">
<ele>296.690002</ele>
<time>2023-11-22T08:55:40.337Z</time>
</trkpt>
<trkpt lat="31.6641700" lon="34.9386300">
<ele>298.389984</ele>
<time>2023-11-22T08:55:40.337Z</time>
</trkpt>
<trkpt lat="31.6639300" lon="34.9383600">
<ele>298.889984</ele>
<time>2023-11-22T08:55:40.337Z</time>
</trkpt>
<trkpt lat="31.6637500" lon="34.9379000">
<ele>295.759979</ele>
<time>2023-11-22T08:55:40.337Z</time>
</trkpt>
<trkpt lat="31.6634500" lon="34.9372000">
<ele>289.919983</ele>
<time>2023-11-22T08:55:40.337Z</time>
</trkpt>
<trkpt lat="31.6633800" lon="34.9370200">
<ele>287.690002</ele>
<time>2023-11-22T08:55:40.337Z</time>
</trkpt>
<trkpt lat="31.6633800" lon="34.9370200">
<ele>287.690002</ele>
<time>2023-11-22T08:55:40.337Z</time>
</trkpt>
<trkpt lat="31.6633800" lon="34.9370200">
<ele>287.690002</ele>
<time>2023-11-22T08:55:40.337Z</time>
</trkpt>
<trkpt lat="31.6633800" lon="34.9370200">
<ele>287.690002</ele>
<time>2023-11-22T08:55:40.337Z</time>
</trkpt>
<trkpt lat="31.6632900" lon="34.9367900">
<ele>283.729980</ele>
<time>2023-11-22T08:55:40.337Z</time>
</trkpt>
<trkpt lat="31.6632400" lon="34.9366500">
<ele>281.329987</ele>
<time>2023-11-22T08:55:40.337Z</time>
</trkpt>
<trkpt lat="31.6632300" lon="34.9364300">
<ele>276.859985</ele>
<time>2023-11-22T08:55:40.337Z</time>
</trkpt>
<trkpt lat="31.6632500" lon="34.9364400">
<ele>276.500000</ele>
<time>2023-11-22T08:55:40.338Z</time>
</trkpt>
</trkseg>
</trk>
</gpx>
